[[{"header":{"parameterUnit":"m.s-1","parameterCategory":1,"la1":30.6,"la2":28.766,"lo1":-90.7593,"lo2":-88.6598,"dx":0.0162,"dy":0.0183,"nx":116,"ny":114,"refTime":"2023-01-04T18:00:00:Z","depth":0,"parameterNumber":2,"parameterNumberName":"U-component_of_WINDS"},"data":[0.0,0.0,0.0,0.0,0.0,0.0,0.0,0.0,0.0,0.0,0.0,0.0,0.0,0.0,0.0,0.0,0.0,0.0,0.0,0.0,0.0,0.0,0.0,0.0,0.0,0.0,0.0,0.0,0.0,0.0,0.0,0.0,0.0,0.0,0.0,0.0,0.0,0.0,0.0,0.0,0.0,0.0,0.0,0.0,0.0,0.0,0.0,0.0,0.0,0.0,0.0,0.0,0.0,0.0,0.0,0.0,0.0,0.0,0.0,0.0,0.0,0.0,0.0,0.0,0.0,0.0,0.0,0.0,0.0,0.0,0.0,0.0,0.0,0.0,0.0,0.0,0.0,0.0,0.0,0.0,0.0,0.0,0.0,0.0,0.0,0.0,0.0,0.0,0.0,0.0,0.0,0.0,0.0,0.0,0.0,0.0,0.0,0.0,0.0,0.0,0.0,0.0,0.0,0.0,0.0,0.0,0.0,0.0,0.0,0.0,0.0,0.0,0.0,0.0,0.0,0.0,0.0,0.0,0.0,0.0,0.0,0.0,0.0,0.0,0.0,0.0,0.0,0.0,0.0,0.0,0.0,0.0,0.0,0.0,0.0,0.0,0.0,0.0,0.0,0.0,0.0,0.0,0.0,0.0,0.0,0.0,0.0,0.0,0.0,0.0,0.0,0.0,0.0,0.0,0.0,0.0,0.0,0.0,0.0,0.0,0.0,0.0,0.0,0.0,0.0,0.0,0.0,0.0,0.0,0.0,0.0,0.0,0.0,0.0,0.0,0.0,0.0,0.0,0.0,0.0,0.0,0.0,0.0,0.0,0.0,0.0,0.0,0.0,0.0,0.0,0.0,0.0,0.0,0.0,0.0,0.0,0.0,0.0,0.0,0.0,0.0,0.0,0.0,0.0,0.0,0.0,0.0,0.0,0.0,0.0,0.0,0.0,0.0,0.0,0.0,0.0,0.0,0.0,0.0,0.0,0.0,0.0,0.0,0.0,0.0,0.0,0.0,0.0,0.0,0.0,0.0,0.0,0.0,0.0,0.0,0.0,0.0,0.0,0.0,0.0,0.0,0.0,0.0,0.0,0.0,0.0,0.0,0.0,0.0,0.0,0.0,0.0,0.0,0.0,0.0,0.0,0.0,0.0,0.0,0.0,0.0,0.0,0.0,0.0,0.0,0.0,0.0,0.0,0.0,0.0,0.0,0.0,0.0,0.0,0.0,0.0,0.0,0.0,0.0,0.0,0.0,0.0,0.0,0.0,0.0,0.0,0.0,0.0,0.0,0.0,0.0,0.0,0.0,0.0,0.0,0.0,0.0,0.0,0.0,0.0,0.0,0.0,0.0,0.0,0.0,0.0,0.0,0.0,0.0,0.0,0.0,0.0,0.0,0.0,0.0,0.0,0.0,0.0,0.0,0.0,0.0,0.0,0.0,0.0,0.0,0.0,0.0,0.0,0.0,0.0,0.0,0.0,0.0,0.0,0.0,0.0,0.0,0.0,0.0,0.0,0.0,0.0,0.0,0.0,0.0,0.0,0.0,0.0,0.0,0.0,0.0,0.0,0.0,0.0,0.0,0.0,0.0,0.0,0.0,0.0,0.0,0.0,0.0,0.0,0.0,0.0,0.0,0.0,0.0,0.0,0.0,0.0,0.0,0.0,0.0,0.0,0.0,0.0,0.0,0.0,0.0,0.0,0.0,0.0,0.0,0.0,0.0,0.0,0.0,0.0,0.0,0.0,0.0,0.0,0.0,0.0,0.0,0.0,0.0,0.0,0.0,0.0,0.0,0.0,0.0,0.0,0.0,0.0,0.0,0.0,0.0,0.0,0.0,0.0,0.0,0.0,0.0,0.0,0.0,0.0,0.0,0.0,0.0,0.0,0.0,0.0,0.0,0.0,0.0,0.0,0.0,0.0,0.0,0.0,0.0,0.0,0.0,0.0,0.0,0.0,0.0,0.0,0.0,0.0,0.0,0.0,0.0,0.0,0.0,0.0,0.0,0.0,0.0,0.0,0.0,0.0,0.0,0.0,0.0,0.0,0.0,0.0,0.0,0.0,0.0,0.0,0.0,0.0,0.0,0.0,0.0,0.0,0.0,0.0,0.0,0.0,0.0,0.0,0.0,0.0,0.0,0.0,0.0,0.0,0.0,0.0,0.0,0.0,0.0,0.0,0.0,0.0,0.0,0.0,0.0,0.0,0.0,0.0,0.0,0.0,0.0,0.0,0.0,0.0,0.0,0.0,0.0,0.0,0.0,0.0,0.0,0.0,0.0,0.0,0.0,0.0,0.0,0.0,0.0,0.0,0.0,0.0,0.0,0.0,0.0,0.0,0.0,0.0,0.0,0.0,0.0,0.0,0.0,0.0,0.0,0.0,0.0,0.0,0.0,0.0,0.0,0.0,0.0,0.0,0.0,0.0,0.0,0.0,0.0,0.0,0.0,0.0,0.0,0.0,0.0,0.0,0.0,0.0,0.0,0.0,0.0,0.0,0.0,0.0,0.0,0.0,0.0,0.0,0.0,0.0,0.0,0.0,0.0,0.0,0.0,0.0,0.0,0.0,0.0,0.0,0.0,0.0,0.0,0.0,0.0,0.0,0.0,0.0,0.0,0.0,0.0,0.0,0.0,0.0,0.0,0.0,0.0,0.0,0.0,0.0,0.0,0.0,0.0,0.0,0.0,0.0,0.0,0.0,0.0,0.0,0.0,0.0,0.0,0.0,0.0,0.0,0.0,0.0,0.0,0.0,0.0,0.0,0.0,0.0,0.0,0.0,0.0,0.0,0.0,0.0,0.0,0.0,0.0,0.0,0.0,0.0,0.0,0.0,0.0,0.0,0.0,0.0,0.0,0.0,0.0,0.0,0.0,0.0,0.0,0.0,0.0,0.0,0.0,0.0,0.0,0.0,0.0,0.0,0.0,0.0,0.0,0.0,0.0,0.0,0.0,0.0,0.0,0.0,0.0,0.0,0.0,0.0,0.0,0.0,0.0,0.0,0.0,0.0,0.0,0.0,0.0,0.0,0.0,0.0,0.0,0.0,0.0,0.0,0.0,0.0,0.0,0.0,0.0,0.0,0.0,0.0,0.0,0.0,0.0,0.0,0.0,0.0,0.0,0.0,0.0,0.0,0.0,0.0,0.0,0.0,0.0,0.0,0.0,0.0,0.0,0.0,0.0,0.0,0.0,0.0,0.0,0.0,0.0,0.0,0.0,0.0,0.0,0.0,0.0,0.0,0.0,0.0,0.0,0.0,0.0,0.0,0.0,0.0,0.0,0.0,0.0,0.0,0.0,0.0,0.0,0.0,0.0,0.0,0.0,0.0,0.0,0.0,0.0,0.0,0.0,0.0,0.0,0.0,0.0,0.0,0.0,0.0,0.0,0.0,0.0,0.0,0.0,0.0,0.0,0.0,0.0,0.0,0.0,0.0,0.0,0.0,0.0,0.0,0.0,0.0,0.0,0.0,0.0,0.0,0.0,0.0,0.0,0.0,0.0,0.0,0.0,0.0,0.0,0.0,0.0,0.0,0.0,0.0,0.0,0.0,0.0,0.0,0.0,0.0,0.0,0.0,0.0,0.0,0.0,0.0,0.0,0.0,0.0,0.0,0.0,0.0,0.0,0.0,0.0,0.0,0.0,0.0,0.0,0.0,0.0,0.0,0.0,0.0,0.0,0.0,0.0,0.0,0.0,0.0,0.0,0.0,0.0,0.0,0.0,0.0,0.0,0.0,0.0,0.0,0.0,0.0,0.0,0.0,0.0,0.0,0.0,0.0,0.0,0.0,0.0,0.0,0.0,0.0,0.0,0.0,0.0,0.0,0.0,0.0,0.0,0.0,0.0,0.0,0.0,0.0,0.0,0.0,0.0,0.0,0.0,0.0,0.0,0.0,0.0,0.0,0.0,0.0,0.0,0.0,0.0,0.0,0.0,0.0,0.0,0.0,0.0,0.0,0.0,0.0,0.0,0.0,0.0,0.0,0.0,0.0,0.0,0.0,0.0,0.0,0.0,0.0,0.0,0.0,0.0,0.0,0.0,0.0,0.0,0.0,0.0,0.0,0.0,0.0,0.0,0.0,0.0,0.0,0.0,0.0,0.0,0.0,0.0,0.0,0.0,0.0,0.0,0.0,0.0,0.0,0.0,0.0,0.0,0.0,0.0,0.0,0.0,0.0,0.0,0.0,0.0,0.0,0.0,0.0,0.0,0.0,0.0,0.0,0.0,0.0,0.0,0.0,0.0,0.0,0.0,0.0,0.0,0.0,0.0,0.0,0.0,0.0,0.0,0.0,0.0,0.0,0.0,0.0,0.0,0.0,0.0,0.0,0.0,0.0,0.0,0.0,0.0,0.0,0.0,0.0,0.0,0.0,0.0,0.0,0.0,0.0,0.0,0.0,0.0,0.0,0.0,0.0,0.0,0.0,0.0,0.0,0.0,0.0,0.0,0.0,0.0,0.0,0.0,0.0,0.0,0.0,0.0,0.0,0.0,0.0,0.0,0.0,0.0,0.0,0.0,0.0,0.0,0.0,0.0,0.0,0.0,0.0,0.0,0.0,0.0,0.0,0.0,0.0,0.0,0.0,0.0,0.0,0.0,0.0,0.0,0.0,0.0,0.0,0.0,0.0,0.0,0.0,0.0,0.0,0.0,0.0,0.0,0.0,0.0,0.0,0.0,0.0,0.0,0.0,0.0,0.0,0.0,0.0,0.0,0.0,0.0,0.0,0.0,0.0,0.0,0.0,0.0,0.0,0.0,0.0,0.0,0.0,0.0,0.0,0.0,0.0,0.0,0.0,0.0,0.0,0.0,0.0,0.0,0.0,0.0,0.0,0.0,0.0,0.0,0.0,0.0,0.0,0.0,0.0,0.0,0.0,0.0,0.0,0.0,0.0,0.0,0.0,0.0,0.0,0.0,0.0,0.0,0.0,0.0,0.0,0.0,0.0,0.0,0.0,0.0,0.0,0.0,0.0,0.0,0.0,0.0,0.0,0.0,0.0,0.0,0.0,0.0,0.0,0.0,0.0,0.0,0.0,0.0,0.0,0.0,0.0,0.0,0.0,0.0,0.0,0.0,0.0,0.0,0.0,0.0,0.0,0.0,0.0,0.0,0.0,0.0,0.0,0.0,0.0,0.0,0.0,0.0,0.0,0.0,0.0,0.0,0.0,0.0,0.0,0.0,0.0,0.0,0.0,0.0,0.0,0.0,0.0,0.0,0.0,0.0,0.0,0.0,0.0,0.0,0.0,0.0,0.0,0.0,0.0,0.0,0.0,0.0,0.0,0.0,0.0,0.0,0.0,0.0,0.0,0.0,0.0,0.0,0.0,0.0,0.0,0.0,0.0,0.0,0.0,0.0,0.0,0.0,0.0,0.0,0.0,0.0,0.0,0.0,0.0,0.0,0.0,0.0,0.0,0.0,0.0,0.0,0.0,0.0,0.0,0.0,0.0,0.0,0.0,0.0,0.0,0.0,0.0,0.0,0.0,0.0,0.0,0.0,0.0,0.0,0.0,0.0,0.0,0.0,0.0,0.0,0.0,0.0,0.0,0.0,0.0,0.0,0.0,0.0,0.0,0.0,0.0,0.0,0.0,0.0,0.0,0.0,0.0,0.0,0.0,0.0,0.0,0.0,0.0,0.0,0.0,0.0,0.0,0.0,0.0,0.0,0.0,0.0,0.0,0.0,0.0,0.0,0.0,0.0,0.0,0.0,0.0,0.0,0.0,0.0,0.0,0.0,0.0,0.0,0.0,0.0,0.0,0.0,0.0,0.0,0.0,0.0,0.0,0.0,0.0,0.0,0.0,0.0,0.0,0.0,0.0,0.0,0.0,0.0,0.0,0.0,0.0,0.0,0.0,0.0,0.0,0.0,0.0,0.0,0.0,0.0,0.0,0.0,0.0,0.0,0.0,0.0,0.0,0.0,0.0,0.0,0.0,0.0,0.0,0.0,0.0,0.0,0.0,0.0,0.0,0.0,0.0,0.0,0.0,0.0,0.0,0.0,0.0,0.0,0.0,0.0,0.0,0.0,0.0,0.0,0.0,0.0,0.0,0.0,0.0,0.0,0.0,0.0,0.0,0.0,0.0,0.0,0.0,0.0,0.0,0.0,0.0,-1.0002,-0.8025,0.0,0.0,0.0,0.0,0.0,0.0,0.0,0.0,0.0,0.0,0.0,0.0,0.0,0.0,0.0,0.0,0.0,0.0,0.0,0.0,0.0,0.0,0.0,0.0,0.0,0.0,0.0,0.0,0.0,0.0,0.0,0.0,0.0,0.0,0.0,0.0,-0.6579,-0.7392,-0.7643,-0.8914,-1.1048,-0.9617,-0.8512,-0.7708,0.0,0.0,0.0,0.0,0.0,0.0,0.0,0.0,0.0,0.0,0.0,0.0,0.0,0.0,0.0,0.0,0.0,0.0,0.0,0.0,0.0,0.0,0.0,0.0,0.0,0.0,0.0,0.0,0.0,0.0,0.0,0.0,0.0,0.0,0.0,0.0,0.0,0.0,0.0,0.0,0.0,0.0,0.0,0.0,0.0,0.0,0.0,0.0,0.0,0.0,0.0,0.0,0.0,0.0,0.0,0.0,0.0,0.0,0.0,0.0,0.0,0.0,0.0,0.0,0.0,0.0,0.0,0.0,0.0,0.0,-1.1443,-1.0255,0.0,0.0,0.0,0.0,0.0,0.0,0.0,0.0,0.0,0.0,0.0,0.0,0.0,0.0,0.0,0.0,0.0,0.0,0.0,0.0,0.0,0.0,0.0,-0.7382,-0.7598,-0.7405,-0.7583,-0.7513,0.0,0.0,0.0,0.0,0.0,0.0,0.0,-0.6787,-0.7658,-0.9239,-1.0459,-1.2037,-1.3924,-1.4043,-1.3323,-1.1936,-1.0005,0.0,0.0,0.0,0.0,0.0,0.0,0.0,0.0,0.0,0.0,0.0,0.0,0.0,0.0,0.0,0.0,0.0,0.0,0.0,0.0,0.0,0.0,0.0,0.0,0.0,0.0,0.0,0.0,0.0,0.0,0.0,0.0,0.0,0.0,0.0,0.0,0.0,0.0,0.0,0.0,0.0,0.0,0.0,0.0,0.0,0.0,0.0,0.0,0.0,0.0,0.0,0.0,0.0,0.0,0.0,0.0,0.0,0.0,0.0,0.0,0.0,0.0,0.0,-1.247,-1.2571,-1.2454,-1.2454,-1.3148,-1.4275,-1.2913,-1.2758,-1.3301,-1.0247,0.0,0.0,0.0,0.0,0.0,0.0,0.0,0.0,0.0,0.0,0.0,0.0,0.0,0.0,0.0,0.0,0.0,0.0,0.0,-0.7566,-0.8245,-0.8644,-0.931,-1.0405,-0.9512,-0.885,-0.8786,0.0,0.0,0.0,0.0,0.0,-0.6611,-0.7573,-0.8637,-0.9792,-1.3692,-1.6045,-1.687,-1.7325,-1.7426,-1.7052,-1.3942,-1.2196,-1.1485,0.0,0.0,0.0,0.0,0.0,0.0,0.0,0.0,0.0,0.0,0.0,0.0,0.0,0.0,0.0,0.0,0.0,0.0,0.0,0.0,0.0,0.0,0.0,0.0,0.0,0.0,0.0,0.0,0.0,0.0,0.0,0.0,0.0,0.0,0.0,0.0,0.0,0.0,0.0,0.0,0.0,-1.1314,-1.1364,0.0,0.0,0.0,0.0,0.0,0.0,0.0,0.0,0.0,0.0,0.0,0.0,0.0,-1.2363,-1.2973,-1.4438,-1.4934,-1.4481,-1.594,-1.6346,-1.5848,-1.5848,-1.5698,-1.5375,-1.5159,0.0,-1.2842,-1.1793,0.0,0.0,0.0,0.0,0.0,0.0,0.0,0.0,0.0,0.0,0.0,0.0,0.0,0.0,0.0,0.0,0.0,0.0,0.0,0.0,0.0,-1.1362,-1.2537,-1.2829,-1.2592,-1.1888,-1.0633,-0.9468,0.0,0.0,0.0,-0.6887,-0.7548,-0.8637,-1.0646,-1.3591,-1.65,-1.818,-1.8756,-1.8982,-1.9108,-1.9032,-1.7553,-1.5768,-1.3727,-1.2461,0.0,0.0,0.0,0.0,0.0,0.0,0.0,0.0,0.0,0.0,0.0,0.0,0.0,0.0,0.0,0.0,0.0,0.0,0.0,0.0,0.0,0.0,0.0,0.0,0.0,0.0,0.0,0.0,0.0,0.0,0.0,0.0,0.0,0.0,0.0,0.0,0.0,0.0,0.0,-1.1138,-1.1942,-1.2889,-1.1741,-1.0509,0.0,0.0,0.0,0.0,0.0,0.0,0.0,0.0,0.0,-1.4644,-1.4695,-1.5121,-1.5999,-1.6748,-1.6974,-1.6748,-1.7085,-1.7095,-1.6805,-1.6409,-1.6055,-1.5817,-1.5817,-1.517,-1.3997,-1.2466,-1.1143,-0.9946,0.0,0.0,0.0,0.0,-0.8051,-0.8066,0.0,0.0,0.0,0.0,0.0,0.0,0.0,0.0,0.0,0.0,0.0,0.0,-1.1693,-1.3827,-1.5186,-1.5227,-1.5221,-1.447,-1.2841,-1.1061,-0.9479,-0.8103,-0.7253,-0.7338,-0.8487,-1.0395,-1.3207,-1.6926,-1.8607,-1.9635,-2.0037,-2.0037,-2.0037,-2.0012,-1.9861,-1.8355,-1.5889,-1.5079,-1.3116,-1.0498,0.0,0.0,0.0,0.0,0.0,0.0,0.0,0.0,0.0,0.0,0.0,0.0,0.0,0.0,0.0,0.0,0.0,0.0,0.0,0.0,0.0,0.0,0.0,0.0,0.0,0.0,0.0,0.0,0.0,0.0,0.0,0.0,0.0,0.0,0.0,0.0,0.0,-1.2168,-1.2948,-1.4349,-1.34,-1.2219,0.0,0.0,0.0,0.0,0.0,0.0,-1.4676,-1.4853,-1.5563,-1.6876,-1.6926,-1.7328,-1.8204,-1.8355,-1.8355,-1.8204,-1.7776,-1.7508,-1.7364,-1.6604,-1.6179,-1.605,-1.5847,-1.5433,-1.4738,-1.3305,-1.2488,-1.2006,-1.0427,-0.9687,-0.9551,-0.9942,-0.9922,-0.9883,0.0,0.0,0.0,0.0,0.0,0.0,0.0,0.0,0.0,0.0,0.0,-1.2277,-1.4557,-1.5318,-1.6323,-1.7961,-1.6607,-1.5628,-1.5502,-1.2454,-1.0407,-0.9818,-0.8239,-0.7889,-0.9037,-1.3232,-1.6296,-1.8129,-1.9786,-2.0616,-2.0641,-2.0641,-2.0641,-2.0616,-2.0063,-1.9434,-1.8682,-1.7052,-1.5693,-1.4299,-1.0598,0.0,0.0,0.0,0.0,0.0,0.0,0.0,0.0,0.0,0.0,0.0,0.0,0.0,0.0,0.0,0.0,0.0,0.0,0.0,0.0,0.0,0.0,0.0,0.0,0.0,0.0,0.0,0.0,0.0,0.0,0.0,0.0,0.0,0.0,0.0,0.0,0.0,0.0,-1.5563,-1.5563,0.0,0.0,0.0,0.0,-1.3964,-1.4959,-1.5819,-1.635,-1.6923,-1.7501,-1.8103,-1.8129,-1.8154,-1.8204,-1.8707,-1.8707,-1.8204,-1.8682,-1.8633,-1.8133,-1.7388,-1.6728,-1.6151,-1.5459,-1.4756,-1.4174,-1.4712,-1.4103,-1.2806,-1.2246,-1.1521,-1.0859,-1.133,-1.1489,-1.1606,0.0,0.0,0.0,-0.7468,-0.6953,-0.6611,-0.6611,-0.7388,-0.825,-0.9012,-1.1724,-1.4092,-1.5318,-1.757,-1.9402,-2.0411,-1.9569,-1.8723,-1.8071,-1.48,-1.2814,-1.2612,-1.0646,-1.1059,-1.4381,-1.6999,-1.8982,-2.0313,-2.0943,-2.1219,-2.1219,-2.1219,-2.1219,-2.1194,-2.0641,-2.0289,-2.0012,-1.9032,-1.7576,-1.5819,-1.4412,-1.1826,0.0,0.0,0.0,0.0,0.0,0.0,0.0,0.0,0.0,0.0,0.0,0.0,0.0,0.0,0.0,0.0,0.0,0.0,0.0,0.0,0.0,0.0,0.0,0.0,0.0,0.0,0.0,0.0,0.0,0.0,0.0,0.0,0.0,0.0,0.0,0.0,0.0,-1.6672,-1.6773,0.0,-1.5236,-1.6292,-1.6798,-1.6241,-1.7549,-1.843,-1.8631,-1.8832,-1.9032,-1.9233,-1.9233,-1.9233,-1.9233,-1.9434,-1.9181,-1.8526,-1.8227,-1.7752,-1.7064,-1.6363,-1.5897,-1.5669,-1.5391,-1.5158,-1.4961,-1.5186,-1.4644,-1.3646,-1.349,-1.3237,-1.2983,-1.3164,-1.3223,-1.3262,0.0,0.0,0.0,-0.8039,-0.7363,-0.6937,-0.7137,-0.796,-0.9014,-1.032,-1.3194,-1.562,-1.6982,-1.9136,-2.0704,-2.1322,-2.0818,-2.0173,-1.9517,-1.6451,-1.4651,-1.4651,-1.3182,-1.4118,-1.7852,-1.9359,-2.0539,-2.1493,-2.1669,-2.1769,-2.1769,-2.1769,-2.1769,-2.1744,-2.1219,-2.0867,-2.0666,-2.0289,-1.9133,-1.7528,-1.6801,-1.4538,-1.1465,0.0,0.0,0.0,0.0,0.0,0.0,0.0,0.0,0.0,0.0,0.0,0.0,0.0,0.0,0.0,0.0,0.0,0.0,0.0,0.0,0.0,0.0,0.0,0.0,0.0,0.0,0.0,0.0,0.0,0.0,0.0,0.0,0.0,0.0,-1.5271,-1.6321,-1.7297,-1.7702,-1.7576,-1.6622,-1.7877,-1.8581,-1.8253,-1.9183,-1.9811,-1.9811,-1.9701,-1.9668,-1.9668,-1.9573,-1.9483,-1.9483,-1.9483,-1.9238,-1.877,-1.8267,-1.7785,-1.7291,-1.6532,-1.6147,-1.6007,-1.5743,-1.5547,-1.541,-1.541,-1.505,-1.4523,-1.4387,-1.4328,-1.4309,-1.4153,-1.4114,-1.4114,0.0,0.0,-0.9113,-0.9113,-0.8175,-0.7628,-0.82,-0.8774,-1.0132,-1.2822,-1.466,-1.6811,-1.9655,-1.9856,-2.0068,-2.0718,-2.0194,-1.9811,-1.9837,-1.7247,-1.5718,-1.5743,-1.5844,-1.6923,-1.9058,-2.0188,-2.1043,-2.1543,-2.2071,-2.2318,-2.2318,-2.2318,-2.2318,-2.2322,-2.1769,-2.1245,-2.0742,-2.0717,-2.0365,-1.9635,-1.7453,-1.655,-1.6074,0.0,0.0,0.0,0.0,0.0,0.0,0.0,0.0,0.0,0.0,0.0,0.0,0.0,0.0,0.0,0.0,0.0,0.0,0.0,0.0,0.0,0.0,0.0,0.0,0.0,0.0,0.0,0.0,0.0,0.0,0.0,0.0,0.0,-1.645,-1.655,-1.6798,-1.7398,-1.8405,-1.8807,-1.8304,-1.9208,-1.9836,-1.9836,-1.9836,-1.9861,-1.9861,-1.9616,-1.9468,-1.9468,-1.9135,-1.897,-1.894,-1.894,-1.891,-1.8881,-1.8881,-1.8851,-1.8791,-1.8086,-1.7551,-1.7155,-1.6437,-1.587,-1.5449,-1.5449,-1.5449,-1.541,-1.498,-1.4833,-1.4746,-1.4309,-1.4153,-1.4153,-0.9893,-0.9478,-0.9113,-0.9113,-0.8512,-0.81,-0.8286,-0.9404,-1.0833,-1.2413,-1.4771,-1.6884,-1.8512,-1.9355,-2.0066,-2.0746,-2.0194,-1.9991,-2.0497,-1.7874,-1.6471,-1.692,-1.9208,-2.079,-2.1365,-2.2067,-2.2493,-2.2644,-2.2794,-2.2869,-2.2869,-2.2869,-2.2869,-2.2869,-2.2322,-2.1995,-2.182,-2.1043,-2.0591,-2.0365,-1.9309,-1.7953,-1.6375,0.0,0.0,0.0,0.0,0.0,0.0,0.0,0.0,0.0,0.0,0.0,0.0,0.0,0.0,0.0,0.0,0.0,0.0,0.0,0.0,0.0,0.0,0.0,0.0,0.0,0.0,0.0,0.0,0.0,0.0,0.0,-1.5389,-1.6996,-1.7124,-1.7827,-1.8506,-1.9083,-1.9409,-1.9535,-1.9384,-2.0038,-2.0465,-2.0465,-2.079,-2.1016,-2.1016,-2.0974,-2.0937,-2.0937,-2.0835,-2.0485,-1.9849,-1.9849,-1.9238,-1.8086,-1.8086,-1.7832,-1.7295,-1.7076,-1.6923,-1.6823,-1.6605,-1.6453,-1.6336,-1.6336,-1.6336,-1.6258,-1.5527,-1.5234,-1.5215,-1.5069,-1.503,-1.4991,-0.9893,-0.9642,-0.9428,-0.9428,-0.9001,-0.8713,-0.8939,-0.9955,-1.136,-1.3207,-1.5241,-1.7124,-1.8706,-1.9434,-1.9965,-2.0346,-2.0245,-2.0143,-2.0036,-1.8492,-1.8028,-1.9082,-2.0941,-2.2171,-2.2619,-2.2945,-2.3095,-2.3095,-2.3095,-2.3095,-2.3095,-2.3095,-2.3095,-2.3095,-2.2769,-2.2493,-2.2272,-2.1619,-2.1119,-2.0666,-2.0339,-1.9258,-1.7829,-1.7378,-1.64,-1.5176,-1.4342,-1.3623,-1.2991,-1.2422,0.0,0.0,0.0,0.0,0.0,0.0,0.0,0.0,0.0,0.0,0.0,0.0,0.0,0.0,0.0,0.0,0.0,0.0,0.0,0.0,0.0,0.0,0.0,0.0,-1.7017,-1.824,-1.824,-1.8859,-1.956,-2.0087,-2.0189,-2.0289,-2.0489,-2.0842,-2.1043,-2.1043,-2.1345,-2.1493,-2.1493,-2.1014,-2.0734,-2.0734,-2.0294,-1.9778,-1.9284,-1.9284,-1.8806,-1.7873,-1.7873,-1.7668,-1.7233,-1.7233,-1.7135,-1.7012,-1.7012,-1.6863,-1.6707,-1.6707,-1.6707,-1.6648,0.0,0.0,0.0,0.0,-1.541,-1.5371,-0.9893,-0.9893,-0.9893,-0.9893,-0.9503,-0.9353,-0.9818,-1.0407,-1.1801,-1.4532,-1.5844,-1.7328,-1.956,-1.9811,-1.9811,-1.9811,-2.0415,-2.0365,-1.9334,-1.9334,-2.0011,-2.1418,-2.1619,-2.2121,-2.307,-2.3095,-2.3095,-2.3095,-2.3095,-2.3095,-2.3095,-2.3095,-2.3095,-2.3095,-2.3095,-2.2844,-2.2397,-2.2347,-2.1719,-2.0792,-2.0717,-2.0339,-1.971,-1.8731,-1.838,-1.8131,-1.637,-1.5553,-1.5101,-1.3608,0.0,0.0,0.0,0.0,0.0,0.0,0.0,0.0,0.0,0.0,0.0,0.0,0.0,0.0,0.0,0.0,0.0,0.0,0.0,0.0,0.0,0.0,0.0,0.0,-1.8594,-1.9483,-1.9483,-1.9783,-2.0161,-2.0582,-2.0713,-2.0993,-2.1443,-2.1543,-2.154,-2.1456,-2.1506,-2.1499,-2.139,-2.0394,0.0,0.0,0.0,-1.8245,-1.8144,-1.8144,-1.811,-1.8008,-1.8008,-1.8008,-1.8008,-1.8008,-1.7812,-1.7494,-1.7494,-1.7227,-1.6843,-1.6843,-1.6843,-1.6843,-1.6746,-1.6484,-1.6124,-1.5703,-1.5566,-1.5566,-0.9893,-0.9893,-0.9893,-0.9893,-0.9818,-0.9767,-0.9893,-1.0772,-1.2269,-1.4601,-1.5844,-1.7328,-1.956,-1.9811,-1.9811,-1.9811,-2.074,-2.1242,-2.1041,-2.1443,-2.1619,-2.1493,-2.2347,-2.2895,-2.3095,-2.3095,-2.3095,-2.3095,-2.3095,-2.3095,-2.3095,-2.3095,-2.3095,-2.3095,-2.3095,-2.3045,-2.292,-2.2468,-2.192,-2.132,-2.0867,-2.0339,-1.9786,-1.9585,-1.9484,-1.9459,-1.9058,-1.8486,-1.7937,-1.7591,-1.6358,-1.479,-1.3871,-1.255,0.0,0.0,0.0,0.0,0.0,0.0,0.0,0.0,0.0,0.0,0.0,0.0,0.0,0.0,0.0,0.0,0.0,0.0,0.0,-1.7548,-1.9029,-2.0055,-2.0055,-2.0692,-2.0971,-2.037,-2.0902,-2.1395,-2.1468,-2.1895,-2.1832,-2.1163,-2.1542,-2.1507,-2.0802,-2.0547,-2.0456,-2.0456,-2.0224,-1.9748,-1.9044,-1.9044,-1.8697,-1.8008,-1.8008,0.0,-1.8008,-1.8008,-1.7969,-1.7891,-1.7891,-1.7852,-1.7754,-1.7754,-1.7754,-1.7695,-1.696,-1.6648,-1.6551,-1.6473,-1.6453,-1.6453,-0.9893,-0.9893,-0.9893,-0.9893,-0.9893,-0.9893,-0.9893,-1.0886,-1.2294,-1.4249,-1.5417,-1.6848,-1.8781,-1.8756,-1.8581,-1.8581,-1.9359,-2.0313,-2.1446,-2.1744,-2.202,-2.2297,-2.2819,-2.3095,-2.3095,-2.3095,-2.3095,-2.3095,-2.3095,-2.3095,-2.3095,-2.3095,-2.3095,-2.3095,-2.3095,-2.3095,-2.3095,-2.2819,-2.2397,-2.187,-2.1594,-2.1142,-2.0589,-2.0012,-1.9811,-1.9811,-1.9811,-1.9553,-1.919,-1.8821,-1.8036,-1.7053,-1.6221,-1.4742,-1.2957,0.0,0.0,0.0,0.0,0.0,0.0,0.0,0.0,0.0,0.0,0.0,0.0,0.0,0.0,-1.4339,-1.5909,0.0,-1.7247,-1.8769,-1.9506,-1.9953,-1.9953,-2.0574,-2.1093,-2.1233,-2.1267,-2.1365,-2.1687,-2.1542,-2.1289,-2.0834,-2.1088,-2.1069,-2.0623,-2.0171,-1.9944,-1.9944,-1.9519,-1.9077,-1.8664,-1.8664,-1.8428,-1.8008,-1.8008,-1.8008,-1.8008,-1.8008,-1.8008,-1.8008,-1.8008,-1.8008,-1.8008,-1.8008,-1.8008,-1.7969,-1.7506,-1.7246,-1.7031,-1.6785,-1.6707,-1.6707,-0.9893,-0.9893,-0.9893,-0.9893,-0.9893,-0.9893,-0.9893,-1.0772,-1.2043,-1.372,-1.4783,-1.5969,-1.7551,-1.7325,-1.7197,-1.7549,-1.7953,-1.9183,-2.1493,-2.1644,-2.2096,-2.307,-2.3095,-2.3095,-2.3095,-2.3095,-2.3095,-2.3095,-2.3095,-2.3095,-2.3095,-2.3095,-2.3095,-2.3095,-2.3095,-2.3095,-2.3095,-2.3095,-2.2794,-2.2322,-2.2322,-2.197,-2.1393,-2.0489,-2.0062,-1.9962,-1.9836,-1.9734,-1.9501,-1.89,-1.8608,-1.8367,-1.7633,-1.6272,-1.4687,-1.3268,-1.204,0.0,0.0,0.0,0.0,0.0,0.0,0.0,0.0,-1.1859,-1.2806,-1.4644,-1.5239,-1.599,-1.7835,-1.7904,-1.8221,-1.9762,-1.9931,-1.983,-1.9651,-2.0195,-2.094,-2.1877,-2.1356,-2.1103,-2.1612,-2.1005,-2.0526,-2.0365,-2.0365,-2.0313,-2.0205,-1.9483,-1.9085,-1.9168,-1.8401,-1.8047,-1.8125,-1.8125,-1.8184,-1.8262,-1.8164,-1.8125,-1.8091,-1.8047,-1.8008,-1.8008,-1.8008,-1.8008,-1.8008,-1.8008,-1.8008,-1.8008,-1.8008,-1.7812,-1.7461,-1.7077,-1.6844,-1.6683,-0.9893,-0.9893,-0.9893,-0.9893,-0.9893,-0.9893,-0.9893,-1.0407,-1.141,-1.309,-1.3878,-1.4702,-1.5864,-1.5919,-1.6497,-1.7978,-1.8179,-1.9334,-2.2046,-2.2221,-2.2498,-2.307,-2.3095,-2.3095,-2.3095,-2.3095,-2.3095,-2.3095,-2.3095,-2.3095,-2.3095,-2.3095,-2.3095,-2.3095,-2.3095,-2.3095,-2.3095,-2.3095,-2.2794,-2.2322,-2.2322,-2.197,-2.1496,-2.1343,-2.1018,-2.0541,-1.9987,-1.9371,-1.8821,-1.8741,-1.8259,-1.7605,-1.6877,-1.6462,-1.5897,-1.3961,-1.2763,-1.1775,-1.0449,-0.9939,-1.0322,-1.2425,-1.2168,-1.2516,0.0,-1.6558,-1.5967,-1.7939,-1.8379,-1.8629,-1.9349,-1.9443,-1.9425,-1.9382,-2.0029,-2.0212,-1.9455,-2.0063,-2.0664,-2.0778,-2.0692,-2.0651,-2.0751,-2.0655,-2.0268,-1.9486,-1.9474,-1.9243,-1.8849,-1.8375,-1.8321,-1.866,-1.8237,-1.8184,-1.852,-1.8539,-1.8734,-1.9141,-1.8715,-1.8539,-1.852,-1.8149,-1.8008,-1.8008,-1.8008,-1.8008,-1.8008,-1.8008,-1.8008,-1.8008,-1.8008,-1.7988,-1.793,-1.7891,-1.7324,-1.6622,-0.9893,-0.9893,-0.9893,-0.9893,-0.9893,-0.9893,-0.9893,-1.0356,-1.1084,-1.2128,-1.2755,-1.3383,-1.4168,-1.3986,-1.4337,-1.5688,-1.6672,-1.8105,-2.0236,-2.1566,-2.2393,-2.2619,-2.292,-2.3095,-2.3095,-2.3095,-2.3095,-2.3095,-2.3095,-2.3095,-2.3095,-2.3095,-2.3095,-2.3095,-2.3095,-2.3095,-2.3095,-2.3095,-2.297,-2.2769,-2.2769,-2.2619,-2.2422,-2.2096,-2.1619,-2.0989,-1.9717,-1.8889,0.0,-1.7845,-1.7501,-1.7225,-1.7159,-1.6684,-1.5924,-1.4826,-1.3926,-1.3396,-1.3784,-1.329,-1.3021,-1.4737,-1.4704,-1.4683,-1.6465,-1.6759,-1.7045,-1.8441,-1.8676,-1.8826,-1.9361,-1.9059,-1.8849,-1.9234,-1.9584,-1.9716,-1.9354,-1.9819,-1.9989,-1.9505,-1.9665,-1.9933,-2.0178,-1.9973,-1.9692,-1.9329,-1.9294,-1.9198,-1.9004,-1.8848,-1.8828,-1.9004,-1.8848,-1.8848,-1.9023,-1.9023,-1.9102,-1.9297,-1.9102,-1.9023,-1.9004,-1.8828,-1.875,-1.875,-1.875,-1.875,-1.873,-1.8442,-1.8011,-1.7518,-1.7294,-1.6837,-1.6507,-1.7579,-1.7389,-1.6593,-0.9893,-0.9893,-0.9893,-0.9893,-0.9893,-0.9893,-0.9893,-1.0231,-1.0682,-1.1274,-1.1685,-1.2087,-1.2472,-1.2037,-1.2228,-1.3518,-1.4984,-1.6672,-1.8657,-2.0537,-2.1769,-2.2071,-2.2594,-2.2869,-2.2869,-2.302,-2.3095,-2.3095,-2.3095,-2.3095,-2.3095,-2.3095,-2.3095,-2.3095,-2.3095,-2.302,-2.2869,-2.2869,-2.2794,-2.2644,-2.2644,-2.2644,-2.2619,-2.2246,-2.1459,-2.0447,-1.9182,-1.8269,-1.7441,-1.6345,-1.6008,-1.609,-1.6233,-1.5908,-1.5374,-1.5167,-1.4626,-1.4319,-1.541,-1.5242,-1.5043,-1.6116,-1.6417,-1.6398,-1.6172,-1.6798,-1.7605,-1.8274,-1.8385,-1.8488,-1.8849,-1.863,-1.8496,-1.8877,-1.9144,-1.9252,-1.9142,-1.9363,-1.9353,-1.8825,-1.9199,-1.9571,-1.9874,-1.9557,-1.9297,-1.9297,-1.9297,-1.9336,-1.9453,-1.9355,-1.9336,-1.9453,-1.9355,-1.9336,-1.9453,-1.9453,-1.9531,-1.9666,-1.9512,-1.9453,-1.9453,-1.9336,-1.9297,-1.9297,-1.9297,-1.9297,-1.9258,-1.8945,-1.8237,-1.7316,-1.7009,-1.6296,-1.5596,-1.6845,-1.6666,-1.579,-0.9893,-0.9893,-0.9893,-0.9893,-0.9893,-0.9893,-0.9893,-0.9918,-1.0119,-1.0657,-1.0744,-1.0744,-1.0769,-1.0306,-1.0646,-1.2303,-1.3518,-1.5331,-1.8053,-1.9258,-2.0363,-2.1496,-2.2046,-2.2318,-2.2318,-2.2819,-2.3095,-2.3095,-2.3095,-2.3095,-2.3095,-2.3095,-2.3095,-2.3095,-2.3095,-2.2819,-2.2318,-2.2318,-2.202,-2.1543,-2.1543,-2.1543,-2.1543,-2.1518,-2.0221,-1.8381,-1.8331,-1.7517,-1.6147,-1.4085,-1.3505,-1.3553,-1.316,-1.3547,-1.4238,-1.4676,-1.4473,-1.4016,-1.3698,-1.4187,-1.5009,-1.59,-1.6731,-1.7441,-1.7852,-1.7949,-1.7983,-1.8022,-1.8022,-1.8022,-1.8042,-1.8731,-1.8977,-1.8178,-1.8744,-1.9122,-1.8695,-1.8633,-1.8789,-1.9219,-1.9648,-1.9883,-1.992,-1.9549,-1.9297,-1.9297,-1.9297,-1.9473,-1.9883,-1.9512,-1.9473,-1.9883,-1.9492,-1.9473,-1.9883,-1.9902,-2.0117,-2.0566,-2.0098,-1.9902,-1.9883,-1.9473,-1.9297,-1.9297,-1.9297,-1.9297,-1.9297,-1.9277,-1.8673,-1.7692,-1.7674,-1.6966,-1.5956,-1.5762,-1.4887,-1.3774,-1.1037,-1.0721,-1.0432,-1.0432,-1.0131,-0.9893,-0.9893,-0.9893,-0.9968,-1.0156,-1.0156,0.0,0.0,0.0,0.0,0.0,-1.2881,-1.4362,-1.6396,-1.823,-1.961,-2.0338,-2.1267,-2.1769,-2.1769,-2.2297,-2.2368,-2.2046,-2.2368,-2.2569,-2.2569,-2.2569,-2.2744,-2.3095,-2.2719,-2.2468,-2.2297,-2.192,-2.1669,-2.1493,-2.1493,-2.1493,-2.1462,-2.1243,-1.9949,-1.8043,0.0,-1.5238,-1.4049,-1.2671,-1.2355,-1.2609,-1.283,-1.2871,-1.2866,-1.3022,-1.3789,-1.459,-1.4727,-1.541,-1.6289,-1.7148,-1.7578,-1.7832,-1.7969,-1.8008,-1.8008,-1.8008,-1.7793,-1.7676,-1.7949,-1.8041,-1.8122,-1.8374,-1.8661,-1.8869,-1.904,-1.9316,-1.9531,-1.9687,-2.0078,-2.0352,-2.0352,-2.0253,-2.0175,-2.0175,-2.0175,-2.0233,-2.037,-2.0253,-2.0233,-2.037,-2.0253,-2.0233,-2.0352,-2.0352,-2.0449,-2.0605,-2.0449,-2.0352,-2.037,-2.0233,-2.0175,-2.0175,-2.0175,-2.0175,-2.0155,-1.9824,-1.8694,-1.7154,-1.6822,-1.5634,-1.4141,-1.404,-1.3747,-1.3415,-1.1615,-1.1299,-1.0958,-1.0758,-1.0407,0.0,0.0,0.0,0.0,0.0,0.0,0.0,0.0,0.0,0.0,0.0,0.0,-1.324,-1.4714,-1.6522,-1.7877,-1.8606,-1.9334,-1.9911,-2.0313,-2.0464,-2.0665,-2.0891,-2.1242,-2.1619,-2.202,-2.202,-2.2196,-2.2493,-2.2171,-2.192,-2.1694,-2.1343,-2.0929,-2.0486,-2.0196,-1.9793,-1.9358,-1.8857,-1.7454,0.0,-1.3916,-1.2609,-1.1545,-1.0723,-1.0904,-1.1527,-1.1866,-1.2285,-1.2691,-1.2847,-1.3809,-1.4941,-1.5684,-1.6278,-1.6902,-1.7793,-1.8008,-1.8008,-1.8008,-1.8008,-1.8008,-1.8008,-1.7559,-1.7285,-1.7715,-1.7559,-1.7617,-1.8266,-1.8754,-1.9163,-1.9473,-1.9883,-2.0137,-2.0137,-2.0429,-2.0605,-2.0605,-2.0605,-2.0605,-2.0605,-2.0605,-2.0605,-2.0605,-2.0605,-2.0605,-2.0605,-2.0605,-2.0605,-2.0605,-2.0605,-2.0605,-2.0605,-2.0605,-2.0605,-2.0605,-2.0605,-2.0605,-2.0605,-2.0605,-2.0605,-2.0547,-1.987,-1.856,-1.6994,-1.6275,-1.4989,-1.3507,-1.34,-1.332,-1.3373,-1.1691,-1.1666,-1.145,0.0,0.0,0.0,0.0,0.0,0.0,0.0,0.0,0.0,0.0,0.0,0.0,0.0,0.0,0.0,-1.3048,-1.4186,-1.5311,-1.6375,-1.6425,-1.6977,-1.8103,-1.7626,-1.8129,-1.9635,-1.966,-2.0238,-2.1267,-2.1267,-2.1292,-2.1317,-2.129,-2.1041,-2.0566,-2.0539,-1.9767,-1.8503,-1.7749,-1.6693,-1.5497,-1.4671,-1.3119,-1.134,-1.0851,-0.9905,-0.8854,-0.8561,-0.9334,-1.0449,-1.0488,-1.1895,-1.3652,-1.4016,-1.4512,-1.5156,-1.6356,-1.6726,-1.696,-1.7812,-1.8008,-1.8008,-1.8008,-1.8008,-1.8008,-1.7949,-1.7252,-1.6785,-1.7187,-1.7305,-1.75,-1.791,-1.9062,-1.9922,-1.9941,-2.0312,-2.0605,-2.0605,-2.0605,-2.0605,-2.0605,-2.0605,-2.0605,-2.0605,-2.0605,-2.0605,-2.0605,-2.0605,-2.0605,-2.0605,-2.0605,-2.0605,-2.0605,-2.0605,-2.0605,-2.0605,-2.0605,-2.0605,-2.0605,-2.0605,-2.0566,-2.0527,-2.0527,-2.0489,-2.0352,-1.9313,-1.8221,-1.7131,-1.6108,-1.5061,-1.4055,-1.3733,-1.3626,-1.3586,0.0,0.0,0.0,0.0,0.0,0.0,0.0,0.0,0.0,0.0,0.0,0.0,0.0,0.0,0.0,0.0,0.0,0.0,-1.1952,-1.3015,-1.4118,-1.5261,-1.5693,-1.6245,-1.6901,-1.7225,-1.7375,-1.7328,-1.7777,-1.8177,-1.8454,-1.8454,-1.8656,-1.9008,-1.8559,-1.8535,-1.8807,-1.8363,-1.7606,-1.6686,-1.6466,-1.5547,-1.4228,-1.3762,-1.2636,-1.123,-1.0619,-0.9756,-0.8942,-0.9202,-1.0605,-1.2347,-1.2925,-1.375,-1.4492,-1.459,-1.5391,-1.6278,-1.6609,-1.7155,-1.7734,-1.7949,-1.8008,-1.8008,-1.8008,-1.8008,-1.7832,-1.7155,-1.6621,-1.6105,-1.5547,-1.625,-1.7031,-1.748,-1.8887,-2.0019,-2.0352,-2.0527,-2.0605,-2.0605,-2.0605,-2.0605,-2.0605,-2.0605,-2.0605,-2.0605,-2.0605,-2.0605,-2.0605,-2.0605,-2.0605,-2.0605,-2.0605,-2.0605,-2.0605,-2.0605,-2.0605,-2.0605,-2.0605,-2.0605,-2.0605,-2.0605,-2.0157,-1.9411,-1.9411,-1.8917,-1.8101,-1.7859,-1.709,-1.6067,-1.582,-1.5061,-1.4082,-1.4001,-1.3975,-1.3961,0.0,0.0,0.0,0.0,0.0,0.0,0.0,0.0,0.0,0.0,0.0,0.0,0.0,0.0,0.0,0.0,0.0,0.0,0.0,-1.1635,-1.2513,-1.34,-1.3483,-1.3867,-1.467,-1.4538,-1.489,-1.5793,-1.5643,-1.6045,-1.6999,-1.6518,-1.6468,-1.6748,-1.6416,-1.635,-1.6482,-1.6126,-1.5413,0.0,0.0,-1.3171,-1.1888,-1.1353,-1.0551,-0.9659,-0.9284,-0.9437,-0.9918,-1.0764,-1.1992,-1.3301,-1.416,-1.4707,-1.5137,-1.5527,-1.6122,-1.6785,-1.7155,-1.7637,-1.8008,-1.8008,-1.8008,-1.791,-1.7539,-1.7408,-1.7116,-1.6094,-1.5371,-1.4805,-1.4316,-1.543,-1.6582,-1.7031,-1.9004,-2.0508,-2.0605,-2.0742,-2.0781,-2.0625,-2.0605,-2.0605,-2.0605,-2.0605,-2.0605,-2.0605,-2.0605,-2.0605,-2.0605,-2.0605,-2.0605,-2.0605,-2.0605,-2.0605,-2.0605,-2.0605,-2.0605,-2.0605,-2.0605,-2.0605,-2.0566,-2.0118,-1.9569,-1.8957,-1.8479,-1.79,-1.7253,-1.6805,-1.6232,-1.5655,-1.5171,-1.4615,-1.4082,-1.4082,-1.4082,-1.4082,0.0,0.0,0.0,0.0,0.0,0.0,0.0,0.0,0.0,-1.0671,-1.0244,-1.0018,-1.0018,-0.9943,0.0,0.0,0.0,0.0,0.0,0.0,-1.0858,-1.145,-1.0983,-1.1209,-1.2262,-1.1334,-1.2027,-1.4456,-1.3466,-1.3967,-1.5823,-1.4909,-1.4456,-1.4456,-1.4418,-1.4209,-1.3959,-1.3914,-1.3271,-1.227,-1.1505,-1.0461,-0.9279,0.0,-0.8066,-0.7705,-0.7822,-0.9104,-1.0977,-1.2461,-1.3359,-1.4004,-1.4863,-1.541,-1.5868,-1.6648,-1.6863,-1.7038,-1.7812,-1.8008,-1.8008,-1.8008,-1.8008,-1.7793,-1.6902,-1.6648,-1.6219,-1.4902,-1.3984,-1.3398,-1.3281,-1.4676,-1.6026,-1.6512,-1.8987,-2.082,-2.0644,-2.0898,-2.0996,-2.0644,-2.0605,-2.0605,-2.0605,-2.0605,-2.0605,-2.0605,-2.0664,-2.0664,-2.0605,-2.0605,-2.0605,-2.0605,-2.0605,-2.0605,-2.0605,-2.0605,-2.0605,-2.0605,-2.0605,-2.0527,-2.0372,-1.9392,-1.8838,-1.8501,-1.7536,-1.7009,-1.6805,-1.5861,-1.5504,-1.5421,-1.4447,-1.4082,-1.4082,-1.4082,-1.4082,-1.4082,0.0,0.0,0.0,0.0,0.0,0.0,0.0,0.0,0.0,0.0,-1.2002,-1.0543,0.0,0.0,0.0,0.0,0.0,0.0,0.0,0.0,0.0,-1.0833,-1.0758,-1.1034,-1.1726,-1.155,-1.1676,-1.2168,-1.1977,-1.2077,-1.247,-1.2269,-1.2168,-1.2162,-1.1778,-1.1827,-1.222,-1.1889,-1.1216,-1.0375,-1.0219,-0.9301,-0.8016,-0.7876,0.0,0.0,-0.8519,-0.9221,-1.0196,-1.2598,-1.4422,-1.5791,-1.666,-1.7227,-1.7598,-1.7734,-1.7759,-1.7812,-1.7969,-1.8008,-1.8008,-1.8008,-1.8008,-1.7793,-1.6902,-1.6445,-1.5733,-1.4062,-1.334,-1.2798,-1.2054,-1.3301,-1.4816,-1.6026,-1.7812,-1.9397,-2.0468,-2.0664,-2.0703,-2.0625,-2.0605,-2.0605,-2.0605,-2.0605,-2.0605,-2.0605,-2.0918,-2.0957,-2.0625,-2.0605,-2.0605,-2.0605,-2.0605,-2.0605,-2.0605,-2.0605,-2.0605,-2.0605,-2.0605,-2.0118,-1.9274,-1.9076,-1.802,-1.6273,-1.6067,-1.5462,-1.4657,-1.4447,-1.4377,-1.4377,-1.4166,-1.4082,-1.4082,-1.4082,-1.4082,-1.4082,0.0,0.0,0.0,0.0,0.0,0.0,0.0,-1.3048,-1.3675,-1.5383,-1.44,-1.315,-1.2164,-1.1013,-1.0212,0.0,0.0,0.0,0.0,0.0,0.0,-1.0038,-1.0025,-1.0064,-1.0159,-1.0145,-1.0421,-1.104,0.0,-1.046,-1.1016,-1.0436,-1.0145,-1.013,-0.9905,-0.9881,-0.9965,-0.9783,-0.9324,-0.8741,-0.8741,-0.8329,-0.7705,0.0,0.0,0.0,-0.8675,-0.9552,-1.0507,-1.2015,-1.4109,-1.6242,-1.7142,-1.7676,-1.8008,-1.8008,-1.8008,-1.8008,-1.8008,-1.8008,-1.8008,-1.8008,-1.8008,-1.7656,-1.6348,-1.5703,-1.4872,-1.2915,-1.2148,-1.166,-1.1036,-1.248,-1.4004,-1.4629,-1.6902,-1.8812,-1.9473,-2.0175,-2.0605,-2.0605,-2.0605,-2.0703,-2.0898,-2.0918,-2.0996,-2.1271,-2.1445,-2.1269,-2.0644,-2.0605,-2.0605,-2.0605,-2.0605,-2.0605,-2.0605,-2.0605,-2.0605,-2.0605,-2.0605,-2.004,-1.8997,-1.8399,-1.7253,-1.5655,-1.5103,-1.4573,-1.4082,-1.4082,-1.4082,-1.4082,-1.4082,-1.4082,-1.4082,-1.4082,-1.4082,-1.4082,0.0,0.0,0.0,0.0,0.0,0.0,0.0,-1.4406,-1.512,-1.69,-1.6746,-1.5785,-1.4096,-1.2224,-1.0794,0.0,0.0,0.0,0.0,0.0,0.0,0.0,0.0,0.0,-0.8814,0.0,0.0,-1.0276,-0.9395,0.0,0.0,0.0,0.0,0.0,-0.8731,-0.8551,-0.8305,-0.8205,-0.799,0.0,0.0,-0.7705,-0.7705,0.0,0.0,0.0,0.0,-0.9512,-1.0469,-1.1213,-1.315,-1.5439,-1.6387,-1.7305,-1.7969,-1.7793,-1.7871,-1.8008,-1.8008,-1.8008,-1.8008,-1.8008,-1.8008,-1.7559,-1.5801,-1.5019,-1.4062,-1.2037,-1.1173,-1.0723,-1.0606,-1.1976,-1.3242,-1.3711,-1.6102,-1.8071,-1.8539,-1.959,-2.039,-2.0586,-2.0605,-2.0742,-2.1151,-2.119,-2.1385,-2.1855,-2.1894,-2.1582,-2.0918,-2.0879,-2.0879,-2.0879,-2.0879,-2.0879,-2.0879,-2.0879,-2.0761,-2.0465,-2.0465,-1.9771,-1.8464,-1.7565,-1.6573,-1.55,-1.4639,-1.4269,-1.4269,-1.4269,-1.4269,-1.4269,-1.4202,-1.4175,-1.4175,-1.4108,-1.4082,-1.4082,0.0,0.0,0.0,0.0,0.0,0.0,0.0,-1.4755,-1.6184,-1.9416,-1.8498,-1.7119,-1.5971,-1.3865,-1.1727,0.0,0.0,0.0,0.0,0.0,0.0,0.0,0.0,0.0,0.0,0.0,0.0,-0.9589,-0.9485,0.0,0.0,0.0,0.0,0.0,0.0,-0.8333,-0.8276,-0.7904,0.0,0.0,0.0,0.0,0.0,0.0,0.0,0.0,0.0,-0.8532,-0.8864,-1.043,-1.1658,-1.2769,-1.4016,-1.6044,-1.7818,-1.7038,-1.7369,-1.8008,-1.8008,-1.8008,-1.8008,-1.8008,-1.8008,-1.7559,-1.5801,-1.4757,-1.3665,-1.1956,-1.0939,-1.0586,-1.1351,-1.1645,-1.2406,-1.4383,-1.5254,-1.6356,-1.8325,-1.9082,-1.9687,-2.0507,-2.0605,-2.0742,-2.1151,-2.119,-2.1385,-2.1855,-2.1894,-2.1855,-2.1777,-2.1758,-2.1758,-2.1758,-2.1758,-2.1758,-2.1758,-2.1758,-2.1183,-2.0063,-2.0063,-1.8948,-1.6796,-1.6724,-1.6082,-1.5061,-1.4972,-1.4928,-1.4928,-1.4928,-1.4928,-1.4901,-1.4589,-1.4482,-1.4442,-1.4188,-1.4082,-1.4082,0.0,0.0,0.0,0.0,0.0,0.0,-1.3515,-1.4212,-1.5467,-1.8159,-1.8145,-1.7439,-1.6232,-1.4584,-1.2472,-0.9803,0.0,0.0,0.0,0.0,0.0,0.0,0.0,0.0,0.0,0.0,-0.9204,-0.9204,-0.9204,0.0,0.0,0.0,0.0,0.0,0.0,-0.7932,-0.7918,-0.7759,0.0,0.0,0.0,0.0,0.0,0.0,0.0,0.0,0.0,0.0,-0.9647,-1.0293,-1.1465,-1.2578,-1.2262,-1.3984,-1.6152,-1.657,-1.6941,-1.7311,-1.7871,-1.8008,-1.8008,-1.8008,-1.7617,-1.6882,-1.5703,-1.4355,-1.3027,-1.1861,-1.0899,-1.0488,-1.1055,-1.1172,-1.1621,-1.3027,-1.4016,-1.5011,-1.6152,-1.7363,-1.8457,-1.9297,-1.9863,-2.0547,-2.1543,-2.1855,-2.2187,-2.2617,-2.2637,-2.2637,-2.2637,-2.2168,-2.1524,-2.0778,-2.0778,-2.04,-1.9664,-1.9664,-1.9409,-1.8922,-1.8922,-1.8105,-1.6595,-1.6595,-1.5991,-1.5008,-1.5008,-1.5008,-1.5008,-1.5008,-1.5008,-1.4995,-1.483,-1.4683,-1.4509,-1.4389,-1.4242,-1.4082,0.0,0.0,0.0,0.0,0.0,-1.1016,-1.3184,-1.3841,-1.4835,-1.6914,-1.7344,-1.7031,-1.6007,-1.4375,-1.2519,-1.0391,-0.9272,0.0,0.0,0.0,0.0,0.0,0.0,0.0,0.0,0.0,-0.9258,-0.9375,-0.9375,-0.9375,0.0,0.0,-0.8512,-0.8375,0.0,0.0,0.0,0.0,0.0,0.0,0.0,0.0,0.0,0.0,0.0,0.0,0.0,0.0,0.0,0.0,0.0,-1.2129,-1.1211,-1.2246,-1.4128,-1.5517,-1.6297,-1.6863,-1.7617,-1.791,-1.8008,-1.8008,-1.733,-1.6473,-1.5605,-1.4102,-1.2661,-1.1783,-1.0899,-1.041,-1.084,-1.1016,-1.1348,-1.2086,-1.3178,-1.4153,-1.4883,-1.6133,-1.7363,-1.8305,-1.9046,-2.0059,-2.1407,-2.2227,-2.2769,-2.3081,-2.3101,-2.3101,-2.3101,-2.2217,-2.132,-2.0429,-2.0368,-1.9808,-1.8606,-1.8562,-1.8386,-1.8049,-1.8049,-1.7457,-1.6353,-1.6353,-1.5962,-1.5217,-1.5217,-1.5217,-1.5217,-1.5217,-1.5217,-1.5217,-1.5169,-1.4963,-1.4763,-1.4683,-1.4522,-1.4392,0.0,0.0,0.0,0.0,0.0,0.0,-1.3184,-1.3841,-1.4738,-1.6473,-1.6348,-1.5948,-1.5469,-1.315,-1.1606,-1.1587,-0.9626,0.0,0.0,0.0,0.0,0.0,0.0,0.0,0.0,0.0,-0.9825,-1.0293,-1.0293,-1.0293,-1.0273,-0.9395,-0.877,-0.8375,0.0,0.0,0.0,0.0,0.0,0.0,0.0,0.0,0.0,0.0,0.0,0.0,0.0,0.0,0.0,0.0,0.0,0.0,0.0,-1.1252,-1.1956,-1.3627,-1.5362,-1.6804,-1.7266,-1.7695,-1.8008,-1.8008,-1.733,-1.6473,-1.5605,-1.4102,-1.2661,-1.1783,-1.0899,-1.041,-1.084,-1.1291,-1.1721,-1.2125,-1.2925,-1.3965,-1.5234,-1.5831,-1.6594,-1.7871,-1.8364,-1.916,-2.0488,-2.2129,-2.3081,-2.3101,-2.3101,-2.3101,-2.3101,-2.1968,-2.1284,-2.1284,-2.1284,-2.0702,-1.948,-1.948,-1.8902,-1.7731,-1.7731,-1.703,-1.5818,-1.5818,-1.5818,-1.5771,-1.5771,-1.5771,-1.5771,-1.5771,-1.5771,-1.5792,-1.5511,-1.5391,-1.5351,-1.5115,-1.4995,-1.4995,0.0,0.0,0.0,0.0,0.0,0.0,0.0,-1.209,-1.2793,-1.3945,-1.4011,-1.3972,-1.4102,-1.2324,-1.1113,-1.1113,-0.9707,0.0,0.0,0.0,0.0,0.0,0.0,0.0,0.0,-1.0273,-1.0723,-1.1194,-1.1465,-1.1599,-1.158,-1.0723,-0.9922,-0.9182,-0.8496,-0.8008,0.0,0.0,0.0,0.0,0.0,0.0,-0.8577,0.0,0.0,0.0,0.0,0.0,0.0,0.0,0.0,0.0,0.0,0.0,0.0,-1.2152,-1.3594,-1.5089,-1.584,-1.6348,-1.6602,-1.6309,-1.5556,-1.4777,-1.4238,-1.3032,-1.1839,-1.123,-1.0664,-1.041,-1.084,-1.0802,-1.1232,-1.2852,-1.3086,-1.3516,-1.4805,-1.5879,-1.6894,-1.7891,-1.9941,-2.1562,-2.2266,-2.2769,-2.3101,-2.3101,-2.2359,-2.1854,-2.1854,-2.0719,-2.0087,-2.0087,-1.9268,-1.8226,-1.6983,-1.6969,-1.6796,-1.6386,-1.6386,-1.6197,-1.5784,-1.5784,-1.5784,-1.5784,-1.5784,-1.5784,-1.5784,-1.5784,-1.5784,-1.5771,-1.5725,-1.5565,-1.5391,-1.5297,-1.5182,-1.5008,0.0,0.0,0.0,0.0,0.0,0.0,0.0,-1.0919,-1.1349,-1.2051,-1.2148,-1.2363,-1.2944,-1.1443,-1.0605,-1.1113,-0.998,0.0,0.0,0.0,0.0,0.0,0.0,0.0,-1.0508,-1.0625,-1.1211,-1.2308,-1.2422,-1.2613,-1.2905,-1.2203,-1.1172,-0.9825,-0.916,-0.8422,0.0,0.0,0.0,0.0,0.0,0.0,-0.9004,0.0,0.0,0.0,0.0,0.0,0.0,0.0,0.0,0.0,0.0,0.0,0.0,0.0,-1.2187,-1.3418,-1.4582,-1.5371,-1.5772,-1.5469,-1.4738,-1.3997,-1.3588,-1.2524,-1.1489,-1.0996,-1.0426,-1.0077,-1.0343,-1.0305,-1.0666,-1.2001,-1.2435,-1.3145,-1.4617,-1.5625,-1.6797,-1.832,-2.0586,-2.2207,-2.2617,-2.2906,-2.2906,-2.2448,-2.1702,-2.1105,-2.0657,-1.9497,-1.881,-1.881,-1.8087,-1.7091,-1.5832,-1.5784,-1.5784,-1.5784,-1.5784,-1.5784,-1.5784,-1.5784,-1.5784,-1.5784,-1.5784,-1.5784,0.0,-1.5784,-1.5784,-1.5784,-1.5784,-1.5712,-1.5565,-1.5565,-1.5444,-1.5297,0.0,0.0,0.0,0.0,0.0,0.0,0.0,-1.0254,-1.0371,-1.0762,-1.084,-1.1131,-1.1892,-1.0546,-1.0059,-1.1312,0.0,0.0,0.0,0.0,0.0,0.0,0.0,0.0,-1.0859,-1.0567,-1.1408,-1.3457,-1.3164,-1.3437,-1.4192,-1.3802,-1.248,-1.041,-0.9903,-0.897,-0.7759,-0.7705,-0.7993,-0.8473,-0.8453,-0.8708,0.0,0.0,0.0,0.0,0.0,0.0,0.0,0.0,0.0,0.0,0.0,0.0,0.0,0.0,0.0,0.0,0.0,-1.4449,-1.5118,-1.5079,-1.4421,-1.3697,-1.3342,-1.2336,0.0,-1.0895,-1.0105,-0.9487,-0.9502,-0.983,-1.0122,-1.0224,-1.1412,-1.2944,-1.4612,-1.5381,-1.6668,-1.9051,-2.043,-2.1361,-2.1726,-2.2418,-2.2359,-2.1257,-2.1105,-2.0567,-1.9451,-1.8226,-1.7544,-1.7544,-1.7544,-1.6998,-1.5832,-1.5784,-1.5784,-1.5784,-1.5784,-1.5784,-1.5784,-1.5784,-1.5784,-1.5784,-1.5784,-1.5784,-1.5784,-1.5784,-1.5784,-1.5784,-1.5784,-1.5784,-1.5784,-1.5784,-1.5784,-1.5784,0.0,0.0,0.0,0.0,0.0,0.0,0.0,0.0,0.0,0.0,-1.0215,-1.0254,-0.9786,-0.9377,-0.9277,0.0,0.0,0.0,0.0,0.0,0.0,0.0,0.0,0.0,-1.0449,-1.0997,-1.1858,-1.3027,-1.3906,-1.4609,-1.5089,-1.5019,-1.3802,-1.1716,-1.0936,-0.9727,-0.8219,-0.7856,-0.8328,-0.9299,-0.8984,-0.9316,0.0,0.0,0.0,0.0,-1.0156,-1.0469,0.0,0.0,0.0,0.0,0.0,0.0,0.0,0.0,-1.0458,-1.0539,-1.0927,0.0,-1.2264,-1.1948,-1.1393,-1.0883,0.0,-1.0668,-1.0314,-0.9927,-0.9641,-0.9505,-0.9503,-0.9826,-1.0397,-1.1328,-1.269,-1.4088,-1.5308,-1.772,-1.9505,-1.9791,-2.0686,-2.0967,-2.0128,-2.0255,-2.0223,-1.9951,-1.9085,-1.8411,-1.8133,-1.6936,-1.6244,-1.6244,-1.6244,-1.6103,-1.5784,-1.5784,-1.5784,-1.5784,-1.5784,-1.5784,-1.5784,-1.5784,-1.5784,-1.5784,-1.5784,-1.5784,-1.5784,-1.5784,-1.5784,-1.5784,-1.5784,-1.5784,-1.5784,-1.5784,-1.5784,-1.5784,0.0,0.0,0.0,0.0,0.0,0.0,0.0,0.0,0.0,0.0,0.0,-1.0039,-0.9357,-0.9121,0.0,0.0,0.0,0.0,0.0,0.0,0.0,0.0,0.0,-1.0391,-1.0566,-1.1056,-1.1992,-1.3457,-1.4141,-1.5019,-1.5985,-1.5801,-1.457,-1.2441,-1.0586,-0.9121,-0.8066,-0.7817,-0.8344,-0.9299,-0.9102,0.0,0.0,0.0,0.0,0.0,-1.002,-1.0186,0.0,-1.0529,-1.0854,-1.1182,0.0,0.0,0.0,0.0,-0.9712,-0.9464,-0.9464,-1.0188,-1.0901,-1.0667,-1.036,-1.0096,-0.9947,-0.9826,-0.9604,-0.9217,-0.8947,-0.8807,-0.8923,-0.9443,-1.0051,-1.0587,-1.2254,-1.4,-1.5358,-1.8247,-1.9972,-1.9322,-2.0465,-2.0836,-1.9633,-1.9497,-1.9268,-1.8734,-1.8056,-1.7451,-1.6857,-1.615,-1.5784,-1.5784,-1.5784,-1.5784,-1.5784,-1.5784,-1.5784,-1.5784,-1.5784,-1.5784,-1.5784,-1.5784,-1.5784,-1.5784,-1.5784,-1.5784,-1.5784,-1.5784,-1.5784,-1.5784,-1.5784,-1.5784,-1.5784,-1.5784,-1.5784,-1.5784,0.0,0.0,0.0,0.0,0.0,0.0,0.0,0.0,0.0,0.0,0.0,0.0,0.0,0.0,0.0,0.0,0.0,0.0,0.0,0.0,0.0,0.0,-1.0293,-1.0508,-1.0996,-1.1016,-1.1989,-1.4016,-1.4348,-1.5264,-1.6687,-1.6602,-1.5302,-1.2876,-0.998,-0.8398,-0.788,-0.7763,-0.8246,-0.9065,-0.8965,0.0,0.0,0.0,0.0,0.0,0.0,0.0,0.0,-1.0498,-1.0684,-1.0864,-1.119,0.0,0.0,0.0,0.0,0.0,-0.8671,-0.9444,-1.0205,-1.0098,-1.0145,-1.0049,-0.9645,-0.9375,-0.9125,-0.8773,-0.8328,-0.8134,-0.8508,-0.9204,-0.9672,-0.9553,-1.1465,-1.3575,-1.5336,-1.7904,-1.9228,-1.8284,-1.9707,-2.0251,-1.9039,-1.8948,-1.8488,-1.7498,-1.7404,-1.6951,-1.5879,-1.5784,-1.5784,-1.5784,-1.5784,-1.5784,-1.5784,-1.5784,-1.5784,-1.5784,-1.5784,-1.5784,-1.5784,-1.5784,-1.5784,-1.5784,-1.5784,-1.5784,-1.5784,-1.5784,-1.5784,-1.5784,-1.5784,-1.5784,-1.5784,-1.5784,-1.5784,-1.5784,0.0,0.0,0.0,0.0,0.0,0.0,0.0,0.0,0.0,0.0,0.0,0.0,0.0,0.0,0.0,0.0,0.0,0.0,0.0,0.0,0.0,-1.0293,-1.0293,-1.0665,-1.1489,-1.1486,-1.2191,-1.3588,-1.54,-1.6434,-1.6726,-1.8144,-1.6875,-1.332,-1.1036,-0.9551,-0.8753,-0.8012,-0.8386,-0.9455,-0.877,0.0,0.0,0.0,0.0,0.0,0.0,0.0,0.0,-0.9799,-1.0185,-1.0688,-1.0031,0.0,0.0,0.0,0.0,0.0,-0.8581,-0.9044,-0.9255,-0.8752,-0.886,-0.9081,-0.8896,-0.8828,-0.8768,-0.8723,-0.8639,-0.882,-0.9671,-1.0023,-1.0363,-1.098,-1.255,-1.4346,-1.6095,-1.7639,-1.8284,-1.731,-1.7842,-1.7762,-1.648,-1.6386,-1.6292,-1.6103,-1.6103,-1.6008,-1.5832,-1.5784,-1.5784,-1.5784,-1.5784,-1.5784,-1.5784,-1.5784,-1.5784,-1.5784,-1.5784,-1.5784,-1.5784,-1.5784,-1.5784,-1.5784,-1.5784,-1.5784,-1.5784,-1.5784,-1.5784,-1.5784,-1.5784,-1.5784,-1.5784,-1.5784,-1.5784,-1.5784,0.0,0.0,0.0,0.0,0.0,0.0,0.0,0.0,0.0,0.0,0.0,0.0,0.0,0.0,0.0,0.0,0.0,0.0,0.0,0.0,-1.0625,-1.1309,-1.1115,-1.1173,-1.1606,-1.2504,-1.3594,-1.4883,-1.6582,-1.7623,-1.8105,-1.7246,-1.5293,-1.2379,-1.0231,-0.8894,-0.825,-0.7632,-0.7982,-0.8926,0.0,0.0,0.0,0.0,0.0,0.0,0.0,0.0,0.0,0.0,-0.8969,-0.9513,-0.926,0.0,0.0,0.0,0.0,0.0,-0.7721,-0.84,-0.9004,-0.8822,-0.9408,-1.0023,-0.9966,-0.9841,-0.959,-0.9089,-0.8952,-0.915,-0.9755,-1.0317,-1.1155,-1.261,-1.3234,-1.3977,-1.5236,-1.6621,-1.72,-1.6239,-1.7074,-1.7171,-1.5927,-1.5784,-1.5784,-1.5784,-1.5784,-1.5784,-1.5784,-1.5784,-1.5784,-1.5784,-1.5784,-1.5784,-1.5784,-1.5784,-1.5784,-1.5784,-1.5784,-1.5784,-1.5784,-1.5784,-1.5784,-1.5784,-1.5784,-1.5784,-1.5784,-1.5784,-1.5784,-1.5784,-1.5784,-1.5784,-1.5784,-1.5784,-1.5784,-1.5689,0.0,0.0,0.0,0.0,0.0,0.0,0.0,0.0,0.0,0.0,0.0,0.0,0.0,0.0,0.0,0.0,0.0,0.0,0.0,-0.9707,-1.0664,-1.1853,-1.1917,-1.2021,-1.2287,-1.3396,-1.4552,-1.5763,-1.7108,-1.8059,-1.8675,-1.5864,-1.3449,-1.1371,-0.9406,-0.8165,-0.7538,-0.7125,-0.74,-0.8086,0.0,0.0,0.0,0.0,0.0,0.0,0.0,0.0,0.0,0.0,0.0,0.0,0.0,0.0,0.0,-0.7886,-0.7363,-0.7033,-0.718,-0.8077,-0.903,-0.9342,-1.0086,-1.0771,-1.1028,-1.0768,-1.0358,-0.9817,-0.9724,-0.9817,-1.014,-1.0894,-1.1944,-1.3614,-1.3614,-1.3721,-1.4603,-1.5727,-1.6221,-1.555,-1.6528,-1.6857,-1.5879,-1.5784,-1.5784,-1.5784,-1.5784,-1.5784,-1.5784,-1.5784,-1.5784,-1.5784,-1.5784,-1.5784,-1.5784,-1.5784,-1.5784,-1.5784,-1.5784,-1.5784,-1.5784,-1.5784,-1.5784,-1.5784,-1.5784,-1.5784,-1.5784,-1.5784,-1.5784,-1.5784,-1.5784,-1.5784,-1.5784,-1.5784,-1.5784,-1.5629,0.0,0.0,0.0,0.0,0.0,0.0,0.0,0.0,0.0,0.0,0.0,0.0,0.0,0.0,0.0,0.0,0.0,0.0,0.0,-0.9416,-1.0059,-1.0936,-1.2148,-1.3275,-1.4253,-1.386,-1.4001,-1.4703,-1.6228,-1.7004,-1.7041,-1.49,-1.2859,-1.098,-0.9525,-0.8214,-0.7112,-0.6713,-0.6795,-0.7162,-0.6777,0.0,0.0,0.0,0.0,0.0,0.0,0.0,0.0,0.0,0.0,0.0,0.0,0.0,-0.7854,-0.7251,-0.7048,-0.7126,-0.7686,-0.8497,-0.9313,-0.99,-0.9967,-1.0147,-1.1154,-1.0723,-1.0354,-1.1082,-1.1229,-1.1322,-1.1698,-1.2248,-1.2797,-1.32,-1.3694,-1.4335,-1.5204,-1.5443,-1.5564,-1.5765,-1.5866,-1.5927,-1.5832,-1.5784,-1.5784,-1.5784,-1.5784,-1.5784,-1.5784,-1.5784,-1.5784,-1.5784,-1.5784,-1.5784,-1.5784,-1.5784,-1.5784,-1.5784,-1.5784,-1.5784,-1.5784,-1.5784,-1.5784,-1.5784,-1.5784,-1.5784,-1.5784,-1.5784,-1.5784,-1.5784,-1.5784,-1.5784,-1.5784,-1.5784,-1.5784,-1.5629,0.0,0.0,0.0,0.0,0.0,0.0,0.0,0.0,0.0,0.0,0.0,0.0,0.0,0.0,0.0,0.0,0.0,0.0,0.0,-0.9648,-1.0388,-1.1176,-1.1612,-1.2103,-1.26,-1.459,-1.5786,-1.6137,-1.691,-1.6828,-1.59,-1.3743,-1.1825,-1.0134,-0.8636,-0.7804,-0.7496,-0.6716,-0.6719,-0.7244,-0.6703,-0.6848,0.0,0.0,0.0,0.0,0.0,0.0,0.0,0.0,-0.6462,-0.6907,-0.6856,-0.7216,-0.7572,-0.7123,-0.6873,-0.684,-0.7233,-0.8125,-0.9044,-0.9444,-0.993,-1.0639,-1.1962,-1.202,-1.1886,-1.2208,-1.2288,-1.2208,-1.1953,-1.2946,-1.3774,-1.348,-1.4282,-1.5017,-1.5351,-1.5551,-1.5712,-1.5771,-1.5784,-1.5784,-1.5784,-1.5784,-1.5784,-1.5784,-1.5784,-1.5784,-1.5784,-1.5784,-1.5784,-1.5784,-1.5784,-1.5784,-1.5784,-1.5784,-1.5784,-1.5784,-1.5784,-1.5784,-1.5784,-1.5784,-1.5784,-1.5784,-1.5784,-1.5784,-1.5784,-1.5784,-1.5784,-1.5784,-1.5784,-1.5784,-1.5784,-1.5784,-1.5296,-1.4411,0.0,0.0,0.0,0.0,0.0,0.0,0.0,0.0,0.0,0.0,0.0,0.0,0.0,0.0,0.0,0.0,0.0,0.0,-0.9201,-0.9629,-1.0291,-1.1206,-1.1122,-1.1207,-1.1484,-1.4279,-1.57,-1.5753,-1.6021,-1.5442,-1.4115,-1.2224,-1.0701,-0.9481,-0.8061,-0.7586,-0.7768,-0.6807,-0.6691,-0.7109,-0.6598,-0.651,0.0,0.0,0.0,0.0,0.0,0.0,0.0,0.0,-0.5812,-0.6306,-0.6311,-0.6747,-0.7169,-0.6947,-0.7081,-0.7308,-0.7415,-0.8257,-0.9192,-0.9644,-1.0114,-1.0868,-1.2422,-1.2636,-1.2636,-1.3105,-1.2904,-1.261,-1.2452,-1.3267,-1.3948,-1.388,-1.475,-1.5431,-1.5524,-1.5698,-1.5784,-1.5784,-1.5784,-1.5784,-1.5784,-1.5784,-1.5784,-1.5784,-1.5784,-1.5784,-1.5784,-1.5784,-1.5784,-1.5784,-1.5784,-1.5784,-1.5784,-1.5784,-1.5784,-1.5784,-1.5784,-1.5784,-1.5784,-1.5784,-1.5784,-1.5784,-1.5784,-1.5784,-1.5784,-1.5784,-1.5784,-1.5784,-1.5784,-1.5784,-1.5784,-1.5784,-1.4997,-1.3728,0.0,0.0,0.0,0.0,0.0,0.0,0.0,0.0,-1.0293,-1.0293,-1.0293,0.0,0.0,0.0,0.0,0.0,0.0,0.0,-0.9592,-0.9221,-0.9572,-1.0819,-1.0814,-1.0998,-1.1448,-1.2638,-1.3107,-1.2784,-1.3053,-1.2585,-1.1349,-1.0234,-0.9526,-0.9151,-0.8027,-0.7642,-0.7846,-0.6974,-0.66,-0.6593,-0.6317,-0.6003,-0.5701,0.0,0.0,0.0,0.0,0.0,0.0,0.0,-0.5688,-0.5794,-0.64,-0.6606,-0.6606,-0.6606,-0.7629,-0.8724,-0.8456,-0.9032,-0.993,-1.0755,-1.0555,-1.0608,-1.2382,-1.2328,-1.2342,-1.3788,-1.3146,-1.2585,-1.344,-1.3173,-1.3199,-1.4322,-1.5017,-1.5498,-1.5744,-1.5784,-1.5784,-1.5784,-1.5784,-1.5784,-1.5784,-1.5784,-1.5784,-1.5784,-1.5784,-1.5784,-1.5784,-1.5784,-1.5784,-1.5784,-1.5784,-1.5784,-1.5784,-1.5784,-1.5784,-1.5784,-1.5784,-1.5784,-1.5784,-1.5784,-1.5784,-1.5784,-1.5784,-1.5784,-1.5784,-1.5784,-1.5784,-1.5784,-1.5784,-1.5784,-1.5784,-1.5784,-1.4997,-1.368,0.0,0.0,0.0,0.0,0.0,0.0,0.0,0.0,-1.0293,-1.0293,-1.0293,0.0,0.0,0.0,0.0,0.0,0.0,0.0,-0.9612,-0.9805,-0.9734,-0.9368,-0.9695,-0.95,-0.87,-0.9827,-1.1209,-1.2784,-1.2625,-1.1864,-1.0456,-0.994,-0.9312,-0.8617,-0.847,-0.823,-0.7859,-0.7166,-0.7014,-0.7182,-0.6687,-0.6432,-0.6306,0.0,0.0,0.0,0.0,0.0,0.0,0.0,0.0,0.0,-0.6177,-0.6579,-0.6854,-0.6653,-0.7041,-0.7473,-0.7201,-0.8524,-0.9953,-0.9764,-1.1002,-1.2371,-1.2717,-1.265,-1.2824,-1.3868,-1.3975,-1.3814,-1.3626,-1.4175,-1.4589,-1.4536,-1.5145,-1.5725,-1.5771,-1.5784,-1.5784,-1.5784,-1.5784,-1.5784,-1.5784,-1.5784,-1.5784,-1.5784,-1.5784,-1.5784,-1.5784,-1.5784,-1.5784,-1.5784,-1.5784,-1.5784,-1.5784,-1.5784,-1.5784,-1.5784,-1.5784,-1.5784,-1.5784,-1.5784,-1.5784,-1.5784,-1.5784,-1.5784,-1.5784,-1.5784,-1.5784,-1.5784,-1.5784,-1.5784,-1.5689,-1.4806,-1.3632,-1.2328,0.0,0.0,0.0,0.0,0.0,0.0,-1.0293,-1.0293,-1.0293,-1.0293,-1.0293,-1.0293,0.0,0.0,0.0,-0.9903,-1.0156,-1.0099,-0.9601,-0.9639,-0.9438,-0.8882,-0.8775,-0.8505,-0.8037,-0.8791,-0.982,-1.1042,-1.1216,-1.0688,-0.9606,-0.9766,-0.9633,-0.9286,-0.9539,-0.9352,-0.8738,-0.8139,-0.7779,-0.7615,-0.7268,-0.6974,-0.6734,0.0,0.0,0.0,0.0,0.0,0.0,0.0,0.0,0.0,-0.5909,-0.6226,-0.6567,-0.7001,-0.7655,-0.8285,-0.863,-0.99,-1.1156,-1.1169,-1.2104,-1.3106,-1.3427,-1.3494,-1.3601,-1.4148,-1.4309,-1.4349,-1.4335,-1.4723,-1.5044,-1.5044,-1.5438,-1.5784,-1.5784,-1.5784,-1.5784,-1.5784,-1.5784,-1.5784,-1.5784,-1.5784,-1.5784,-1.5784,-1.5784,-1.5784,-1.5784,-1.5784,-1.5784,-1.5784,-1.5784,-1.5784,-1.5784,-1.5784,-1.5784,-1.5784,-1.5784,-1.5784,-1.5784,-1.5784,-1.5784,-1.5784,-1.5784,-1.5784,-1.5784,-1.5235,-1.5045,-1.4997,-1.4472,-1.4232,-1.4172,-1.3392,-1.228,-1.1023,0.0,0.0,0.0,0.0,0.0,0.0,-1.0293,-1.0293,-1.0293,-1.0293,-1.0293,-1.0293,0.0,0.0,0.0,-1.0215,-1.0176,-0.9942,-0.9468,-0.903,-0.8861,-0.9028,-0.816,-0.8021,-0.8738,-0.8951,-0.8791,-0.8322,-0.9206,-0.9299,-0.8751,-0.9713,-1.0274,-1.0519,-1.0868,-1.0621,-0.9923,-0.9337,-0.8618,-0.7859,-0.7859,-0.7539,-0.7006,-0.6707,0.0,0.0,0.0,0.0,0.0,0.0,0.0,0.0,-0.5625,-0.5714,-0.5994,-0.7326,-0.8778,-1.0221,-1.1236,-1.2127,-1.2945,-1.3789,-1.3494,-1.3266,-1.4309,-1.4576,-1.4589,-1.4563,-1.4376,-1.4456,-1.5244,-1.4977,-1.4897,-1.5651,-1.5784,-1.5784,-1.5784,-1.5784,-1.5784,-1.5784,-1.5784,-1.5784,-1.5784,-1.5784,-1.5784,-1.5784,-1.5784,-1.5784,-1.5784,-1.5784,-1.5784,-1.5784,-1.5784,-1.5784,-1.5784,-1.5784,-1.5784,-1.5784,-1.5784,-1.5784,-1.5784,-1.5784,-1.5784,-1.5784,-1.5784,-1.5784,-1.5724,-1.4555,-1.4016,-1.3776,-1.2571,-1.1999,-1.1901,-1.1755,-1.0974,-1.0002,0.0,0.0,0.0,0.0,0.0,0.0,-1.0293,-1.0293,-1.0293,-1.0293,-1.0293,-1.0293,-1.0293,-0.9922,0.0,-0.9686,-0.9288,-0.899,-0.8886,-0.8782,-0.8647,-0.8495,-0.8301,-0.8301,-0.8482,-0.808,-0.7812,-0.7692,-0.8564,-0.8697,-0.8125,-0.9726,-1.0278,-0.993,-1.0661,-1.0287,-0.9045,-0.8432,-0.7939,-0.7584,-0.7584,-0.7504,-0.7343,-0.6807,-0.6392,0.0,0.0,0.0,0.0,0.0,0.0,0.0,-0.5625,-0.5896,-0.6097,-0.6159,-0.7539,-0.9045,-0.8805,-1.0555,-1.2543,-1.2971,-1.3802,-1.4593,-1.4861,-1.5044,-1.5137,-1.4955,-1.5003,-1.5177,-1.5364,-1.5484,-1.5558,-1.5758,-1.5784,-1.5784,-1.5784,-1.5784,-1.5784,-1.5784,-1.5784,-1.5784,-1.5784,-1.5784,-1.5784,-1.5784,-1.5784,-1.5784,-1.5784,-1.5784,-1.5784,-1.5784,-1.5784,-1.5784,-1.5784,-1.5784,-1.5784,-1.5784,-1.5784,-1.5784,-1.5784,-1.5784,-1.5784,-1.5784,-1.5784,-1.5784,-1.5784,-1.5486,-1.4806,-1.3872,-1.3584,-1.2813,-1.1804,-1.0779,-1.0239,-0.9854,0.0,0.0,0.0,0.0,0.0,0.0,0.0,0.0,-0.9657,-0.9903,-0.9705,-0.9547,-0.9547,-0.9288,0.0,0.0,-0.8866,-0.8602,-0.8337,-0.8316,-0.8202,-0.7922,-0.8075,-0.8096,-0.796,-0.737,-0.7062,-0.7062,-0.7397,-0.7669,-0.7939,-0.9446,-1.001,-0.9742,-1.0492,-0.9997,-0.8591,-0.8417,-0.7923,-0.7281,-0.7575,-0.7508,-0.7201,-0.676,-0.6338,-0.5909,-0.5454,0.0,0.0,0.0,0.0,0.0,0.0,0.0,-0.5665,-0.6365,-0.7343,-0.8404,-0.9512,-1.1035,-1.2505,-1.3373,-1.4389,-1.5164,-1.5164,-1.5391,-1.5565,-1.5404,-1.5498,-1.5605,-1.5605,-1.5725,-1.5784,-1.5784,-1.5784,-1.5784,-1.5784,-1.5784,-1.5784,-1.5784,-1.5784,-1.5784,-1.5784,-1.5784,-1.5784,-1.5784,-1.5784,-1.5784,-1.5784,-1.5784,-1.5784,-1.5784,-1.5784,-1.5784,-1.5784,-1.5784,-1.5784,-1.5784,-1.5784,-1.5784,-1.5784,-1.5784,-1.5784,-1.5784,-1.5784,-1.5439,-1.4854,-1.4172,-1.3199,-1.1989,-1.1356,-1.0672,-0.9944,-0.9262,-0.9023,-0.8924,0.0,0.0,0.0,0.0,0.0,0.0,0.0,0.0,0.0,-0.9315,-0.897,-0.8704,-0.8704,-0.8557,-0.8484,0.0,0.0,0.0,-0.7706,-0.7768,-0.7731,-0.75,-0.7709,-0.7736,-0.7491,-0.6861,-0.6579,-0.6667,-0.6392,-0.6861,-0.8005,-0.9112,-0.9633,-0.9729,-1.0224,-0.9688,-0.8402,-0.8457,-0.7869,-0.69,-0.7406,-0.7299,-0.682,-0.6546,-0.6106,-0.5611,-0.5387,-0.5266,-0.5226,-0.528,0.0,0.0,0.0,0.0,-0.5086,-0.6539,-0.7169,-0.7933,-1.0332,-1.161,-1.2679,-1.4215,-1.5044,-1.5471,-1.5471,-1.5658,-1.5784,-1.5784,-1.5784,-1.5784,-1.5784,-1.5784,-1.5784,-1.5784,-1.5784,-1.5784,-1.5784,-1.5784,-1.5784,-1.5784,-1.5784,-1.5784,-1.5784,-1.5784,-1.5784,-1.5784,-1.5784,-1.5784,-1.5784,-1.5784,-1.5784,-1.5784,-1.5784,-1.5784,-1.5784,-1.5784,-1.5784,-1.5784,-1.5784,-1.5784,-1.5784,-1.5784,-1.5784,-1.5784,-1.5581,-1.4854,-1.3776,-1.2425,-1.117,-0.9903,-0.8775,-0.8187,-0.7988,-0.7988,-0.7988,-0.7988,0.0,0.0,0.0,0.0,0.0,0.0,0.0,0.0,0.0,0.0,-0.8744,-0.8704,-0.8704,-0.8032,-0.757,-0.757,-0.7155,-0.6839,-0.6773,0.0,0.0,-0.7513,-0.7531,-0.7531,-0.7513,-0.668,-0.6486,-0.694,-0.6667,-0.7169,-0.8348,-0.8964,-0.9432,-0.9715,-0.9796,-0.93,-0.8348,-0.7575,-0.688,-0.6317,-0.6398,-0.6384,-0.6277,-0.5945,-0.5625,-0.5347,-0.5306,-0.5117,-0.49,-0.5213,-0.5293,0.0,0.0,0.0,-0.4807,-0.4823,-0.5892,-0.7108,-0.7255,-0.974,-1.2719,-1.4512,-1.5337,-1.5765,-1.5765,-1.5758,-1.5784,-1.5784,-1.5784,-1.5784,-1.5784,-1.5784,-1.5784,-1.5784,-1.5784,-1.5784,-1.5784,-1.5784,-1.5784,-1.5784,-1.5784,-1.5784,-1.5784,-1.5784,-1.5784,-1.5784,-1.5784,-1.5784,-1.5784,-1.5784,-1.5784,-1.5784,-1.5784,-1.5784,-1.5784,-1.5784,-1.5784,-1.5784,-1.5784,-1.5784,-1.5784,-1.5784,-1.5784,-1.5737,-1.4603,-1.4076,-1.3776,-1.2425,-1.117,-1.0002,-0.9805,-0.9015,-0.7988,-0.7988,-0.7988,-0.7988,0.0,0.0,0.0,0.0,0.0,0.0,0.0,0.0,0.0,0.0,0.0,-0.7745,-0.7745,-0.7408,-0.711,-0.696,-0.6744,-0.6539,-0.6378,-0.6626,-0.6774,-0.6774,-0.6774,-0.6774,-0.6774,-0.6204,-0.6199,-0.6774,-0.6319,-0.6961,-0.8617,-0.8711,-0.9085,-0.9688,-0.9193,-0.8644,-0.807,-0.7161,-0.6553,-0.6196,-0.6196,-0.6579,-0.7027,-0.5905,-0.5798,-0.6132,-0.5144,-0.4703,-0.4622,-0.4915,-0.5022,-0.4995,-0.4847,0.0,0.0,0.0,-0.4943,-0.5959,-0.7816,-1.0425,-1.2985,-1.4606,-1.5404,-1.5784,-1.5784,-1.5784,-1.5784,-1.5784,-1.5784,-1.5784,-1.5784,-1.5784,-1.5784,-1.5784,-1.5784,-1.5784,-1.5784,-1.5784,-1.5784,-1.5784,-1.5784,-1.5784,-1.5784,-1.5784,-1.5784,-1.5784,-1.5784,-1.5784,-1.5784,-1.5784,-1.5784,-1.5784,-1.5784,-1.5784,-1.5784,-1.5784,-1.5784,-1.5784,-1.5784,-1.5784,-1.5784,-1.5784,-1.5391,-1.4711,-1.4124,-1.3054,-1.1648,-1.1072,-1.0043,-0.8874,-0.8874,-0.8528,-0.7988,-0.7988,-0.7988,-0.7988,0.0,0.0,0.0,0.0,0.0,0.0,0.0,0.0,0.0,0.0,0.0,-0.7175,-0.7014,0.0,0.0,0.0,-0.6413,-0.6325,-0.6209,-0.6196,-0.6196,-0.6196,-0.6115,-0.6088,-0.6088,-0.5758,-0.5852,-0.6373,-0.6079,-0.6921,-0.8804,-0.8657,-0.9098,-0.998,-0.9018,-0.839,-0.7952,-0.7001,-0.6486,-0.6317,-0.6465,-0.7035,-0.7709,-0.678,-0.6894,-0.7353,-0.5758,-0.513,-0.5048,-0.4955,-0.4928,-0.4902,-0.4741,-0.4569,0.0,0.0,0.0,-0.489,-0.8123,-1.0211,-1.1926,-1.3936,-1.4843,-1.5318,-1.5691,-1.5784,-1.5784,-1.5784,-1.5784,-1.5784,-1.5784,-1.5784,-1.5784,-1.5784,-1.5784,-1.5784,-1.5784,-1.5784,-1.5784,-1.5784,-1.5784,-1.5784,-1.5784,-1.5784,-1.5784,-1.5784,-1.5784,-1.5784,-1.5784,-1.5784,-1.5784,-1.5784,-1.5784,-1.5784,-1.5784,-1.5784,-1.5784,-1.5784,-1.5784,-1.5784,-1.5784,-1.5439,-1.4603,-1.3392,-1.3392,-1.2086,-0.9953,-0.9657,-0.8924,-0.7988,-0.7988,-0.7988,-0.7988,-0.7988,-0.7988,-0.7988,0.0,0.0,0.0,0.0,0.0,0.0,0.0,0.0,0.0,0.0,0.0,-0.7635,-0.707,-0.6553,-0.6236,-0.6223,-0.5919,-0.5865,-0.6169,-0.6196,-0.6196,-0.6196,-0.5909,0.0,-0.5714,-0.5467,-0.5451,-0.5741,-0.6293,-0.7321,-0.8818,-0.9044,-0.979,-1.0875,-0.9684,-0.8884,-0.8295,-0.7115,-0.6606,-0.6633,-0.7196,-0.7464,-0.7651,-0.8978,-0.9312,-0.8938,-0.7772,-0.7142,-0.67,-0.5641,-0.528,-0.5172,-0.4596,-0.4409,-0.4289,0.0,0.0,0.0,-0.6487,-0.7442,-0.859,-1.2033,-1.3307,-1.4079,-1.5465,-1.5784,-1.5784,-1.5784,-1.5784,-1.5784,-1.5784,-1.5784,-1.5784,-1.5784,-1.5784,-1.5784,-1.5784,-1.5784,-1.5784,-1.5784,-1.5784,-1.5784,-1.5784,-1.5784,-1.5784,-1.5784,-1.5784,-1.5784,-1.5784,-1.5784,-1.5784,-1.5784,-1.5784,-1.5784,-1.5784,-1.5784,-1.5784,-1.5784,-1.5784,-1.5784,-1.5784,-1.4555,-1.3247,-1.1999,-1.1999,-1.1219,-0.9903,-0.8627,-0.8088,-0.7988,-0.7988,-0.7988,-0.7988,-0.7988,-0.7988,-0.7988,0.0,0.0,0.0,0.0,0.0,0.0,0.0,0.0,0.0,0.0,0.0,0.0,0.0,-0.684,-0.664,-0.6472,-0.5985,-0.5678,-0.5631,-0.5631,-0.5631,-0.5631,-0.5507,-0.5438,-0.5438,-0.5347,-0.544,-0.5701,-0.5919,-0.688,-0.8537,-0.8631,-0.9205,-1.0114,-0.9325,-0.8924,-0.8805,-0.7255,-0.6693,-0.6921,-0.7522,-0.8323,-0.9178,-0.9311,-0.9884,-1.0403,-0.8884,-0.7762,-0.694,-0.6514,-0.5905,-0.5199,-0.4596,-0.4409,-0.4289,-0.3679,-0.3772,-0.4436,-0.6057,-0.7108,-0.8297,-1.0501,-1.2225,-1.3507,-1.4226,-1.5105,-1.5784,-1.5784,-1.5784,-1.5784,-1.5784,-1.5784,-1.5784,-1.5784,-1.5784,-1.5784,-1.5784,-1.5784,-1.5784,-1.5784,-1.5784,-1.5784,-1.5784,-1.5784,-1.5784,-1.5784,-1.5784,-1.5784,-1.5784,-1.5784,-1.5784,-1.5784,-1.5784,-1.5784,-1.5784,-1.5784,-1.5784,-1.5784,-1.5784,-1.5784,-1.5784,-1.4459,-1.3151,-1.1853,-1.1023,-0.9944,-0.8676,-0.8187,-0.7988,-0.7988,-0.7988,-0.7988,-0.7988,-0.7988,-0.7988,-0.7988,0.0,0.0,0.0,0.0,0.0,0.0,0.0,0.0,-0.8343,-0.8055,0.0,0.0,0.0,0.0,-0.7014,-0.6646,-0.6052,-0.5625,-0.5438,-0.5347,-0.5293,-0.5293,-0.5293,-0.5293,-0.5293,-0.5184,-0.5277,-0.5571,-0.5648,-0.652,-0.8094,-0.8201,-0.8751,-0.9675,-0.8751,-0.8684,-0.9111,-0.7646,-0.7214,-0.7562,-0.8538,-0.9271,-0.9857,-1.0456,-1.0976,-1.1242,-1.007,-0.9112,-0.8337,-0.8243,-0.7695,-0.6861,-0.5651,-0.4729,-0.4023,-0.3612,-0.3863,-0.4435,-0.5242,-0.6146,-0.7299,-0.9085,-1.0488,-1.1815,-1.3387,-1.4346,-1.5065,-1.5664,-1.5784,-1.5784,-1.5784,-1.5784,-1.5784,-1.5784,-1.5784,-1.5784,-1.5784,-1.5784,-1.5784,-1.5784,-1.5784,-1.5784,-1.5784,-1.5784,-1.5784,-1.5784,-1.5784,-1.5784,-1.5784,-1.5784,-1.5784,-1.5784,-1.5784,-1.5784,-1.5784,-1.5784,-1.5784,-1.5784,-1.5784,-1.5581,-1.5092,-1.3836,-1.2522,-1.117,-0.9903,-0.8825,-0.7988,-0.7988,-0.7988,-0.7988,-0.7988,-0.7988,-0.7988,-0.7988,-0.7988,-0.7988,0.0,0.0,0.0,0.0,0.0,0.0,-0.9525,0.0,-0.9182,-0.8392,0.0,0.0,0.0,0.0,0.0,-0.668,-0.6106,-0.5741,-0.5714,-0.5467,-0.5306,-0.5293,-0.5293,-0.5293,-0.5306,-0.4982,-0.4982,-0.5306,-0.5571,-0.6306,-0.7473,-0.7749,-0.8485,-0.9568,-0.812,-0.8096,-0.9084,-0.8218,-0.807,-0.8536,-1.0234,-1.0243,-0.959,-1.2494,-1.2721,-1.1495,-1.1495,-1.1329,-1.1009,-1.076,-1.0613,-1.0131,-0.7722,-0.5381,-0.3519,-0.3495,-0.3741,-0.4005,0.0,0.0,0.0,-0.7718,-0.8083,-0.8938,-1.2999,-1.3507,-1.3627,-1.5358,-1.5704,-1.5718,-1.5771,-1.5784,-1.5784,-1.5784,-1.5784,-1.5784,-1.5784,-1.5784,-1.5784,-1.5784,-1.5784,-1.5784,-1.5784,-1.5784,-1.5784,-1.5784,-1.5784,-1.5784,-1.5784,-1.5784,-1.5784,-1.5784,-1.5784,-1.5784,-1.5784,-1.5784,-1.5784,-1.5784,-1.5784,-1.514,-1.3872,-1.2522,-1.1219,-0.9903,-0.8577,-0.7988,-0.7988,-0.7988,-0.7988,-0.7988,-0.7988,-0.7988,-0.7988,-0.7988,-0.7988,-0.7988,0.0,0.0,0.0,0.0,0.0,-0.9082,-0.8445,-0.8354,-0.8269,0.0,0.0,0.0,-0.7899,-0.8043,-0.8,-0.7566,-0.7201,-0.6727,-0.6115,-0.5775,-0.5504,-0.5306,-0.5293,-0.54,-0.5585,-0.5304,-0.5304,-0.5598,-0.5661,-0.5985,-0.6559,-0.6847,-0.7241,-0.7736,-0.7335,-0.7313,-0.7566,-0.6934,-0.7188,-0.8112,-0.9045,-0.998,-1.0976,-1.2654,-1.3601,-1.3988,-1.3988,-1.3387,-1.2545,-1.2288,-1.1042,-0.9124,-0.6573,-0.4891,-0.3819,-0.3572,-0.3876,-0.4248,-0.4059,0.0,0.0,0.0,0.0,0.0,-0.9568,-1.0488,-1.1562,-1.3746,-1.4039,-1.4279,-1.5545,-1.5784,-1.5784,-1.5784,-1.5784,-1.5784,-1.5784,-1.5784,-1.5784,-1.5784,-1.5784,-1.5784,-1.5784,-1.5784,-1.5784,-1.5784,-1.5784,-1.5784,-1.5784,-1.5784,-1.5784,-1.5784,-1.5784,-1.5784,-1.5784,-1.5784,-1.5784,-1.5784,-1.5784,-1.514,-1.3872,-1.2522,-1.1219,-0.9903,-0.8577,-0.7988,-0.7988,-0.7988,-0.7988,-0.7988,-0.7988,-0.7988,-0.7988,-0.7988,-0.7988,-0.7988,0.0,0.0,-1.0114,-0.9528,-0.9487,-0.9311,-0.8704,-0.8605,-0.8531,0.0,0.0,0.0,-0.8432,-0.8738,-0.8751,-0.8312,-0.7812,-0.719,-0.6424,-0.5945,-0.5638,-0.5464,-0.5464,-0.5598,-0.5909,-0.5507,-0.544,-0.5701,-0.5448,-0.5558,-0.599,-0.6146,-0.644,-0.6827,-0.6567,-0.6593,-0.68,-0.611,-0.6613,-0.8045,-0.9633,-1.0581,-1.1263,-1.3066,-1.3801,-1.3935,-1.4563,-1.4015,-1.3159,-1.3801,-1.2144,-0.9499,-0.7829,-0.6106,-0.461,-0.4036,-0.4489,-0.5038,-0.4476,-0.4742,-0.5221,-0.5357,0.0,0.0,-0.8951,-0.9806,-1.0896,-1.3746,-1.4335,-1.4616,-1.5598,-1.5784,-1.5784,-1.5784,-1.5784,-1.5784,-1.5784,-1.5784,-1.5784,-1.5784,-1.5784,-1.5784,-1.5784,-1.5784,-1.5784,-1.5784,-1.5784,-1.5784,-1.5784,-1.5784,-1.5784,-1.5784,-1.5784,-1.5784,-1.5784,-1.5784,-1.5784,-1.5784,-1.5784,-1.4854,-1.3054,-1.228,-1.0925,-0.9114,-0.8336,-0.7988,-0.7988,-0.7988,-0.7988,-0.7988,-0.7988,-0.7988,-0.7988,-0.7988,-0.7988,-0.7988,0.0,0.0,-1.0836,-1.1054,-1.0872,-1.0566,-1.0155,-1.0004,-0.9778,0.0,-0.887,-0.8844,-0.9391,-0.9633,-0.9526,-0.8991,-0.8134,-0.7343,-0.674,-0.6106,-0.5758,-0.5758,-0.5714,-0.5865,-0.6236,-0.5699,-0.5521,-0.5758,-0.5179,-0.5166,-0.5701,-0.5661,-0.5959,-0.6466,-0.5878,-0.5919,-0.6419,-0.5735,-0.6426,-0.8232,-1.0862,-1.145,-1.1055,-1.352,-1.3734,-1.2866,-1.4188,-1.3988,-1.3387,-1.5057,-1.3507,-1.0787,-1.0194,-0.8245,-0.5949,-0.4813,-0.5402,-0.6199,-0.5071,-0.5265,-0.5834,-0.598,-0.5495,0.0,-0.9499,-0.9923,-1.0504,-1.384,-1.463,-1.4837,-1.5061,-1.5127,-1.5153,-1.5199,-1.5372,-1.5544,-1.5758,-1.5784,-1.5784,-1.5784,-1.5784,-1.5784,-1.5784,-1.5784,-1.5784,-1.5784,-1.5784,-1.5784,-1.5784,-1.5784,-1.5784,-1.5784,-1.5784,-1.5784,-1.5784,-1.5689,-1.5689,-1.5784,-1.5486,-1.4124,-1.1901,-1.1775,-1.0355,-0.7988,-0.8008,-0.8008,-0.7988,-0.7988,-0.7988,-0.7988,-0.7988,-0.7988,-0.7988,-0.7988,-0.7988,-0.7988,-1.1038,-1.1454,-1.1832,-1.1609,-1.2123,-1.2699,-1.3087,-1.2572,-1.2104,-1.1889,-1.0854,-1.0385,-1.0896,-1.039,-0.998,-0.9873,-0.8844,-0.796,-0.7357,-0.6559,-0.6102,-0.6102,-0.5838,-0.5959,-0.6512,-0.6196,-0.6048,-0.6102,-0.5718,-0.5581,-0.5688,-0.5478,-0.5558,-0.5848,-0.5232,-0.5182,-0.5588,-0.6124,-0.7228,-0.8684,-0.9259,-1.0488,-1.2131,-1.3601,-1.4576,-1.5132,-1.5425,-1.5385,-1.515,-1.4603,-1.3654,-1.2305,-1.007,-0.9311,-0.8672,-0.5815,-0.6383,-0.7451,-0.5125,-0.5441,-0.6187,-0.5162,-0.5416,0.0,-0.5994,-0.6053,-0.6603,-0.8492,-0.8628,-0.886,-1.0442,-1.0826,-1.1044,-1.1552,-1.271,-1.4072,-1.5604,-1.5784,-1.5784,-1.5784,-1.5784,-1.5784,-1.5784,-1.5784,-1.5784,-1.5784,-1.5784,-1.5784,-1.5784,-1.5784,-1.5784,-1.5784,-1.5784,-1.5784,-1.5784,-1.4806,-1.4806,-1.5784,-1.3692,-1.2387,-1.1853,-1.0934,-0.9588,-0.7995,-0.8174,-0.8153,-0.7988,-0.7988,-0.7988,-0.7988,-0.7988,-0.7988,-0.7988,-0.7988,-0.7988,-0.7988,-1.1425,-1.1399,-1.1476,-1.1407,-1.1642,-1.2103,-1.2834,-1.2462,-1.2134,-1.2236,-1.1674,-1.1243,-1.1209,-1.0822,-1.0381,-0.994,-0.9098,-0.8295,-0.7544,-0.6941,-0.6539,-0.6405,-0.6244,-0.6426,-0.7035,-0.662,-0.6392,-0.6392,-0.5932,-0.5638,-0.5491,-0.536,-0.5825,-0.6753,-0.5568,-0.5718,-0.6821,-0.6346,-0.6921,-0.8308,-0.99,-1.161,-1.332,-1.4509,-1.5324,-1.5784,-1.5784,-1.5784,-1.5671,-1.4643,-1.3614,-1.2572,-1.1509,-1.0808,-0.9807,-0.7086,-0.7437,-0.8123,-0.548,-0.5449,-0.6,-0.5158,-0.5172,0.0,0.0,-0.608,-0.6581,-0.8251,-0.8361,-0.8436,-0.9431,-0.9524,-0.9637,-1.0065,-1.1707,-1.3008,-1.3259,-1.4765,-1.5784,-1.5784,-1.5784,-1.5784,-1.5784,-1.5784,-1.5784,-1.5784,-1.5784,-1.5784,-1.5784,-1.5784,-1.5784,-1.5784,-1.5784,-1.5784,-1.5784,-1.4555,-1.422,-1.4854,-1.2932,-1.1707,-1.1024,-1.0518,-0.9548,-0.8262,-0.8343,-0.833,-0.8255,-0.818,-0.8153,-0.8147,-0.8022,-0.7988,-0.7988,-0.7988,-0.7988,-0.7988,-1.211,-1.1584,-1.1299,-1.1623,-1.1405,-1.1493,-1.2455,-1.217,-1.1922,-1.2175,-1.2159,-1.2033,-1.1623,-1.149,-1.1129,-1.0421,-0.9766,-0.8991,-0.8067,-0.7589,-0.7308,-0.7209,-0.68,-0.6995,-0.7812,-0.7035,-0.6579,-0.6526,-0.5972,-0.5571,-0.5293,-0.5293,-0.6079,-0.7433,-0.6239,-0.6593,-0.7973,-0.68,-0.7054,-0.8482,-1.1142,-1.2692,-1.3561,-1.4963,-1.5451,-1.5478,-1.5704,-1.5784,-1.5651,-1.4772,-1.3721,-1.2746,-1.2839,-1.2158,-1.0824,-0.8217,-0.8416,-0.8834,-0.5867,-0.557,-0.5925,-0.5297,-0.5068,-0.5257,0.0,0.0,0.0,-0.8311,-0.8474,-0.8409,-0.8439,-0.8284,-0.8243,-0.86,-1.0301,-1.1252,-1.0262,-1.2705,-1.4713,-1.5012,-1.5465,-1.5691,-1.5465,-1.5398,-1.5478,-1.5758,-1.5518,-1.5478,-1.5771,-1.5784,-1.5784,-1.5784,-1.5784,-1.5784,-1.5784,-1.4316,-1.3701,-1.3906,-1.2273,-1.1075,-1.0222,-1.0103,-0.9496,-0.8486,-0.8513,-0.8513,-0.8472,-0.8357,-0.8361,-0.8296,-0.8113,-0.7988,-0.7988,-0.7988,-0.7988,-0.7988,-1.2696,-1.27,-1.2895,-1.3643,-1.3476,-1.3672,-1.4906,-1.4076,-1.3342,-1.3323,-1.3175,-1.3227,-1.3681,-1.3267,-1.2919,-1.2812,-1.2024,-1.1035,-0.9886,-0.9058,-0.8818,-0.9312,-0.7575,-0.7361,-0.8978,-0.7428,-0.6486,-0.625,-0.5878,-0.5571,-0.5293,-0.5293,-0.5531,-0.5981,-0.6861,-0.7075,-0.6888,-0.7976,-0.9432,-1.1002,-1.1663,-1.1564,-1.1243,-1.344,-1.4282,-1.4416,-1.5458,-1.5784,-1.5651,-1.4772,-1.4402,-1.3961,-1.2148,-1.2707,-1.3184,-0.8652,-0.9164,-1.0306,-0.6065,-0.6019,-0.6691,-0.4955,-0.5437,-0.5942,-0.431,0.0,-0.4394,-0.3965,0.0,-0.375,-0.3987,0.0,0.0,-0.4728,-0.6226,-0.7386,-0.765,-0.9137,-1.0751,-1.2178,-1.4402,-1.5418,-1.4389,-1.3999,-1.4386,-1.5678,-1.4585,-1.4412,-1.5718,-1.5784,-1.5784,-1.5784,-1.5784,-1.5784,-1.5784,-1.3509,-1.2979,-1.4028,-1.0578,-0.9436,-1.0362,-0.9345,-0.8767,-0.8486,-0.8628,-0.8608,-0.8479,-0.8465,-0.8459,-0.8431,-0.8147,-0.7988,-0.7988,-0.7988,-0.7988,-0.7988,-1.1814,-1.1683,-1.1652,-1.1566,-1.1428,-1.172,-1.2935,-1.3383,-1.3523,-1.3373,-1.3547,-1.3748,-1.3773,-1.3293,-1.2985,-1.2985,-1.2476,-1.1543,-1.0207,-0.9766,-0.9299,-0.8697,-0.7829,-0.7699,-0.8445,-0.7379,-0.6693,-0.6432,-0.5945,-0.5571,-0.5293,-0.5293,-0.6097,-0.7508,-0.7669,-0.8444,-0.9662,-0.9232,-0.955,-1.0448,-1.0728,-1.0635,-1.0648,-1.3868,-1.5097,-1.5164,-1.5611,-1.5784,-1.5731,-1.5358,-1.4239,-1.3099,-1.3754,-1.3155,-1.1812,-0.9563,-0.948,-0.9335,-0.5755,-0.6075,-0.6908,-0.4801,-0.5465,-0.6084,-0.412,-0.383,-0.391,-0.3671,0.0,0.0,0.0,0.0,0.0,0.0,-0.5178,-0.6139,-0.5467,-0.7611,-0.9575,-1.0498,-1.1802,-1.2909,-1.3733,-1.368,-1.4213,-1.5678,-1.4426,-1.4239,-1.5704,-1.5784,-1.5784,-1.5784,-1.5784,-1.5439,-1.4711,-1.3051,-1.2064,-1.1814,-0.9638,-0.8874,-0.9405,-0.8988,-0.8804,-0.875,-0.8818,-0.8804,-0.8743,-0.8648,-0.8615,-0.8594,-0.8377,-0.8248,-0.816,-0.8022,-0.7988,-0.7988,-1.1048,-1.1107,-1.1149,-1.0394,-1.0193,-1.0358,-1.1088,-1.2135,-1.2959,-1.3066,-1.3601,-1.3975,-1.3959,-1.3681,-1.3548,-1.3628,-1.34,-1.2679,-1.1303,-1.0822,-1.0301,-0.9617,-0.8512,-0.8205,-0.8845,-0.7566,-0.676,-0.6486,-0.5878,-0.5491,-0.5293,-0.5293,-0.6298,-0.8083,-0.8205,-0.9406,-1.1256,-1.039,-1.0394,-1.0902,-1.1035,-1.1295,-1.1908,-1.4416,-1.5551,-1.5784,-1.5784,-1.5784,-1.5744,-1.5505,-1.4164,-1.2895,-1.4555,-1.3529,-1.1511,-1.0816,-1.0436,-0.9557,-0.6464,-0.6614,-0.7109,-0.4745,-0.5042,-0.5536,-0.3927,-0.3649,-0.3769,-0.3865,-0.3824,0.0,0.0,0.0,-0.3175,-0.3289,0.0,-0.5038,-0.3865,-0.5803,-0.7622,-0.8409,-0.9229,-1.0504,-1.2463,-1.2402,-1.3013,-1.4884,-1.3783,-1.3813,-1.5678,-1.5784,-1.5784,-1.5784,-1.5784,-1.5188,-1.392,-1.2809,-1.1598,-1.0238,-0.9253,-0.8771,-0.8777,-0.8831,-0.8885,-0.8885,-0.8885,-0.8885,-0.8871,-0.8818,-0.8771,-0.8757,-0.8608,-0.8479,-0.837,-0.8221,-0.814,-0.8106,-1.0998,-1.19,-1.2603,-1.185,-1.1455,-1.1118,-1.0698,-1.0894,-1.1511,-1.265,-1.328,-1.3933,-1.4874,-1.515,-1.5431,-1.5664,-1.5678,-1.5217,-1.4041,-1.265,-1.2476,-1.3828,-1.006,-0.8964,-1.1229,-0.8216,-0.6486,-0.6209,-0.5601,-0.5306,-0.5293,-0.5293,-0.5658,-0.6371,-0.8285,-0.9377,-0.9889,-1.1503,-1.2879,-1.3921,-1.36,-1.4332,-1.5491,-1.4522,-1.4843,-1.5784,-1.5784,-1.5784,-1.5651,-1.4843,-1.4479,-1.4292,-1.3507,-1.3773,-1.4041,-1.2338,-1.2438,-1.2298,-0.8836,-0.8031,-0.7512,-0.4714,-0.4144,-0.4047,-0.314,-0.3269,-0.3612,-0.3619,-0.3907,-0.4139,-0.4004,-0.3873,-0.367,0.0,-0.3406,0.0,0.0,-0.3024,0.0,-0.525,-0.7122,-0.881,-1.0181,-0.9381,-0.9968,-1.2848,-1.2079,-1.2721,-1.5624,-1.5784,-1.5784,-1.5784,-1.5784,-1.5188,-1.392,-1.2878,-1.1723,-1.0387,-0.9374,-0.8878,-0.8878,-0.8885,-0.8885,-0.8885,-0.8885,-0.8885,-0.8885,-0.8878,-0.8878,-0.8858,-0.8764,-0.8703,-0.8676,-0.8526,-0.8384,-0.8313,-1.0872,-1.1183,-1.1158,-1.0012,-0.9728,-0.9925,-1.0744,-1.1618,-1.2543,-1.3548,-1.3975,-1.4482,-1.5177,-1.5337,-1.5511,-1.5758,-1.5784,-1.5337,-1.4162,-1.3253,-1.2799,-1.2906,-1.0835,-0.9953,-1.0541,-0.8911,-0.7615,-0.6734,-0.6333,-0.6164,-0.6164,-0.5981,-0.6317,-0.7137,-0.8551,-1.0017,-1.1463,-1.2301,-1.328,-1.4362,-1.4226,-1.4825,-1.5744,-1.5391,-1.5438,-1.5784,-1.5784,-1.5784,-1.5731,-1.5438,-1.4585,-1.3793,-1.4665,-1.3948,-1.2762,-1.2771,-1.2577,-1.1758,-0.91,-0.9305,-0.9404,-0.5834,-0.5655,-0.5839,-0.3824,-0.3704,-0.3917,-0.3665,-0.409,-0.4436,-0.4058,-0.3894,0.0,0.0,0.0,0.0,0.0,-0.2637,-0.2941,0.0,0.0,0.0,0.0,-0.8538,-0.9464,-1.1287,-1.0701,-1.1131,-1.3121,-1.4076,-1.4555,-1.4555,-1.4555,-1.3955,-1.2794,-1.1642,-1.0454,-0.9268,-0.9002,-0.8885,-0.8885,-0.8885,-0.8885,-0.8885,-0.8885,-0.8885,-0.8885,-0.8885,-0.8885,-0.8878,-0.8824,-0.8804,-0.8832,-0.8574,-0.8452,-0.8397,-1.1297,-1.0995,-1.0432,-0.9342,-0.9221,-0.9699,-1.0955,-1.2194,-1.3266,-1.4122,-1.4589,-1.5057,-1.5645,-1.5712,-1.5832,-1.6112,-1.6139,-1.5685,-1.4616,-1.4095,-1.3707,-1.3414,-1.2184,-1.1557,-1.1642,-1.0207,-0.8951,-0.7976,-0.7255,-0.6914,-0.6914,-0.6512,-0.676,-0.7531,-0.8365,-1.0003,-1.2184,-1.273,-1.3841,-1.5297,-1.5297,-1.5631,-1.6139,-1.6139,-1.6005,-1.5811,-1.6024,-1.6139,-1.6126,-1.6019,-1.5217,-1.446,-1.5483,-1.4624,-1.3403,-1.3944,-1.3718,-1.2717,-1.0246,-1.0409,-1.0363,-0.6578,-0.6286,-0.6448,-0.4449,-0.4321,-0.4545,-0.4199,-0.447,-0.4782,-0.4809,-0.4341,-0.3961,0.0,0.0,0.0,0.0,-0.2609,0.0,0.0,0.0,0.0,0.0,0.0,-0.8169,-1.055,-0.9766,-0.9973,-1.1811,-1.2716,-1.3199,-1.3199,-1.3199,-1.2628,-1.1513,-1.0758,-0.9813,-0.871,-0.8811,-0.8885,-0.8885,-0.8885,-0.8885,-0.8885,-0.8885,-0.8885,-0.8885,-0.8885,-0.8885,-0.8885,-0.8885,-0.8885,-0.8858,-0.8716,-0.8608,-0.854,-1.2091,-1.1251,-1.0595,-0.9952,-1.0009,-1.0448,-1.1322,-1.2428,-1.3534,-1.4442,-1.507,-1.5645,-1.6233,-1.6348,-1.6406,-1.6687,-1.67,-1.6353,-1.5511,-1.5223,-1.5196,-1.5444,-1.4068,-1.3694,-1.4522,-1.2007,-1.0358,-0.9755,-0.8268,-0.7553,-0.7504,-0.6941,-0.6968,-0.7504,-0.7802,-0.9419,-1.198,-1.2839,-1.4576,-1.6754,-1.6754,-1.6727,-1.6714,-1.674,-1.638,-1.5904,-1.65,-1.67,-1.666,-1.6393,-1.6348,-1.6246,-1.5939,-1.5798,-1.575,-1.5784,-1.5784,-1.5068,-1.2135,-1.1323,-1.0479,-0.6971,-0.6047,-0.5811,-0.4965,-0.5139,-0.5412,-0.5177,-0.5063,-0.5264,-0.6108,-0.5169,-0.4355,0.0,0.0,0.0,0.0,0.0,0.0,0.0,0.0,0.0,0.0,0.0,0.0,-1.0409,-0.916,0.0,-1.1568,-1.1744,-1.1793,-1.1804,-1.1804,-1.1264,-1.0222,-1.0252,-0.976,-0.8723,-0.8811,-0.8885,-0.8885,-0.8885,-0.8885,-0.8885,-0.8885,-0.8885,-0.8885,-0.8885,-0.8885,-0.8885,-0.8885,-0.8885,-0.8885,-0.8885,-0.879,-0.8703,-1.0864,-1.0696,-1.0653,-1.0691,-1.0559,-1.0921,-1.2248,-1.2866,-1.3681,-1.5003,-1.5484,-1.5939,-1.6526,-1.6593,-1.662,-1.67,-1.67,-1.6607,-1.638,-1.5885,-1.5832,-1.6339,-1.5177,-1.4616,-1.4888,-1.2703,-1.1176,-1.0372,-0.8884,-0.8053,-0.7779,-0.7632,-0.7535,-0.7527,-0.8053,-0.9726,-1.2238,-1.2919,-1.4816,-1.7355,-1.7355,-1.7101,-1.6754,-1.7194,-1.6994,-1.65,-1.6647,-1.67,-1.67,-1.662,-1.6593,-1.654,-1.6246,-1.5509,-1.4814,-1.5599,-1.514,-1.3981,-1.2215,-1.1735,-1.098,-0.7819,-0.6858,-0.6552,-0.6027,-0.6156,-0.6254,-0.5838,-0.6087,-0.6247,-0.5733,-0.5344,-0.4884,-0.4287,-0.36,0.0,0.0,0.0,0.0,-0.3392,0.0,0.0,0.0,0.0,0.0,0.0,-0.7912,-0.8819,-0.9003,-0.9426,-0.9913,-1.0467,-1.0485,-1.0445,-1.0364,-0.9443,-0.8934,-0.8824,-0.8865,-0.8885,-0.8885,-0.8885,-0.8885,-0.8885,-0.8885,-0.8885,-0.8885,-0.8885,-0.8885,-0.8885,-0.8885,-0.8885,-0.8885,-0.8885,-0.8858,-0.8804,-1.148,-1.1455,-1.1605,-1.1765,-1.1837,-1.2225,-1.3226,-1.3735,-1.4362,-1.5444,-1.5952,-1.6339,-1.6673,-1.6941,-1.7088,-1.7088,-1.7088,-1.6927,-1.654,-1.6567,-1.6567,-1.6513,-1.6308,-1.6161,-1.6161,-1.4456,-1.2986,-1.1752,-1.0278,-0.9045,-0.8123,-0.7965,-0.7762,-0.754,-0.812,-0.9581,-1.1663,-1.3547,-1.5378,-1.7048,-1.7435,-1.7382,0.0,-1.7462,-1.7382,-1.7088,-1.7088,-1.7088,-1.7074,-1.6941,-1.6901,-1.6847,-1.6553,-1.5494,-1.4477,-1.5008,-1.4194,-1.2845,-1.1433,-1.1072,-1.0502,-0.8244,-0.7536,-0.7233,-0.6763,-0.6776,-0.6782,-0.6525,-0.658,-0.6614,-0.6546,-0.5833,-0.4945,-0.3982,-0.3541,-0.3303,0.0,0.0,0.0,0.0,-0.3781,0.0,0.0,0.0,0.0,0.0,0.0,-0.7435,-0.7414,-0.7871,-0.8448,-0.9091,-0.9114,-0.9276,-0.9563,-0.8846,-0.8635,-0.8885,-0.8885,-0.8885,-0.8885,-0.8885,-0.8885,-0.8885,-0.8885,-0.8885,-0.8885,-0.8885,-0.8885,-0.8885,-0.8885,-0.8885,-0.8885,-0.8885,-0.8885,-0.8871,-1.3022,-1.2845,-1.2891,-1.2851,-1.34,-1.3946,-1.4322,-1.4847,-1.5397,-1.5925,-1.6553,-1.6941,-1.6941,-1.7395,-1.7702,-1.7702,-1.7702,-1.7382,-1.667,-1.7275,-1.7341,-1.654,-1.7235,-1.7622,-1.7582,-1.6393,-1.4937,-1.3213,-1.169,-1.0033,-0.8335,-0.8032,-0.7762,-0.754,-0.812,-0.934,-1.1162,-1.4429,-1.6086,-1.658,-1.7341,-1.7662,-1.7702,-1.7662,-1.7649,-1.7649,-1.7649,-1.7622,-1.7542,-1.734,-1.7259,-1.7206,-1.686,-1.5783,-1.4546,-1.4389,-1.3364,-1.1924,-1.046,-1.0053,-0.969,-0.8364,-0.8002,-0.7853,-0.7334,-0.7213,-0.7213,-0.7213,-0.6851,-0.6783,-0.7698,-0.6418,-0.4894,-0.3941,-0.3774,-0.3663,0.0,0.0,0.0,0.0,0.0,0.0,0.0,0.0,0.0,0.0,0.0,0.0,-0.6681,-0.6822,-0.7233,-0.7968,-0.8008,-0.8194,-0.8452,-0.8492,-0.8648,-0.8851,-0.8871,-0.8885,-0.8885,-0.8885,-0.8885,-0.8885,-0.8885,-0.8885,-0.8885,-0.8885,-0.8885,-0.8885,-0.8885,-0.8885,-0.8885,-0.8885,-0.8885,-0.8885,-1.3691,-1.3412,-1.3414,-1.3173,-1.4215,-1.5271,-1.5805,-1.5979,-1.6308,-1.6898,-1.7649,-1.8183,-1.8183,-1.8263,-1.833,-1.833,-1.833,-1.8263,-1.8116,-1.825,-1.8156,-1.7702,-1.7836,-1.7849,-1.7582,-1.6192,-1.4723,-1.3213,-1.1511,-0.9769,-0.7979,-0.7939,-0.7762,-0.754,-0.812,-1.0037,-1.2879,-1.4905,-1.6517,-1.7702,-1.7849,-1.8116,-1.8303,-1.8063,-1.7916,-1.7916,-1.7916,-1.7796,-1.7569,-1.7528,-1.7502,-1.7462,-1.7219,-1.6189,-1.5033,-1.4659,-1.3616,-1.222,-1.0707,-1.023,-0.9869,-0.8577,-0.8133,-0.7961,-0.7853,-0.7833,-0.7833,-0.7833,-0.7752,-0.7591,-0.7307,-0.6478,-0.5615,-0.4935,-0.4653,-0.4694,0.0,0.0,0.0,0.0,0.0,-0.4847,0.0,0.0,0.0,0.0,0.0,0.0,-0.6852,-0.6234,-0.6532,-0.7941,-0.8167,-0.8255,-0.8361,-0.8547,-0.8696,-0.875,-0.8824,-0.8885,-0.8885,-0.8885,-0.8885,-0.8885,-0.8885,-0.8885,-0.8885,-0.8885,-0.8885,-0.8885,-0.8885,-0.8885,-0.8885,-0.8885,-0.8885,-0.8885,-1.4123,-1.409,-1.4634,-1.5562,-1.6584,-1.7457,-1.8039,-1.8503,-1.8433,-1.7551,-1.7756,-1.8023,-1.8023,-1.8303,-1.849,-1.849,-1.849,-1.849,-1.849,-1.849,-1.8424,-1.829,-1.8277,-1.821,-1.8063,-1.7368,-1.5832,-1.34,-1.2425,-1.0568,-0.7912,-0.7912,-0.7762,-0.7558,-0.9218,-1.0995,-1.2893,-1.5271,-1.678,-1.7622,-1.809,-1.8357,-1.8477,-1.833,-1.8277,-1.8277,-1.8277,-1.8076,-1.7796,-1.7635,-1.7582,-1.745,-1.6558,-1.5826,-1.4978,-1.3205,-1.2196,-1.1394,-0.9847,-0.9354,-0.9168,-0.8494,-0.8214,-0.814,-0.8008,-0.7988,-0.7988,-0.7988,-0.7988,-0.7806,-0.7206,-0.66,-0.603,-0.5622,-0.5184,-0.5128,-0.5718,0.0,0.0,0.0,0.0,0.0,0.0,0.0,0.0,0.0,0.0,0.0,0.0,-0.6105,-0.6417,-0.7941,-0.8187,-0.8354,-0.8377,-0.8601,-0.875,-0.8832,-0.8851,-0.8885,-0.8885,-0.8885,-0.8885,-0.8885,-0.8885,-0.8885,-0.8885,-0.8885,-0.8885,-0.8885,-0.8885,-0.8885,-0.8885,-0.8885,-0.8885,-0.8885,-1.539,-1.5448,-1.6127,-1.7554,-1.8345,-1.8947,-1.9346,-2.0189,-2.0029,-1.8117,-1.7929,-1.7956,-1.7956,-1.8397,-1.8677,-1.8677,-1.8677,-1.8677,-1.8677,-1.8677,-1.8651,-1.8584,-1.8584,-1.8557,-1.849,-1.849,-1.7088,-1.4159,-1.3534,-1.1623,-0.8551,-0.8112,-0.8029,-0.8335,-1.0528,-1.2131,-1.3307,-1.5698,-1.7021,-1.7635,-1.8303,-1.8624,-1.8664,-1.8611,-1.8584,-1.8584,-1.8584,-1.8397,-1.8035,-1.7782,-1.7635,-1.7358,-1.5849,-1.5411,-1.4896,-1.22,-1.1202,-1.0695,-0.9398,-0.8818,-0.8506,-0.8391,-0.8316,-0.8241,-0.8113,-0.8015,-0.7988,-0.7988,-0.7988,-0.7806,-0.7206,-0.6865,-0.6519,-0.6139,-0.5723,-0.5615,-0.603,0.0,0.0,0.0,0.0,0.0,0.0,0.0,0.0,0.0,0.0,0.0,-0.639,-0.6078,-0.6478,-0.7806,-0.8079,-0.8214,-0.8296,-0.8601,-0.8804,-0.8838,-0.8865,-0.8885,-0.8885,-0.8885,-0.8885,-0.8885,-0.8885,-0.8885,-0.8885,-0.8885,-0.8885,-0.8885,-0.8885,-0.8885,-0.8885,-0.8885,-0.8885,-0.8885,-1.8942,-1.8287,-1.7572,-1.6949,-1.7536,-1.8117,-1.8171,-1.8955,-1.9358,-1.8838,-1.9038,-1.9256,-1.9256,-1.931,-1.935,-1.935,-1.935,-1.935,-1.935,-1.935,-1.9158,-1.8891,-1.8878,-1.8758,-1.8504,-1.849,-1.7675,-1.6032,-1.4135,-1.2358,-1.0661,-0.8778,-0.8884,-1.0701,-1.1511,-1.3387,-1.5939,-1.6473,-1.7502,-1.8771,-1.8851,-1.9038,-1.9252,-1.8985,-1.8878,-1.8878,-1.8878,-1.8691,-1.8397,-1.8049,-1.7809,-1.7358,-1.5849,-1.5411,-1.5091,-1.3503,-1.2099,-1.1076,-1.0895,-0.9807,-0.8682,-0.8669,-0.8465,-0.832,-0.8255,-0.814,-0.7988,-0.7988,-0.7988,-0.7806,-0.7206,-0.7496,-0.7516,-0.6457,-0.6532,-0.6775,-0.695,-0.6391,-0.6114,0.0,0.0,0.0,0.0,-0.407,0.0,0.0,0.0,0.0,0.0,-0.5895,-0.6444,-0.74,-0.7706,-0.7801,-0.7685,-0.8506,-0.8852,-0.873,-0.8817,-0.8885,-0.8885,-0.8885,-0.8885,-0.8885,-0.8885,-0.8885,-0.8885,-0.8885,-0.8885,-0.8885,-0.8885,-0.8885,-0.8885,-0.8885,-0.8885,-0.8885,-2.1944,-2.118,-2.1045,-2.2352,-2.2518,-2.2692,-2.3468,-2.3063,-2.2314,-2.1336,-2.0134,-1.943,-1.943,-1.943,-1.943,-1.943,-1.943,-1.943,-1.943,-1.943,-1.9319,-1.9199,-1.9185,-1.9132,-1.9025,-1.9011,-1.8196,-1.6526,-1.5003,-1.332,-1.1538,-1.0675,-1.1116,-1.2614,-1.4122,-1.5431,-1.6607,-1.7796,-1.8651,-1.9185,-1.9185,-1.9265,-1.9417,-1.9239,-1.9185,-1.9185,-1.9185,-1.8998,-1.8731,-1.8611,-1.8263,-1.7394,-1.4934,-1.4716,-1.477,-1.1592,-1.0891,-1.0891,-1.0021,-0.9325,-0.8825,-0.873,-0.8621,-0.8513,-0.8418,-0.8282,-0.818,-0.818,-0.8106,-0.7914,-0.7678,-0.7537,-0.7415,-0.7346,-0.7132,-0.7159,-0.7577,-0.7375,0.0,0.0,0.0,0.0,0.0,0.0,0.0,0.0,0.0,0.0,-0.5637,-0.5827,-0.6179,-0.6852,-0.7821,-0.8147,-0.7733,-0.848,-0.8851,-0.8845,-0.8851,-0.8885,-0.8885,-0.8885,-0.8885,-0.8885,-0.8885,-0.8885,-0.8885,-0.8885,-0.8885,-0.8885,-0.8885,-0.8885,-0.8885,-0.8885,-0.8885,-0.8885,-2.3781,-2.3037,-2.307,-2.444,-2.4221,-2.4166,-2.5093,-2.4269,-2.315,-2.2125,-2.0579,-1.9626,-1.9626,-1.9626,-1.9626,-1.9626,-1.9546,-1.9492,-1.9492,-1.9412,-1.943,-1.943,-1.943,-1.943,-1.943,-1.943,-1.8744,-1.7488,-1.6139,-1.4767,-1.328,-1.2891,-1.3333,-1.4572,-1.6152,-1.7074,-1.7569,-1.8838,-1.943,-1.943,-1.943,-1.943,-1.943,-1.943,-1.943,-1.943,-1.943,-1.9225,-1.9038,-1.8958,-1.8595,-1.7786,-1.493,-1.4451,-1.4267,-1.1126,-1.0296,-1.0296,-0.9699,-0.921,-0.8858,-0.8804,-0.8743,-0.8682,-0.8574,-0.8438,-0.8374,-0.8333,-0.818,-0.8092,-0.7995,-0.7644,-0.7442,-0.7685,-0.7523,-0.7442,-0.7692,-0.7725,-0.7725,-0.7725,-0.7341,0.0,-0.6957,-0.5942,0.0,0.0,0.0,0.0,-0.5861,-0.5976,-0.6268,-0.6844,-0.7936,-0.8309,-0.7882,-0.8528,-0.8885,-0.8885,-0.8885,-0.8885,-0.8885,-0.8885,-0.8885,-0.8885,-0.8885,-0.8885,-0.8885,-0.8885,-0.8885,-0.8885,-0.8885,-0.8885,-0.8885,-0.8885,-0.8602,-0.8269,-2.406,-2.3582,-2.2906,-2.0648,-2.0274,-2.0274,-2.0288,-2.0288,-2.0227,-2.0227,-2.0227,-2.0167,-2.0167,-2.0167,-2.0167,-2.0167,-1.996,-1.98,-1.98,-1.9533,-1.943,-1.943,-1.943,-1.943,-1.943,-1.943,-1.9417,-1.939,-1.7555,-1.6673,-1.662,-1.5164,-1.5271,-1.6687,-1.7058,-1.801,-1.939,-1.9417,-1.943,-1.943,-1.943,-1.943,-1.943,-1.943,-1.943,-1.943,-1.943,-1.9417,-1.9319,-1.9025,-1.8918,-1.8516,-1.6527,-1.4856,-1.3658,-1.3325,-1.121,-0.9265,-1.0672,-1.0021,-0.8885,-0.8885,-0.8825,-0.871,-0.871,-0.8587,-0.8438,-0.8347,-0.832,-0.8221,-0.8015,-0.7982,-0.7786,-0.72,-0.7597,-0.7773,-0.7186,-0.7105,-0.7105,-0.7105,-0.5818,-0.5494,-0.695,-0.5521,0.0,0.0,0.0,-0.5908,-0.6279,-0.6429,-0.6871,-0.7767,-0.7907,-0.7995,-0.7988,-0.8581,-0.8885,-0.8885,-0.8885,-0.8885,-0.8885,-0.8885,-0.8885,-0.8885,-0.8885,-0.8885,-0.8885,-0.8885,-0.8885,-0.8885,-0.8885,-0.8885,-0.8885,-0.8885,-0.7986,-0.67,-2.8707,-2.833,-2.795,-2.7546,-2.6346,-2.5476,-2.5724,-2.3917,-2.2537,-2.2537,-2.15,-2.0828,-2.0828,-2.0468,-2.0167,-2.0167,-2.0147,-2.0094,-2.0094,-2.0013,-1.996,-1.996,-1.996,-1.9867,-1.9666,-1.9666,-1.9559,-1.943,-1.7983,-1.7301,-1.7288,-1.682,-1.7288,-1.8531,-1.868,-1.8975,-1.943,-1.943,-1.943,-1.943,-1.943,-1.943,-1.943,-1.943,-1.943,-1.943,-1.943,-1.943,-1.9359,-1.9252,-1.9225,-1.9101,-1.8238,-1.6042,-1.3612,-1.2395,-1.0683,-0.9174,-0.9507,-0.9265,-0.8885,-0.8885,-0.8844,-0.8811,-0.8811,-0.875,-0.8594,-0.8445,-0.8418,-0.8397,-0.835,-0.8343,-0.8275,-0.8085,-0.8133,-0.8133,-0.7936,-0.7821,-0.7705,-0.7705,-0.7428,-0.7394,-0.7862,-0.6926,-0.6403,-0.6681,-0.5854,-0.5569,-0.6078,-0.6824,-0.7231,-0.721,-0.8096,-0.8406,-0.7995,-0.8581,-0.8885,-0.8885,-0.8885,-0.8885,-0.8885,-0.8885,-0.8885,-0.8885,-0.8885,-0.8885,-0.8885,-0.8885,-0.8885,-0.8885,-0.8885,-0.8885,-0.8885,-0.8885,-0.7986,-0.67,-2.9294,-2.8818,-2.8296,-2.7357,-2.6164,-2.5375,-2.5647,-2.3915,-2.2654,-2.2654,-2.1727,-2.1109,-2.1109,-2.0775,-2.0561,-2.0561,-2.0468,-2.0401,-2.0401,-2.0294,-2.0167,-2.0167,-2.0167,-2.0147,-1.996,-1.996,-1.9867,-1.9693,-1.8945,-1.8584,-1.8584,-1.8584,-1.8971,-1.9693,-1.9693,-1.9693,-1.9693,-1.9693,-1.9626,-1.9533,-1.9533,-1.9466,-1.943,-1.943,-1.943,-1.943,-1.943,-1.943,-1.943,-1.943,-1.943,-1.9332,-1.9145,-1.7265,-1.4687,-1.2909,-1.127,-0.9912,-0.921,-0.8981,-0.8885,-0.8885,-0.8885,-0.8885,-0.8885,-0.8811,-0.875,-0.8601,-0.8567,-0.8554,-0.8492,-0.8479,-0.8479,-0.8479,-0.8411,-0.835,-0.835,-0.8269,-0.8119,-0.7902,-0.7957,-0.8018,-0.8018,-0.759,-0.7326,-0.7366,-0.681,-0.66,-0.7014,-0.7177,-0.7394,-0.7624,-0.8447,-0.8703,-0.8332,-0.8696,-0.8885,-0.8885,-0.8885,-0.8885,-0.8885,-0.8885,-0.8885,-0.8885,-0.8885,-0.8885,-0.8885,-0.8885,-0.8885,-0.8885,-0.8885,-0.8885,-0.8885,-0.8885,-0.7598,-0.5866,-2.6953,-2.6227,-2.5192,-2.2153,-2.1411,-2.1299,-2.1299,-2.1172,-2.1109,-2.1109,-2.1109,-2.1109,-2.1109,-2.1109,-2.1109,-2.1109,-2.0869,-2.0708,-2.0708,-2.0441,-2.0233,-2.0233,-2.0233,-2.022,-2.0267,-2.0207,-2.0193,-2.0167,-2.0167,-2.0167,-2.0167,-2.0167,-2.0167,-2.0167,-2.0167,-2.0167,-2.0167,-2.0167,-2.008,-1.9826,-1.9826,-1.9666,-1.9426,-1.9399,-1.9457,-1.9457,-1.943,-1.943,-1.943,-1.943,-1.943,-1.943,-1.943,-1.8344,-1.6751,-1.4599,-1.2796,-1.1189,-0.9603,-0.9055,-0.8898,-0.8885,-0.8885,-0.8885,-0.8885,-0.8885,-0.8844,-0.8757,-0.8723,-0.8682,-0.854,-0.8513,-0.8513,-0.8513,-0.8506,-0.8499,-0.8499,-0.8486,-0.8275,-0.7726,-0.7672,-0.7678,-0.7678,-0.7685,-0.7902,-0.8397,-0.8574,-0.8662,-0.8648,-0.7468,-0.7455,-0.8838,-0.8885,-0.8885,-0.8885,-0.8885,-0.8885,-0.8885,-0.8885,-0.8885,-0.8885,-0.8885,-0.8885,-0.8885,-0.8885,-0.8885,-0.8885,-0.8885,-0.8885,-0.8885,-0.8885,-0.8885,-0.8885,-0.8885,-0.7038,-0.4526,-2.9903,-2.8724,-2.7572,-2.6832,-2.4655,-2.3014,-2.3014,-2.1915,-2.1109,-2.1109,-2.1109,-2.1109,-2.1109,-2.1109,-2.1109,-2.1109,-2.1042,-2.1002,-2.1002,-2.0935,-2.0895,-2.0895,-2.0895,-2.0802,-2.0575,-2.0575,-2.0468,-2.0167,-2.0167,-2.0167,-2.0167,-2.0167,-2.0167,-2.0167,-2.0167,-2.0167,-2.0167,-2.0167,-2.0127,-2.0134,-2.0134,-2.0094,-2.0,-1.9786,-1.9693,-1.9666,-1.9452,-1.943,-1.943,-1.943,-1.943,-1.943,-1.943,-1.9127,-1.8222,-1.5192,-1.3163,-1.1512,-0.9667,-0.9187,-0.9076,-0.8967,-0.8885,-0.8885,-0.8885,-0.8885,-0.8871,-0.8838,-0.8831,-0.8817,-0.8838,-0.8832,-0.8832,-0.8832,-0.873,-0.8655,-0.8655,-0.8554,-0.8431,-0.8289,-0.8377,-0.8445,-0.8445,-0.8554,-0.8438,-0.8004,-0.8113,-0.8096,-0.8031,-0.7834,-0.8049,-0.8858,-0.8885,-0.8885,-0.8885,-0.8885,-0.8885,-0.8885,-0.8885,-0.8885,-0.8885,-0.8885,-0.8885,-0.8885,-0.8885,-0.8885,-0.8885,-0.8885,-0.8885,-0.8885,-0.8885,-0.8885,-0.8885,-0.8885,-0.7038,-0.4526,-2.9903,-2.9039,-2.817,-2.7434,-2.5269,-2.3574,-2.3574,-2.2153,-2.1109,-2.1109,-2.1109,-2.1109,-2.1109,-2.1109,-2.1109,-2.1109,-2.1109,-2.1109,-2.1109,-2.1109,-2.1109,-2.1109,-2.1109,-2.1042,-2.0882,-2.0869,-2.0788,-2.0628,-2.0628,-2.0628,-2.0628,-2.0628,-2.0628,-2.0628,-2.0628,-2.0628,-2.0628,-2.0628,-2.0561,-2.0441,-2.0441,-2.0361,-2.0153,-2.0054,-1.992,-1.9773,-1.9626,-1.9479,-1.943,-1.943,-1.943,-1.9243,-1.8519,-1.8823,-1.8739,-1.5455,-1.382,-1.2696,-1.0944,-0.9874,-0.9275,-0.9076,-0.8988,-0.8885,-0.8885,-0.8885,-0.8885,-0.8885,-0.8885,-0.8885,-0.8885,-0.8885,-0.8885,-0.8885,-0.8811,-0.8811,-0.8811,-0.8743,-0.8689,-0.8689,-0.8764,-0.8811,-0.8811,-0.8838,-0.8716,-0.8357,-0.8352,-0.8359,-0.833,-0.8352,-0.8548,-0.8871,-0.8885,-0.8885,-0.8885,-0.8885,-0.8885,-0.8885,-0.8885,-0.8885,-0.8885,-0.8885,-0.8885,-0.8885,-0.8885,-0.8885,-0.8885,-0.8885,-0.8885,-0.8885,-0.8885,-0.8885,-0.883,-0.8152,-0.6478,-0.4414,-2.9039,-2.8545,-2.7991,-2.6591,-2.484,-2.3574,-2.3574,-2.2153,-2.1109,-2.1109,-2.1109,-2.1109,-2.1109,-2.1109,-2.1109,-2.1109,-2.1109,-2.1109,-2.1109,-2.1109,-2.1109,-2.1109,-2.1109,-2.1109,-2.1109,-2.1109,-2.1109,-2.1109,-2.1109,-2.1109,-2.1109,-2.1109,-2.1109,-2.1109,-2.1109,-2.1109,-2.1109,-2.1109,-2.0962,-2.0735,-2.0735,-2.0588,-2.0361,-2.0321,-2.0147,-1.992,-1.9826,-1.9639,-1.9426,-1.9386,-1.943,-1.9185,-1.7806,-1.811,-1.8532,-1.609,-1.4879,-1.4073,-1.2466,-1.0704,-0.9347,-0.9275,-0.9096,-0.8946,-0.8974,-0.8974,-0.8912,-0.8892,-0.8885,-0.8885,-0.8885,-0.8885,-0.8851,-0.8763,-0.8824,-0.8851,-0.8763,-0.8824,-0.8885,-0.8885,-0.8885,-0.8885,-0.8885,-0.8885,-0.8885,-0.8885,-0.8885,-0.8885,-0.8885,-0.8885,-0.8885,-0.8885,-0.8885,-0.8885,-0.8885,-0.8885,-0.8892,-0.8974,-0.8974,-0.8981,-0.8946,-0.8981,-0.8974,-0.8974,-0.8974,-0.8974,-0.8974,-0.8939,-0.8994,-0.8974,-0.8974,-0.8905,-0.8712,-0.726,-0.575,-0.4303,-3.0587,-2.9335,-2.8307,-2.8051,-2.5574,-2.3574,-2.3574,-2.2153,-2.1109,-2.1109,-2.1109,-2.1109,-2.1109,-2.1109,-2.1109,-2.1109,-2.1109,-2.1109,-2.1109,-2.1109,-2.1109,-2.1109,-2.1109,-2.1109,-2.1109,-2.1109,-2.1109,-2.1109,-2.1109,-2.1109,-2.1109,-2.1109,-2.1109,-2.1109,-2.1109,-2.1109,-2.1109,-2.1109,-2.1082,-2.1042,-2.1042,-2.1015,-2.0949,-2.0695,-2.0588,-2.0481,-1.9973,-1.9773,-1.9693,-1.9511,-1.943,-1.9372,-1.9127,-1.8286,-1.756,-1.8402,-1.6715,-1.4212,-1.2443,-1.0704,-0.9374,-0.9354,-0.9327,-0.9279,-0.9207,-0.9173,-0.9083,-0.8905,-0.8885,-0.8885,-0.8885,-0.8885,-0.8716,-0.8211,-0.8555,-0.871,-0.8197,-0.8561,-0.8885,-0.8885,-0.8885,-0.8885,-0.8885,-0.8885,-0.8885,-0.8885,-0.8885,-0.8885,-0.8885,-0.8885,-0.8885,-0.8885,-0.8885,-0.8885,-0.8885,-0.8885,-0.9001,-0.9173,-0.9173,-0.9184,-0.9306,-0.9178,-0.9173,-0.9173,-0.9173,-0.9173,-0.9187,-0.9259,-0.9239,-0.9173,-0.9173,-0.9049,-0.8712,-0.726,-0.575,-0.4303,-3.0898,-3.0274,-2.9471,-2.8545,-2.647,-2.4594,-2.376,-2.2153,-2.1109,-2.1109,-2.1109,-2.1109,-2.1109,-2.1109,-2.1109,-2.1109,-2.1109,-2.1109,-2.1109,-2.1109,-2.1109,-2.1109,-2.1109,-2.1109,-2.1109,-2.1109,-2.1109,-2.1109,-2.1109,-2.1109,-2.1109,-2.1109,-2.1109,-2.1109,-2.1109,-2.1109,-2.1109,-2.1109,-2.1109,-2.1109,-2.1109,-2.1109,-2.1096,-2.0962,-2.0815,-2.0641,-2.0374,-2.0174,-1.9987,-1.9693,-1.9599,-1.9455,-1.8453,-1.8169,-1.8286,-1.8156,-1.6444,-1.4222,-1.2583,-1.0842,-0.9503,-0.9503,-0.9442,-0.9361,-0.935,-0.933,-0.9232,-0.9083,-0.9055,-0.9028,-0.8898,-0.8885,-0.879,-0.8514,-0.8703,-0.8784,-0.8507,-0.871,-0.8885,-0.8885,-0.8885,-0.8885,-0.8885,-0.8885,-0.8885,-0.8885,-0.9008,-0.9055,-0.9055,-0.913,-0.9178,-0.9178,-0.9096,-0.9096,-0.9178,-0.9178,-0.9211,-0.933,-0.933,-0.9313,-0.9381,-0.9306,-0.933,-0.933,-0.933,-0.933,-0.9337,-0.9354,-0.934,-0.933,-0.933,-0.9184,-0.8769,-0.6449,-0.5122,-0.4191,-3.0898,-3.0898,-3.0509,-2.9216,-2.7331,-2.5558,-2.4363,-2.2404,-2.1109,-2.1109,-2.1109,-2.1109,-2.1109,-2.1109,-2.1109,-2.1109,-2.1109,-2.1109,-2.1109,-2.1109,-2.1109,-2.1109,-2.1109,-2.1109,-2.1109,-2.1109,-2.1109,-2.1109,-2.1109,-2.1109,-2.1109,-2.1109,-2.1109,-2.1109,-2.1109,-2.1109,-2.1109,-2.1109,-2.1109,-2.1109,-2.1109,-2.1109,-2.1109,-2.1109,-2.0975,-2.0762,-2.0695,-2.0535,-2.0294,-2.0,-1.9853,-1.9582,-1.8084,-1.8219,-1.8648,-1.7806,-1.6138,-1.4183,-1.2157,-1.0928,-1.013,-0.9719,-0.9571,-0.9476,-0.9442,-0.9435,-0.9388,-0.9296,-0.9262,-0.9171,-0.9062,-0.9042,-0.8994,-0.8852,-0.8947,-0.8994,-0.8852,-0.8954,-0.9042,-0.9042,-0.9042,-0.9042,-0.9042,-0.9042,-0.9042,-0.9042,-0.9144,-0.9262,-0.9262,-0.932,-0.9395,-0.9435,-0.9344,-0.9316,-0.9381,-0.9381,-0.9401,-0.9435,-0.9435,-0.9449,-0.9483,-0.9449,-0.9435,-0.9435,-0.9435,-0.9435,-0.9435,-0.9469,-0.9462,-0.9435,-0.9435,-0.9109,-0.8337,-0.5692,-0.4398,-0.3562,-3.0898,-3.0898,-3.084,-3.0762,-2.8128,-2.5984,-2.5863,-2.3124,-2.1109,-2.1109,-2.1109,-2.1109,-2.1109,-2.1109,-2.1109,-2.1109,-2.1109,-2.1109,-2.1109,-2.1109,-2.1109,-2.1109,-2.1109,-2.1109,-2.1109,-2.1109,-2.1109,-2.1109,-2.1109,-2.1109,-2.1109,-2.1109,-2.1109,-2.1109,-2.1109,-2.1109,-2.1109,-2.1109,-2.1109,-2.1109,-2.1109,-2.1109,-2.1109,-2.1109,-2.1096,-2.1042,-2.0775,-2.0655,-2.0601,-2.0294,-2.0027,-1.98,-1.9654,-1.8488,-1.7443,-1.8823,-1.7044,-1.3944,-1.0838,-1.0952,-1.1659,-1.0165,-0.9795,-0.9754,-0.9625,-0.9591,-0.9551,-0.9395,-0.9361,-0.9361,-0.9354,-0.9347,-0.9164,-0.8608,-0.8988,-0.915,-0.8594,-0.8994,-0.9347,-0.9347,-0.9347,-0.9347,-0.9347,-0.9347,-0.9347,-0.9347,-0.9361,-0.9361,-0.9361,-0.9374,-0.9449,-0.9591,-0.9442,-0.9367,-0.9381,-0.9381,-0.9456,-0.9591,-0.9591,-0.9659,-0.9781,-0.9652,-0.9591,-0.9591,-0.9591,-0.9591,-0.9605,-0.9734,-0.9713,-0.9591,-0.9591,-0.8543,-0.6899,-0.5265,-0.3686,-0.2166,-3.0898,-3.0898,-3.0587,-2.953,-2.8307,-2.6832,-2.484,-2.3435,-2.2278,-2.1235,-2.1109,-2.1109,-2.1109,-2.1109,-2.1109,-2.1109,-2.1109,-2.1109,-2.1109,-2.1109,-2.1109,-2.1109,-2.1109,-2.1109,-2.1109,-2.1109,-2.1109,-2.1109,-2.1109,-2.1109,-2.1109,-2.1109,-2.1109,-2.1109,-2.1109,-2.1109,-2.1109,-2.1109,-2.1109,-2.1109,-2.1109,-2.1109,-2.1109,-2.1109,-2.1109,-2.1096,-2.0989,-2.0949,-2.0895,-2.0615,-2.0428,-2.0307,-2.012,-1.9436,-1.8631,-1.8089,-1.7032,-1.537,-1.2157,-1.102,-1.0543,-0.9937,-0.9822,-0.9808,-0.9754,-0.9741,-0.97,-0.9551,-0.9523,-0.9496,-0.9401,-0.9381,-0.9306,-0.9076,-0.9232,-0.93,-0.9076,-0.9239,-0.9381,-0.9381,-0.9381,-0.9381,-0.9381,-0.9381,-0.9381,-0.9381,-0.9469,-0.9523,-0.9523,-0.9605,-0.968,-0.9741,-0.9686,-0.9652,-0.9652,-0.9652,-0.9686,-0.9741,-0.9741,-0.9768,-0.9822,-0.9768,-0.9741,-0.9741,-0.9741,-0.9741,-0.9747,-0.9795,-0.9788,-0.9741,-0.9741,-0.8624,-0.6837,-0.5353,-0.3726,-0.1997,-3.0898,-3.0898,-3.0528,-2.9412,-2.8724,-2.7632,-2.5452,-2.424,-2.3201,-2.2041,-2.1425,-2.1109,-2.1109,-2.1109,-2.1109,-2.1109,-2.1109,-2.1109,-2.1109,-2.1109,-2.1109,-2.1109,-2.1109,-2.1109,-2.1109,-2.1109,-2.1109,-2.1109,-2.1109,-2.1109,-2.1109,-2.1109,-2.1109,-2.1109,-2.1109,-2.1109,-2.1109,-2.1109,-2.1109,-2.1109,-2.1109,-2.1109,-2.1109,-2.1109,-2.1109,-2.1109,-2.1109,-2.1109,-2.1082,-2.0882,-2.0748,-2.0641,-2.0441,-2.0174,-1.9569,-1.7707,-1.715,-1.6405,-1.3126,-1.1374,-1.0422,-0.9943,-0.9822,-0.9822,-0.9822,-0.9822,-0.9795,-0.9693,-0.968,-0.9646,-0.9537,-0.9517,-0.9517,-0.9517,-0.9517,-0.9517,-0.9517,-0.9517,-0.9517,-0.9517,-0.9517,-0.9517,-0.9517,-0.9517,-0.9517,-0.9517,-0.9618,-0.968,-0.968,-0.9768,-0.9822,-0.9822,-0.9822,-0.9822,-0.9822,-0.9822,-0.9822,-0.9822,-0.9822,-0.9822,-0.9822,-0.9822,-0.9822,-0.9822,-0.9822,-0.9822,-0.9822,-0.9822,-0.9822,-0.9822,-0.9822,-0.8418,-0.6288,-0.526,-0.3487,-0.1373,-3.0898,-3.0898,-3.0898,-3.0898,-2.953,-2.8426,-2.8426,-2.5696,-2.3636,-2.3574,-2.2153,-2.1109,-2.1109,-2.1109,-2.1109,-2.1109,-2.1109,-2.1109,-2.1109,-2.1109,-2.1109,-2.1109,-2.1109,-2.1109,-2.1109,-2.1109,-2.1109,-2.1109,-2.1109,-2.1109,-2.1109,-2.1109,-2.1109,-2.1109,-2.1109,-2.1109,-2.1109,-2.1109,-2.1109,-2.1109,-2.1109,-2.1109,-2.1109,-2.1109,-2.1109,-2.1109,-2.1109,-2.1109,-2.1109,-2.1109,-2.0922,-2.0681,-2.0681,-2.0468,-1.9871,-1.7973,-1.7409,-1.662,-1.3162,-1.2217,-1.1796,-1.0179,-0.9822,-0.9822,-0.9822,-0.9822,-0.9822,-0.9822,-0.9822,-0.9822,-0.9822,-0.9822,-0.9822,-0.9822,-0.9822,-0.9822,-0.9822,-0.9822,-0.9822,-0.9822,-0.9822,-0.9822,-0.9822,-0.9822,-0.9822,-0.9822,-0.9822,-0.9822,-0.9822,-0.9822,-0.9822,-0.9822,-0.9822,-0.9822,-0.9822,-0.9822,-0.9822,-0.9822,-0.9822,-0.9822,-0.9822,-0.9822,-0.9822,-0.9822,-0.9822,-0.9822,-0.9822,-0.9822,-0.9822,-0.9822,-0.9822,-0.7795,-0.4916,-0.4916,-0.2831,0.0,-3.0898,-3.0898,-3.0898,-3.0898,-3.0509,-2.9766,-2.8605,-2.7572,-2.6183,-2.3884,-2.3139,-2.2404,-2.1235,-2.1109,-2.1109,-2.1109,-2.1109,-2.1109,-2.1109,-2.1109,-2.1109,-2.1109,-2.1109,-2.1109,-2.1109,-2.1109,-2.1109,-2.1109,-2.1109,-2.1109,-2.1109,-2.1109,-2.1109,-2.1109,-2.1109,-2.1109,-2.1109,-2.1109,-2.1109,-2.1109,-2.1109,-2.1109,-2.1109,-2.1109,-2.1109,-2.1109,-2.1109,-2.1109,-2.1109,-2.1109,-2.1056,-2.0949,-2.0735,-2.0615,-2.0358,-1.9629,-1.8408,-1.7146,-1.6106,-1.405,-1.1796,-1.0179,-0.9822,-0.9822,-0.9822,-0.9822,-0.9822,-0.9822,-0.9822,-0.9822,-0.9822,-0.9822,-0.9822,-0.9822,-0.9822,-0.9822,-0.9822,-0.9822,-0.9822,-0.9822,-0.9822,-0.9822,-0.9822,-0.9822,-0.9822,-0.9822,-0.9822,-0.9822,-0.9822,-0.9822,-0.9822,-0.9822,-0.9822,-0.9822,-0.9822,-0.9822,-0.9822,-0.9822,-0.9822,-0.9822,-0.9822,-0.9822,-0.9822,-0.9822,-0.9822,-0.9822,-0.9822,-0.9822,-0.9822,-0.9822,-0.9822,-0.7795,-0.4916,-0.4916,-0.2831,0.0,-3.0898,-3.0898,-3.0898,-3.0898,-3.0898,-3.0587,-2.953,-2.8842,-2.7692,-2.5757,-2.4363,-2.3201,-2.2215,-2.1475,-2.1109,-2.1109,-2.1109,-2.1109,-2.1109,-2.1109,-2.1109,-2.1109,-2.1109,-2.1109,-2.1109,-2.1109,-2.1109,-2.1109,-2.1109,-2.1109,-2.1109,-2.1109,-2.1109,-2.1109,-2.1109,-2.1109,-2.1109,-2.1109,-2.1109,-2.1109,-2.1109,-2.1109,-2.1109,-2.1109,-2.1109,-2.1109,-2.1109,-2.1109,-2.1109,-2.1109,-2.1109,-2.1082,-2.0909,-2.0842,-2.0788,-2.0494,-1.9585,-1.8556,-1.778,-1.6046,-1.3863,-1.1492,-1.0343,-0.9822,-0.9822,-0.9822,-0.9822,-0.9822,-0.9822,-0.9822,-0.9822,-0.9822,-0.9822,-0.9822,-0.9822,-0.9822,-0.9822,-0.9822,-0.9822,-0.9822,-0.9822,-0.9822,-0.9822,-0.9822,-0.9822,-0.9822,-0.9822,-0.9822,-0.9822,-0.9822,-0.9822,-0.9822,-0.9822,-0.9822,-0.9822,-0.9822,-0.9822,-0.9822,-0.9822,-0.9822,-0.9822,-0.9822,-0.9822,-0.9822,-0.9822,-0.9822,-0.9822,-0.9822,-0.9822,-0.9822,-0.9822,-0.7795,-0.4916,-0.4916,-0.2831,0.0,-3.0898,-3.0898,-3.0898,-3.0898,-3.0898,-3.0898,-3.0898,-2.9589,-2.8545,-2.823,-2.5635,-2.3698,-2.3387,-2.2041,-2.1109,-2.1109,-2.1109,-2.1109,-2.1109,-2.1109,-2.1109,-2.1109,-2.1109,-2.1109,-2.1109,-2.1109,-2.1109,-2.1109,-2.1109,-2.1109,-2.1109,-2.1109,-2.1109,-2.1109,-2.1109,-2.1109,-2.1109,-2.1109,-2.1109,-2.1109,-2.1109,-2.1109,-2.1109,-2.1109,-2.1109,-2.1109,-2.1109,-2.1109,-2.1109,-2.1109,-2.1109,-2.1109,-2.1109,-2.1109,-2.1056,-2.0788,-2.0695,-2.0354,-1.8582,-1.8006,-1.7116,-1.3901,-1.1524,-1.0018,-0.9822,-0.9822,-0.9822,-0.9822,-0.9822,-0.9822,-0.9822,-0.9822,-0.9822,-0.9822,-0.9822,-0.9822,-0.9822,-0.9822,-0.9822,-0.9822,-0.9822,-0.9822,-0.9822,-0.9822,-0.9822,-0.9822,-0.9822,-0.9822,-0.9822,-0.9822,-0.9822,-0.9822,-0.9822,-0.9822,-0.9822,-0.9822,-0.9822,-0.9822,-0.9822,-0.9822,-0.9822,-0.9822,-0.9822,-0.9822,-0.9822,-0.9822,-0.9822,-0.9822,-0.9822,-0.9761,-0.9633,-0.7673,-0.4855,-0.4732,-0.2708,0.0,-3.0957,-3.0898,-3.0898,-3.0898,-3.0898,-3.0898,-3.0898,-3.0587,-2.9412,-2.6832,-2.5924,-2.4532,-2.1902,-2.1299,-2.1109,-2.1109,-2.1109,-2.1109,-2.1109,-2.1109,-2.1109,-2.1109,-2.1109,-2.1109,-2.1109,-2.1109,-2.1109,-2.1109,-2.1109,-2.1109,-2.1109,-2.1109,-2.1109,-2.1109,-2.1109,-2.1109,-2.1109,-2.1109,-2.1109,-2.1109,-2.1109,-2.1109,-2.1109,-2.1109,-2.1109,-2.1109,-2.1109,-2.1109,-2.1109,-2.1109,-2.1109,-2.1109,-2.1109,-2.1109,-2.1096,-2.1029,-2.0855,-2.0593,-2.0217,-1.9025,-1.7725,-1.692,-1.434,-1.16,-1.0147,-0.9822,-0.9822,-0.9822,-0.9822,-0.9822,-0.9822,-0.9822,-0.9822,-0.9822,-0.9822,-0.9822,-0.9822,-0.9822,-0.9822,-0.9822,-0.9822,-0.9822,-0.9822,-0.9822,-0.9822,-0.9822,-0.9822,-0.9822,-0.9822,-0.9822,-0.9822,-0.9822,-0.9822,-0.9822,-0.9822,-0.9822,-0.9822,-0.9822,-0.9822,-0.9822,-0.9822,-0.9822,-0.9822,-0.9822,-0.9822,-0.9822,-0.9822,-0.9822,-0.9822,-0.97,-0.8404,-0.6691,-0.4732,-0.3507,-0.1725,0.0,-3.123,-3.1035,-3.0898,-3.0898,-3.0898,-3.0898,-3.0898,-3.0216,-2.9098,-2.7374,-2.5802,-2.4224,-2.2466,-2.1601,-2.1109,-2.1109,-2.1109,-2.1109,-2.1109,-2.1109,-2.1109,-2.1109,-2.1109,-2.1109,-2.1109,-2.1109,-2.1109,-2.1109,-2.1109,-2.1109,-2.1109,-2.1109,-2.1109,-2.1109,-2.1109,-2.1109,-2.1109,-2.1109,-2.1109,-2.1109,-2.1109,-2.1109,-2.1109,-2.1109,-2.1109,-2.1109,-2.1109,-2.1109,-2.1109,-2.1109,-2.1109,-2.1109,-2.1109,-2.1109,-2.1109,-2.1109,-2.1002,-2.0882,-2.0882,-2.0188,-1.9212,-1.8321,-1.6695,-1.4589,-1.18,-1.0411,-0.9822,-0.9822,-0.9822,-0.9822,-0.9822,-0.9822,-0.9822,-0.9822,-0.9822,-0.9822,-0.9822,-0.9822,-0.9822,-0.9822,-0.9822,-0.9822,-0.9822,-0.9822,-0.9822,-0.9822,-0.9822,-0.9822,-0.9822,-0.9822,-0.9822,-0.9822,-0.9822,-0.9822,-0.9822,-0.9822,-0.9822,-0.9822,-0.9822,-0.9822,-0.9822,-0.9822,-0.9822,-0.9822,-0.9822,-0.9822,-0.9822,-0.9822,-0.9822,-0.9633,-0.8033,-0.6381,-0.4732,-0.3077,-0.1417,0.0,-3.1543,-3.123,-3.0976,-3.0898,-3.0898,-3.0898,-3.0898,-2.9707,-2.8605,-2.8051,-2.5696,-2.3822,-2.3201,-2.1915,-2.1109,-2.1109,-2.1109,-2.1109,-2.1109,-2.1109,-2.1109,-2.1109,-2.1109,-2.1109,-2.1109,-2.1109,-2.1109,-2.1109,-2.1109,-2.1109,-2.1109,-2.1109,-2.1109,-2.1109,-2.1109,-2.1109,-2.1109,-2.1109,-2.1109,-2.1109,-2.1109,-2.1109,-2.1109,-2.1109,-2.1109,-2.1109,-2.1109,-2.1109,-2.1109,-2.1109,-2.1109,-2.1109,-2.1109,-2.1109,-2.1109,-2.1109,-2.1109,-2.1109,-2.1109,-2.1109,-2.0727,-1.9199,-1.8524,-1.7372,-1.3942,-1.1648,-1.0264,-0.9958,-0.9876,-0.9863,-0.9863,-0.9836,-0.9822,-0.9822,-0.9822,-0.9822,-0.9822,-0.9822,-0.9822,-0.9822,-0.9822,-0.9822,-0.9822,-0.9822,-0.9822,-0.9822,-0.9822,-0.9822,-0.9822,-0.9822,-0.9822,-0.9822,-0.9822,-0.9822,-0.9822,-0.9822,-0.9822,-0.9822,-0.9822,-0.9822,-0.9822,-0.9822,-0.9822,-0.9822,-0.9822,-0.9822,-0.9822,-0.9822,-0.9822,-0.964,-0.7728,-0.6137,-0.4671,-0.277,-0.1171,0.0,-3.166,-3.1465,-3.1328,-3.0957,-3.0898,-3.0898,-3.0898,-3.0704,-2.953,-2.6712,-2.5924,-2.4578,-2.1727,-2.1235,-2.1109,-2.1109,-2.1109,-2.1109,-2.1109,-2.1109,-2.1109,-2.1109,-2.1109,-2.1109,-2.1109,-2.1109,-2.1109,-2.1109,-2.1109,-2.1109,-2.1109,-2.1109,-2.1109,-2.1109,-2.1109,-2.1109,-2.1109,-2.1109,-2.1109,-2.1109,-2.1109,-2.1109,-2.1109,-2.1109,-2.1109,-2.1109,-2.1109,-2.1109,-2.1109,-2.1109,-2.1109,-2.1109,-2.1109,-2.1109,-2.1109,-2.1109,-2.1109,-2.1109,-2.1109,-2.1109,-2.1032,-2.0803,-1.95,-1.7776,-1.5751,-1.3824,-1.2081,-1.0531,-1.0114,-0.9957,-0.9957,-0.9849,-0.9822,-0.9822,-0.9822,-0.9822,-0.9822,-0.9822,-0.9822,-0.9822,-0.9822,-0.9822,-0.9822,-0.9822,-0.9822,-0.9822,-0.9822,-0.9822,-0.9822,-0.9822,-0.9822,-0.9822,-0.9822,-0.9822,-0.9822,-0.9822,-0.9822,-0.9822,-0.9822,-0.9822,-0.9822,-0.9822,-0.9822,-0.9822,-0.9822,-0.9822,-0.9822,-0.9822,-0.9822,-0.9511,-0.6446,-0.51,-0.4548,-0.1479,-0.0185,0.0,-3.2305,-3.2051,-3.1738,-3.1309,-3.125,-3.1172,-3.0918,-3.0079,-2.8979,-2.7512,-2.5802,-2.4116,-2.2654,-2.1664,-2.1109,-2.1109,-2.1109,-2.1109,-2.1109,-2.1109,-2.1109,-2.1109,-2.1109,-2.1109,-2.1109,-2.1109,-2.1109,-2.1109,-2.1109,-2.1109,-2.1109,-2.1109,-2.1109,-2.1109,-2.1109,-2.1109,-2.1109,-2.1109,-2.1109,-2.1109,-2.1109,-2.1109,-2.1109,-2.1109,-2.1109,-2.1109,-2.1109,-2.1109,-2.1109,-2.1109,-2.1109,-2.1109,-2.1109,-2.1109,-2.1109,-2.1109,-2.1109,-2.1109,-2.1109,-2.1109,-2.1109,-2.1109,-2.0498,-1.9424,-1.7689,-1.5882,-1.3788,-1.0877,-1.0222,-1.0181,-1.0181,-1.012,-1.008,-1.008,-1.0005,-0.9978,-1.0066,-1.0005,-0.9889,-0.9889,-0.9876,-0.9822,-0.9822,-0.9822,-0.9822,-0.9822,-0.9822,-0.9822,-0.9822,-0.9822,-0.9822,-0.9822,-0.9822,-0.9822,-0.9822,-0.9822,-0.9822,-0.9822,-0.9822,-0.9822,-0.9822,-0.9822,-0.9822,-0.9822,-0.9822,-0.9822,-0.9822,-0.9822,-0.9268,-0.8221,-0.5835,-0.3751,-0.1971,-0.0555,0.0,0.0]},{"header":{"parameterUnit":"m.s-1","parameterCategory":1,"la1":30.6,"la2":28.766,"lo1":-90.7593,"lo2":-88.6598,"dx":0.0162,"dy":0.0183,"nx":116,"ny":114,"refTime":"2023-01-04T18:00:00:Z","depth":0,"parameterNumber":3,"parameterNumberName":"V-component_of_WINDS"},"data":[0.0,0.0,0.0,0.0,0.0,0.0,0.0,0.0,0.0,0.0,0.0,0.0,0.0,0.0,0.0,0.0,0.0,0.0,0.0,0.0,0.0,0.0,0.0,0.0,0.0,0.0,0.0,0.0,0.0,0.0,0.0,0.0,0.0,0.0,0.0,0.0,0.0,0.0,0.0,0.0,0.0,0.0,0.0,0.0,0.0,0.0,0.0,0.0,0.0,0.0,0.0,0.0,0.0,0.0,0.0,0.0,0.0,0.0,0.0,0.0,0.0,0.0,0.0,0.0,0.0,0.0,0.0,0.0,0.0,0.0,0.0,0.0,0.0,0.0,0.0,0.0,0.0,0.0,0.0,0.0,0.0,0.0,0.0,0.0,0.0,0.0,0.0,0.0,0.0,0.0,0.0,0.0,0.0,0.0,0.0,0.0,0.0,0.0,0.0,0.0,0.0,0.0,0.0,0.0,0.0,0.0,0.0,0.0,0.0,0.0,0.0,0.0,0.0,0.0,0.0,0.0,0.0,0.0,0.0,0.0,0.0,0.0,0.0,0.0,0.0,0.0,0.0,0.0,0.0,0.0,0.0,0.0,0.0,0.0,0.0,0.0,0.0,0.0,0.0,0.0,0.0,0.0,0.0,0.0,0.0,0.0,0.0,0.0,0.0,0.0,0.0,0.0,0.0,0.0,0.0,0.0,0.0,0.0,0.0,0.0,0.0,0.0,0.0,0.0,0.0,0.0,0.0,0.0,0.0,0.0,0.0,0.0,0.0,0.0,0.0,0.0,0.0,0.0,0.0,0.0,0.0,0.0,0.0,0.0,0.0,0.0,0.0,0.0,0.0,0.0,0.0,0.0,0.0,0.0,0.0,0.0,0.0,0.0,0.0,0.0,0.0,0.0,0.0,0.0,0.0,0.0,0.0,0.0,0.0,0.0,0.0,0.0,0.0,0.0,0.0,0.0,0.0,0.0,0.0,0.0,0.0,0.0,0.0,0.0,0.0,0.0,0.0,0.0,0.0,0.0,0.0,0.0,0.0,0.0,0.0,0.0,0.0,0.0,0.0,0.0,0.0,0.0,0.0,0.0,0.0,0.0,0.0,0.0,0.0,0.0,0.0,0.0,0.0,0.0,0.0,0.0,0.0,0.0,0.0,0.0,0.0,0.0,0.0,0.0,0.0,0.0,0.0,0.0,0.0,0.0,0.0,0.0,0.0,0.0,0.0,0.0,0.0,0.0,0.0,0.0,0.0,0.0,0.0,0.0,0.0,0.0,0.0,0.0,0.0,0.0,0.0,0.0,0.0,0.0,0.0,0.0,0.0,0.0,0.0,0.0,0.0,0.0,0.0,0.0,0.0,0.0,0.0,0.0,0.0,0.0,0.0,0.0,0.0,0.0,0.0,0.0,0.0,0.0,0.0,0.0,0.0,0.0,0.0,0.0,0.0,0.0,0.0,0.0,0.0,0.0,0.0,0.0,0.0,0.0,0.0,0.0,0.0,0.0,0.0,0.0,0.0,0.0,0.0,0.0,0.0,0.0,0.0,0.0,0.0,0.0,0.0,0.0,0.0,0.0,0.0,0.0,0.0,0.0,0.0,0.0,0.0,0.0,0.0,0.0,0.0,0.0,0.0,0.0,0.0,0.0,0.0,0.0,0.0,0.0,0.0,0.0,0.0,0.0,0.0,0.0,0.0,0.0,0.0,0.0,0.0,0.0,0.0,0.0,0.0,0.0,0.0,0.0,0.0,0.0,0.0,0.0,0.0,0.0,0.0,0.0,0.0,0.0,0.0,0.0,0.0,0.0,0.0,0.0,0.0,0.0,0.0,0.0,0.0,0.0,0.0,0.0,0.0,0.0,0.0,0.0,0.0,0.0,0.0,0.0,0.0,0.0,0.0,0.0,0.0,0.0,0.0,0.0,0.0,0.0,0.0,0.0,0.0,0.0,0.0,0.0,0.0,0.0,0.0,0.0,0.0,0.0,0.0,0.0,0.0,0.0,0.0,0.0,0.0,0.0,0.0,0.0,0.0,0.0,0.0,0.0,0.0,0.0,0.0,0.0,0.0,0.0,0.0,0.0,0.0,0.0,0.0,0.0,0.0,0.0,0.0,0.0,0.0,0.0,0.0,0.0,0.0,0.0,0.0,0.0,0.0,0.0,0.0,0.0,0.0,0.0,0.0,0.0,0.0,0.0,0.0,0.0,0.0,0.0,0.0,0.0,0.0,0.0,0.0,0.0,0.0,0.0,0.0,0.0,0.0,0.0,0.0,0.0,0.0,0.0,0.0,0.0,0.0,0.0,0.0,0.0,0.0,0.0,0.0,0.0,0.0,0.0,0.0,0.0,0.0,0.0,0.0,0.0,0.0,0.0,0.0,0.0,0.0,0.0,0.0,0.0,0.0,0.0,0.0,0.0,0.0,0.0,0.0,0.0,0.0,0.0,0.0,0.0,0.0,0.0,0.0,0.0,0.0,0.0,0.0,0.0,0.0,0.0,0.0,0.0,0.0,0.0,0.0,0.0,0.0,0.0,0.0,0.0,0.0,0.0,0.0,0.0,0.0,0.0,0.0,0.0,0.0,0.0,0.0,0.0,0.0,0.0,0.0,0.0,0.0,0.0,0.0,0.0,0.0,0.0,0.0,0.0,0.0,0.0,0.0,0.0,0.0,0.0,0.0,0.0,0.0,0.0,0.0,0.0,0.0,0.0,0.0,0.0,0.0,0.0,0.0,0.0,0.0,0.0,0.0,0.0,0.0,0.0,0.0,0.0,0.0,0.0,0.0,0.0,0.0,0.0,0.0,0.0,0.0,0.0,0.0,0.0,0.0,0.0,0.0,0.0,0.0,0.0,0.0,0.0,0.0,0.0,0.0,0.0,0.0,0.0,0.0,0.0,0.0,0.0,0.0,0.0,0.0,0.0,0.0,0.0,0.0,0.0,0.0,0.0,0.0,0.0,0.0,0.0,0.0,0.0,0.0,0.0,0.0,0.0,0.0,0.0,0.0,0.0,0.0,0.0,0.0,0.0,0.0,0.0,0.0,0.0,0.0,0.0,0.0,0.0,0.0,0.0,0.0,0.0,0.0,0.0,0.0,0.0,0.0,0.0,0.0,0.0,0.0,0.0,0.0,0.0,0.0,0.0,0.0,0.0,0.0,0.0,0.0,0.0,0.0,0.0,0.0,0.0,0.0,0.0,0.0,0.0,0.0,0.0,0.0,0.0,0.0,0.0,0.0,0.0,0.0,0.0,0.0,0.0,0.0,0.0,0.0,0.0,0.0,0.0,0.0,0.0,0.0,0.0,0.0,0.0,0.0,0.0,0.0,0.0,0.0,0.0,0.0,0.0,0.0,0.0,0.0,0.0,0.0,0.0,0.0,0.0,0.0,0.0,0.0,0.0,0.0,0.0,0.0,0.0,0.0,0.0,0.0,0.0,0.0,0.0,0.0,0.0,0.0,0.0,0.0,0.0,0.0,0.0,0.0,0.0,0.0,0.0,0.0,0.0,0.0,0.0,0.0,0.0,0.0,0.0,0.0,0.0,0.0,0.0,0.0,0.0,0.0,0.0,0.0,0.0,0.0,0.0,0.0,0.0,0.0,0.0,0.0,0.0,0.0,0.0,0.0,0.0,0.0,0.0,0.0,0.0,0.0,0.0,0.0,0.0,0.0,0.0,0.0,0.0,0.0,0.0,0.0,0.0,0.0,0.0,0.0,0.0,0.0,0.0,0.0,0.0,0.0,0.0,0.0,0.0,0.0,0.0,0.0,0.0,0.0,0.0,0.0,0.0,0.0,0.0,0.0,0.0,0.0,0.0,0.0,0.0,0.0,0.0,0.0,0.0,0.0,0.0,0.0,0.0,0.0,0.0,0.0,0.0,0.0,0.0,0.0,0.0,0.0,0.0,0.0,0.0,0.0,0.0,0.0,0.0,0.0,0.0,0.0,0.0,0.0,0.0,0.0,0.0,0.0,0.0,0.0,0.0,0.0,0.0,0.0,0.0,0.0,0.0,0.0,0.0,0.0,0.0,0.0,0.0,0.0,0.0,0.0,0.0,0.0,0.0,0.0,0.0,0.0,0.0,0.0,0.0,0.0,0.0,0.0,0.0,0.0,0.0,0.0,0.0,0.0,0.0,0.0,0.0,0.0,0.0,0.0,0.0,0.0,0.0,0.0,0.0,0.0,0.0,0.0,0.0,0.0,0.0,0.0,0.0,0.0,0.0,0.0,0.0,0.0,0.0,0.0,0.0,0.0,0.0,0.0,0.0,0.0,0.0,0.0,0.0,0.0,0.0,0.0,0.0,0.0,0.0,0.0,0.0,0.0,0.0,0.0,0.0,0.0,0.0,0.0,0.0,0.0,0.0,0.0,0.0,0.0,0.0,0.0,0.0,0.0,0.0,0.0,0.0,0.0,0.0,0.0,0.0,0.0,0.0,0.0,0.0,0.0,0.0,0.0,0.0,0.0,0.0,0.0,0.0,0.0,0.0,0.0,0.0,0.0,0.0,0.0,0.0,0.0,0.0,0.0,0.0,0.0,0.0,0.0,0.0,0.0,0.0,0.0,0.0,0.0,0.0,0.0,0.0,0.0,0.0,0.0,0.0,0.0,0.0,0.0,0.0,0.0,0.0,0.0,0.0,0.0,0.0,0.0,0.0,0.0,0.0,0.0,0.0,0.0,0.0,0.0,0.0,0.0,0.0,0.0,0.0,0.0,0.0,0.0,0.0,0.0,0.0,0.0,0.0,0.0,0.0,0.0,0.0,0.0,0.0,0.0,0.0,0.0,0.0,0.0,0.0,0.0,0.0,0.0,0.0,0.0,0.0,0.0,0.0,0.0,0.0,0.0,0.0,0.0,0.0,0.0,0.0,0.0,0.0,0.0,0.0,0.0,0.0,0.0,0.0,0.0,0.0,0.0,0.0,0.0,0.0,0.0,0.0,0.0,0.0,0.0,0.0,0.0,0.0,0.0,0.0,0.0,0.0,0.0,0.0,0.0,0.0,0.0,0.0,0.0,0.0,0.0,0.0,0.0,0.0,0.0,0.0,0.0,0.0,0.0,0.0,0.0,0.0,0.0,0.0,0.0,0.0,0.0,0.0,0.0,0.0,0.0,0.0,0.0,0.0,0.0,0.0,0.0,0.0,0.0,0.0,0.0,0.0,0.0,0.0,0.0,0.0,0.0,0.0,0.0,0.0,0.0,0.0,0.0,0.0,0.0,0.0,0.0,0.0,0.0,0.0,0.0,0.0,0.0,0.0,0.0,0.0,0.0,0.0,0.0,0.0,0.0,0.0,0.0,0.0,0.0,0.0,0.0,0.0,0.0,0.0,0.0,0.0,0.0,0.0,0.0,0.0,0.0,0.0,0.0,0.0,0.0,0.0,0.0,0.0,0.0,0.0,0.0,0.0,0.0,0.0,0.0,0.0,0.0,0.0,0.0,0.0,0.0,0.0,0.0,0.0,0.0,0.0,0.0,0.0,0.0,0.0,0.0,0.0,0.0,0.0,0.0,0.0,0.0,0.0,0.0,0.0,0.0,0.0,0.0,0.0,0.0,0.0,0.0,0.0,0.0,0.0,0.0,0.0,0.0,0.0,0.0,0.0,0.0,0.0,0.0,0.0,0.0,0.0,0.0,0.0,0.0,0.0,0.0,0.0,0.0,0.0,0.0,0.0,0.0,0.0,0.0,0.0,0.0,0.0,0.0,0.0,0.0,0.0,0.0,0.0,0.0,0.0,0.0,0.0,0.0,0.0,0.0,0.0,0.0,0.0,0.0,0.0,0.0,0.0,0.0,0.0,0.0,0.0,0.0,0.0,0.0,0.0,0.0,0.0,0.0,0.0,0.0,0.0,0.0,0.0,0.0,0.0,0.0,0.0,0.0,0.0,0.0,0.0,0.0,0.0,0.0,0.0,0.0,0.0,0.0,0.0,0.0,0.0,0.0,0.0,0.0,0.0,0.0,0.0,0.0,0.0,0.0,0.0,0.0,0.0,0.0,0.0,0.0,0.0,0.0,0.0,0.0,0.0,0.0,0.0,0.0,0.0,0.0,0.0,0.0,0.0,0.0,0.0,0.0,0.0,0.0,0.0,0.0,0.0,0.0,0.0,0.0,0.0,1.3005,1.102,0.0,0.0,0.0,0.0,0.0,0.0,0.0,0.0,0.0,0.0,0.0,0.0,0.0,0.0,0.0,0.0,0.0,0.0,0.0,0.0,0.0,0.0,0.0,0.0,0.0,0.0,0.0,0.0,0.0,0.0,0.0,0.0,0.0,0.0,0.0,0.0,0.784,0.8789,0.9088,1.0623,1.3166,1.1461,1.0144,0.9187,0.0,0.0,0.0,0.0,0.0,0.0,0.0,0.0,0.0,0.0,0.0,0.0,0.0,0.0,0.0,0.0,0.0,0.0,0.0,0.0,0.0,0.0,0.0,0.0,0.0,0.0,0.0,0.0,0.0,0.0,0.0,0.0,0.0,0.0,0.0,0.0,0.0,0.0,0.0,0.0,0.0,0.0,0.0,0.0,0.0,0.0,0.0,0.0,0.0,0.0,0.0,0.0,0.0,0.0,0.0,0.0,0.0,0.0,0.0,0.0,0.0,0.0,0.0,0.0,0.0,0.0,0.0,0.0,0.0,0.0,1.4257,1.3155,0.0,0.0,0.0,0.0,0.0,0.0,0.0,0.0,0.0,0.0,0.0,0.0,0.0,0.0,0.0,0.0,0.0,0.0,0.0,0.0,0.0,0.0,0.0,0.8798,0.9075,0.8727,0.9037,0.8993,0.0,0.0,0.0,0.0,0.0,0.0,0.0,0.8124,0.9127,1.0962,1.2437,1.4376,1.6668,1.6773,1.5948,1.4257,1.195,0.0,0.0,0.0,0.0,0.0,0.0,0.0,0.0,0.0,0.0,0.0,0.0,0.0,0.0,0.0,0.0,0.0,0.0,0.0,0.0,0.0,0.0,0.0,0.0,0.0,0.0,0.0,0.0,0.0,0.0,0.0,0.0,0.0,0.0,0.0,0.0,0.0,0.0,0.0,0.0,0.0,0.0,0.0,0.0,0.0,0.0,0.0,0.0,0.0,0.0,0.0,0.0,0.0,0.0,0.0,0.0,0.0,0.0,0.0,0.0,0.0,0.0,0.0,1.4828,1.4948,1.4842,1.4842,1.5739,1.724,1.5629,1.5755,1.6872,1.3848,0.0,0.0,0.0,0.0,0.0,0.0,0.0,0.0,0.0,0.0,0.0,0.0,0.0,0.0,0.0,0.0,0.0,0.0,0.0,0.8898,0.9238,1.0032,1.0901,1.1813,1.1088,1.0523,1.0424,0.0,0.0,0.0,0.0,0.0,0.7914,0.9045,1.0294,1.167,1.6353,1.9121,2.006,2.0647,2.0767,2.0367,1.6653,1.4599,1.3718,0.0,0.0,0.0,0.0,0.0,0.0,0.0,0.0,0.0,0.0,0.0,0.0,0.0,0.0,0.0,0.0,0.0,0.0,0.0,0.0,0.0,0.0,0.0,0.0,0.0,0.0,0.0,0.0,0.0,0.0,0.0,0.0,0.0,0.0,0.0,0.0,0.0,0.0,0.0,0.0,0.0,1.3453,1.3513,0.0,0.0,0.0,0.0,0.0,0.0,0.0,0.0,0.0,0.0,0.0,0.0,0.0,1.4766,1.5529,1.7206,1.7758,1.722,1.8954,1.948,1.8929,1.8929,1.9256,1.9812,1.9534,0.0,1.7515,1.7442,0.0,0.0,0.0,0.0,0.0,0.0,0.0,0.0,0.0,0.0,0.0,0.0,0.0,0.0,0.0,0.0,0.0,0.0,0.0,0.0,0.0,1.2104,1.2926,1.3727,1.3681,1.3002,1.1502,1.0868,0.0,0.0,0.0,0.8244,0.9015,1.0294,1.2688,1.6233,1.9708,2.1714,2.2353,2.2622,2.2772,2.2682,2.0966,1.8792,1.6323,1.4785,0.0,0.0,0.0,0.0,0.0,0.0,0.0,0.0,0.0,0.0,0.0,0.0,0.0,0.0,0.0,0.0,0.0,0.0,0.0,0.0,0.0,0.0,0.0,0.0,0.0,0.0,0.0,0.0,0.0,0.0,0.0,0.0,0.0,0.0,0.0,0.0,0.0,0.0,0.0,1.3244,1.4201,1.5293,1.3961,1.2497,0.0,0.0,0.0,0.0,0.0,0.0,0.0,0.0,0.0,1.7491,1.7551,1.806,1.9109,1.9959,2.0228,1.9959,2.1098,2.1491,2.1222,2.153,2.1747,2.1921,2.1921,2.1614,2.0997,1.9105,1.7449,1.6033,0.0,0.0,0.0,0.0,1.398,1.3971,0.0,0.0,0.0,0.0,0.0,0.0,0.0,0.0,0.0,0.0,0.0,0.0,1.3333,1.4287,1.5087,1.5976,1.6358,1.5722,1.377,1.2641,1.1321,0.9722,0.8702,0.8784,1.0114,1.2388,1.574,2.0217,2.2224,2.34,2.3879,2.3879,2.3879,2.3849,2.367,2.1874,1.8894,1.7891,1.5562,1.2455,0.0,0.0,0.0,0.0,0.0,0.0,0.0,0.0,0.0,0.0,0.0,0.0,0.0,0.0,0.0,0.0,0.0,0.0,0.0,0.0,0.0,0.0,0.0,0.0,0.0,0.0,0.0,0.0,0.0,0.0,0.0,0.0,0.0,0.0,0.0,0.0,0.0,1.447,1.5397,1.7025,1.5935,1.453,0.0,0.0,0.0,0.0,0.0,0.0,1.7413,1.7623,1.8506,2.0157,2.0217,2.0696,2.1695,2.1874,2.1874,2.1695,2.2247,2.2409,2.2224,2.2749,2.3053,2.319,2.333,2.3652,2.3816,2.0935,1.9556,1.9167,1.7614,1.6779,1.6542,1.7264,1.7185,1.7117,0.0,0.0,0.0,0.0,0.0,0.0,0.0,0.0,0.0,0.0,0.0,1.2852,1.5373,1.632,1.7466,1.9303,1.8895,1.8502,1.8352,1.4842,1.243,1.17,0.9863,0.9443,1.0723,1.577,1.942,2.1605,2.3528,2.4515,2.4545,2.4545,2.4545,2.4515,2.3857,2.3161,2.2313,2.0367,1.8702,1.6965,1.2575,0.0,0.0,0.0,0.0,0.0,0.0,0.0,0.0,0.0,0.0,0.0,0.0,0.0,0.0,0.0,0.0,0.0,0.0,0.0,0.0,0.0,0.0,0.0,0.0,0.0,0.0,0.0,0.0,0.0,0.0,0.0,0.0,0.0,0.0,0.0,0.0,0.0,0.0,1.8506,1.8506,0.0,0.0,0.0,0.0,1.6532,1.7788,1.8852,1.9528,2.0168,2.0857,2.1575,2.1605,2.1635,2.1695,2.2343,2.2343,2.1695,2.2364,2.2354,2.1754,2.2205,2.2658,2.312,2.3635,2.408,2.4428,2.3833,2.3015,2.2015,2.1211,2.0006,1.8809,1.9575,1.9799,2.0002,0.0,0.0,0.0,0.898,0.8342,0.7914,0.7914,0.8844,0.9854,1.0693,1.2992,1.5379,1.7428,1.876,1.9873,2.0907,2.1169,2.0567,1.8877,1.6582,1.5203,1.4964,1.2688,1.3208,1.7101,2.0258,2.2622,2.4208,2.4903,2.5232,2.5232,2.5232,2.5232,2.5202,2.4545,2.4126,2.3849,2.2682,2.0946,1.8852,1.7176,1.4094,0.0,0.0,0.0,0.0,0.0,0.0,0.0,0.0,0.0,0.0,0.0,0.0,0.0,0.0,0.0,0.0,0.0,0.0,0.0,0.0,0.0,0.0,0.0,0.0,0.0,0.0,0.0,0.0,0.0,0.0,0.0,0.0,0.0,0.0,0.0,0.0,0.0,1.9869,1.9989,0.0,1.8117,1.9373,2.0019,1.9313,2.0868,2.1964,2.2203,2.2443,2.2682,2.2921,2.2921,2.2921,2.2921,2.3161,2.332,2.3447,2.4024,2.4378,2.4484,2.4958,2.5257,2.5445,2.5615,2.5798,2.5913,2.5782,2.4922,2.3695,2.3424,2.2984,2.2544,2.2801,2.2902,2.297,0.0,0.0,0.0,0.9623,0.8814,0.8304,0.8544,0.9486,1.0743,1.2299,1.4718,1.7158,1.945,2.0611,2.144,2.1983,2.262,2.2257,2.0522,1.8512,1.7384,1.7384,1.571,1.6862,2.1276,2.3071,2.4477,2.5615,2.5824,2.5944,2.5944,2.5944,2.5944,2.5914,2.5232,2.4814,2.4575,2.4126,2.2802,2.0936,2.0067,1.7326,1.3633,0.0,0.0,0.0,0.0,0.0,0.0,0.0,0.0,0.0,0.0,0.0,0.0,0.0,0.0,0.0,0.0,0.0,0.0,0.0,0.0,0.0,0.0,0.0,0.0,0.0,0.0,0.0,0.0,0.0,0.0,0.0,0.0,0.0,0.0,1.824,1.945,2.0569,2.1096,2.0946,1.9809,2.1306,2.2143,2.1705,2.2862,2.361,2.361,2.4006,2.4234,2.4234,2.4661,2.4881,2.4881,2.4881,2.5071,2.5424,2.5787,2.6121,2.6498,2.6978,2.7074,2.6839,2.6995,2.6928,2.6691,2.6691,2.6132,2.5218,2.4982,2.488,2.4846,2.4575,2.4508,2.4508,0.0,0.0,1.0812,1.0812,0.9764,0.9152,0.9794,1.0434,1.2048,1.5349,1.6498,1.8186,2.1355,2.186,2.2142,2.2659,2.3231,2.361,2.3588,2.0509,1.8732,1.8762,1.8882,2.0168,2.2763,2.4059,2.5023,2.5674,2.6303,2.6656,2.6656,2.6656,2.6656,2.6602,2.5944,2.5262,2.4664,2.4634,2.4216,2.34,2.0846,1.9768,1.9199,0.0,0.0,0.0,0.0,0.0,0.0,0.0,0.0,0.0,0.0,0.0,0.0,0.0,0.0,0.0,0.0,0.0,0.0,0.0,0.0,0.0,0.0,0.0,0.0,0.0,0.0,0.0,0.0,0.0,0.0,0.0,0.0,0.0,1.9648,1.9768,2.0019,2.0688,2.1934,2.2463,2.1814,2.2892,2.364,2.364,2.364,2.367,2.367,2.4826,2.5486,2.5486,2.6703,2.7345,2.7366,2.7366,2.7387,2.7407,2.7407,2.7428,2.7469,2.7984,2.7816,2.7189,2.7629,2.7418,2.6759,2.6759,2.6759,2.6691,2.5947,2.5626,2.5541,2.4846,2.4575,2.4575,1.179,1.1271,1.0812,1.0812,1.0144,0.9674,0.9875,1.1232,1.2939,1.4826,1.7333,1.9638,2.1484,2.2562,2.3032,2.274,2.3231,2.3406,2.2965,2.0744,1.963,2.012,2.2892,2.4777,2.5518,2.6357,2.6866,2.7046,2.7225,2.7315,2.7315,2.7315,2.7315,2.7315,2.6602,2.6213,2.6004,2.5023,2.4485,2.4216,2.3011,2.1395,1.9558,0.0,0.0,0.0,0.0,0.0,0.0,0.0,0.0,0.0,0.0,0.0,0.0,0.0,0.0,0.0,0.0,0.0,0.0,0.0,0.0,0.0,0.0,0.0,0.0,0.0,0.0,0.0,0.0,0.0,0.0,0.0,1.8751,2.021,2.0408,2.1246,2.2104,2.2742,2.3131,2.3281,2.3101,2.3827,2.4335,2.4335,2.4777,2.5046,2.5046,2.5386,2.5568,2.5568,2.5902,2.6279,2.6763,2.6763,2.7158,2.7984,2.7984,2.8193,2.8572,2.8703,2.8658,2.8489,2.8617,2.857,2.8367,2.8367,2.8367,2.8231,2.6894,2.6387,2.6353,2.6166,2.6099,2.6031,1.179,1.1491,1.1211,1.1211,1.0703,1.0383,1.0653,1.1891,1.3568,1.574,1.8164,2.0408,2.2293,2.3161,2.348,2.3098,2.3651,2.3636,2.2746,2.1604,2.1485,2.2691,2.4956,2.6422,2.7016,2.7405,2.7585,2.7585,2.7585,2.7585,2.7585,2.7585,2.7585,2.7585,2.7195,2.6866,2.6542,2.5764,2.5113,2.4575,2.4186,2.2951,2.1295,2.0756,1.9588,1.8167,1.7437,1.7165,1.7161,1.7097,0.0,0.0,0.0,0.0,0.0,0.0,0.0,0.0,0.0,0.0,0.0,0.0,0.0,0.0,0.0,0.0,0.0,0.0,0.0,0.0,0.0,0.0,0.0,0.0,2.1203,2.2726,2.2726,2.2928,2.331,2.3939,2.4007,2.4126,2.4418,2.4784,2.5023,2.5023,2.5382,2.5615,2.5615,2.6359,2.6778,2.6778,2.7551,2.8115,2.8456,2.8456,2.8821,2.9454,2.9454,2.9623,2.9924,2.9924,2.9754,2.9465,2.9465,2.9281,2.901,2.901,2.901,2.8908,0.0,0.0,0.0,0.0,2.6691,2.6623,1.179,1.179,1.179,1.179,1.1301,1.1121,1.17,1.243,1.4064,1.728,1.8882,2.0696,2.331,2.361,2.361,2.361,2.4276,2.4216,2.3092,2.3092,2.3901,2.5525,2.5764,2.6363,2.7555,2.7585,2.7585,2.7585,2.7585,2.7585,2.7585,2.7585,2.7585,2.7585,2.7585,2.7285,2.6692,2.6632,2.5884,2.4724,2.4634,2.4186,2.349,2.2323,2.1904,2.1704,2.017,1.9122,1.8483,1.8601,0.0,0.0,0.0,0.0,0.0,0.0,0.0,0.0,0.0,0.0,0.0,0.0,0.0,0.0,0.0,0.0,0.0,0.0,0.0,0.0,0.0,0.0,0.0,0.0,2.3692,2.5621,2.5621,2.4593,2.4081,2.4747,2.4739,2.4963,2.5555,2.5674,2.5728,2.5798,2.5858,2.5965,2.6005,2.7623,0.0,0.0,0.0,3.1052,3.1112,3.1112,3.1131,3.119,3.119,3.119,3.119,3.119,3.0852,3.0224,3.0224,2.9837,2.9247,2.9247,2.9247,2.9247,2.9077,2.8552,2.7858,2.7199,2.6962,2.6962,1.179,1.179,1.179,1.179,1.17,1.164,1.179,1.2837,1.4589,1.7324,1.8882,2.0696,2.331,2.361,2.361,2.361,2.4717,2.5315,2.5076,2.5555,2.5764,2.5615,2.6632,2.7345,2.7585,2.7585,2.7585,2.7585,2.7585,2.7585,2.7585,2.7585,2.7585,2.7585,2.7585,2.7525,2.7375,2.6836,2.6123,2.5352,2.4814,2.4186,2.358,2.334,2.3221,2.3191,2.2864,2.2879,2.3114,2.3134,2.2106,2.0782,2.0564,1.9097,0.0,0.0,0.0,0.0,0.0,0.0,0.0,0.0,0.0,0.0,0.0,0.0,0.0,0.0,0.0,0.0,0.0,0.0,0.0,2.4043,2.5425,2.6315,2.6315,2.5667,2.5439,2.6072,2.5697,2.5442,2.5585,2.6093,2.6602,2.7088,2.7635,2.8155,2.8632,2.9007,2.9214,2.9214,2.9565,2.9978,3.0477,3.0477,3.0736,3.119,3.119,0.0,3.119,3.119,3.1123,3.0987,3.0987,3.092,3.0751,3.0751,3.0751,3.0649,2.945,2.8908,2.8739,2.8604,2.857,2.857,1.179,1.179,1.179,1.179,1.179,1.179,1.179,1.2945,1.4619,1.6906,1.8373,2.0079,2.2383,2.2353,2.2143,2.2143,2.3071,2.4208,2.5501,2.5914,2.6243,2.6572,2.7255,2.7585,2.7585,2.7585,2.7585,2.7585,2.7585,2.7585,2.7585,2.7585,2.7585,2.7585,2.7585,2.7585,2.7585,2.7255,2.6692,2.6063,2.5734,2.5196,2.4537,2.3849,2.361,2.361,2.361,2.3773,2.4017,2.4307,2.3826,2.3098,2.3167,2.1908,1.9904,0.0,0.0,0.0,0.0,0.0,0.0,0.0,0.0,0.0,0.0,0.0,0.0,0.0,0.0,2.0479,2.1998,0.0,2.5212,2.5715,2.6725,2.7462,2.7462,2.7489,2.7242,2.6634,2.6558,2.6679,2.7022,2.7635,2.8124,2.8415,2.8761,2.9065,2.9384,2.9695,2.9848,2.9848,3.0128,3.0456,3.0757,3.0757,3.0898,3.119,3.119,3.119,3.119,3.119,3.119,3.119,3.119,3.119,3.119,3.119,3.119,3.1123,3.0398,2.9871,2.9499,2.9145,2.901,2.901,1.179,1.179,1.179,1.179,1.179,1.179,1.179,1.2837,1.432,1.6278,1.7579,1.9031,2.0917,2.0647,2.0449,2.0868,2.1395,2.2862,2.5615,2.5794,2.6333,2.7555,2.7585,2.7585,2.7585,2.7585,2.7585,2.7585,2.7585,2.7585,2.7585,2.7585,2.7585,2.7585,2.7585,2.7585,2.7585,2.7585,2.7225,2.6602,2.6602,2.6183,2.5495,2.4418,2.3909,2.3789,2.364,2.3674,2.3815,2.4246,2.4471,2.4652,2.5182,2.441,2.2833,2.0726,1.9744,0.0,0.0,0.0,0.0,0.0,0.0,0.0,0.0,1.866,1.9302,2.202,2.3079,2.3987,2.547,2.6607,2.7335,2.7263,2.8007,2.8651,2.8726,2.9111,2.8821,2.732,2.7581,2.8069,2.8615,2.9111,2.9451,2.9563,2.9563,2.9694,2.9955,3.029,3.0543,3.0675,3.1006,3.1258,3.1393,3.1393,3.1495,3.163,3.1461,3.1393,3.1413,3.1258,3.119,3.119,3.119,3.119,3.119,3.119,3.119,3.119,3.119,3.0852,3.0243,2.9653,2.9471,2.9563,1.179,1.179,1.179,1.179,1.179,1.179,1.179,1.243,1.3628,1.5634,1.6503,1.7443,1.8864,1.8972,1.966,2.1425,2.1665,2.3041,2.6273,2.6482,2.6811,2.7555,2.7585,2.7585,2.7585,2.7585,2.7585,2.7585,2.7585,2.7585,2.7585,2.7585,2.7585,2.7585,2.7585,2.7585,2.7585,2.7585,2.7225,2.6602,2.6602,2.6183,2.5561,2.5435,2.4993,2.4425,2.3819,2.3921,2.4307,2.4369,2.4732,2.5202,2.5742,2.5778,2.5257,2.3466,2.1995,2.0446,1.8053,1.7085,1.7222,1.9271,1.9711,2.0779,0.0,2.5017,2.447,2.6347,2.6804,2.7106,2.7891,2.8158,2.8597,2.9704,2.9556,2.9478,3.003,2.9674,2.9307,2.913,2.9143,2.922,2.9293,2.9361,2.9629,3.0149,3.0204,3.0721,3.192,3.1429,3.1415,3.2077,3.1509,3.1495,3.2158,3.2192,3.253,3.3152,3.2496,3.2192,3.2158,3.1515,3.119,3.119,3.119,3.119,3.119,3.119,3.119,3.119,3.119,3.1157,3.1055,3.0987,3.1174,3.1509,1.179,1.179,1.179,1.179,1.179,1.179,1.179,1.237,1.3238,1.4453,1.5201,1.5949,1.6922,1.6667,1.7086,1.8655,1.9869,2.1625,2.417,2.5758,2.6746,2.7016,2.7375,2.7585,2.7585,2.7585,2.7585,2.7585,2.7585,2.7585,2.7585,2.7585,2.7585,2.7585,2.7585,2.7585,2.7585,2.7585,2.7435,2.7195,2.7195,2.7016,2.6722,2.6333,2.5764,2.5069,2.4295,2.3907,0.0,2.4116,2.4366,2.4657,2.5319,2.5448,2.5056,2.39,2.335,2.3028,2.266,2.2228,2.2161,2.3357,2.4113,2.499,2.6607,2.6561,2.6564,2.8127,2.8486,2.8715,2.9391,2.9774,3.0092,3.0264,3.0086,3.0,3.0234,3.0446,3.0708,3.1064,3.147,3.144,3.0631,3.1276,3.1822,3.2089,3.211,3.2349,3.2916,3.2645,3.2611,3.2916,3.2645,3.2645,3.2949,3.2949,3.3085,3.3423,3.3085,3.2949,3.2916,3.2611,3.2476,3.2476,3.2476,3.2476,3.2442,3.2022,3.1998,3.2181,3.177,3.1749,3.1878,3.1389,3.1451,3.1789,1.179,1.179,1.179,1.179,1.179,1.179,1.179,1.222,1.2759,1.3436,1.3957,1.4436,1.4929,1.4376,1.4573,1.6039,1.7818,1.9869,2.2283,2.453,2.5944,2.6303,2.6986,2.7315,2.7315,2.7495,2.7585,2.7585,2.7585,2.7585,2.7585,2.7585,2.7585,2.7585,2.7585,2.7495,2.7315,2.7315,2.7225,2.7046,2.7046,2.7046,2.7016,2.6512,2.5745,2.4859,2.4223,2.3648,2.3198,2.3127,2.3456,2.3967,2.4294,2.4555,2.4663,2.4332,2.4342,2.4615,2.5146,2.543,2.573,2.6363,2.7458,2.8331,2.801,2.8095,2.8519,2.953,2.9782,2.9949,3.046,3.0777,3.0858,3.058,3.0414,3.0438,3.0784,3.129,3.1892,3.2523,3.3254,3.3308,3.2352,3.2954,3.3423,3.3423,3.3423,3.3491,3.3694,3.3525,3.3491,3.3694,3.3525,3.3491,3.3694,3.3694,3.3829,3.3977,3.3795,3.3694,3.3694,3.3491,3.3423,3.3423,3.3423,3.3423,3.3355,3.2814,3.2901,3.3263,3.2762,3.2774,3.3069,3.2187,3.2015,3.2196,1.179,1.179,1.179,1.179,1.179,1.179,1.179,1.182,1.2059,1.2729,1.2861,1.2861,1.2891,1.231,1.2688,1.4663,1.6039,1.819,2.1515,2.2951,2.4268,2.5561,2.6273,2.6656,2.6656,2.7255,2.7585,2.7585,2.7585,2.7585,2.7585,2.7585,2.7585,2.7585,2.7585,2.7255,2.6656,2.6656,2.6243,2.5674,2.5674,2.5674,2.5674,2.5644,2.464,2.3263,2.3253,2.3141,2.2741,2.1079,2.1823,2.3298,2.2623,2.3346,2.4661,2.5356,2.5067,2.4338,2.3665,2.4511,2.5931,2.7401,2.8906,3.0209,3.092,3.1089,3.1069,3.1137,3.1137,3.1137,3.1171,3.0716,3.0518,3.1092,3.0662,3.075,3.2056,3.2273,3.2544,3.3288,3.4032,3.4438,3.4416,3.3774,3.3423,3.3423,3.3423,3.3728,3.4438,3.3795,3.3728,3.4438,3.3761,3.3728,3.4438,3.4472,3.4844,3.5532,3.481,3.4472,3.4438,3.3728,3.3423,3.3423,3.3423,3.3423,3.3423,3.3389,3.3686,3.4168,3.4133,3.4403,3.4711,3.3897,3.3437,3.3151,1.3124,1.2777,1.246,1.246,1.21,1.179,1.179,1.179,1.188,1.213,1.213,0.0,0.0,0.0,0.0,0.0,1.5351,1.7116,1.954,2.1774,2.337,2.4238,2.5345,2.5944,2.5944,2.6572,2.6716,2.6273,2.6716,2.6956,2.6956,2.6956,2.7165,2.7585,2.7136,2.6836,2.6572,2.6123,2.5824,2.5615,2.5615,2.5615,2.5691,2.6527,2.4911,2.2232,0.0,2.1661,2.0252,2.018,2.0512,2.1088,2.2001,2.2293,2.2341,2.2612,2.3883,2.527,2.5507,2.6691,2.8213,2.9702,3.0446,3.0886,3.1123,3.119,3.119,3.119,3.0818,3.0615,3.1089,3.0628,3.0535,3.1745,3.1759,3.1954,3.2895,3.3457,3.3829,3.41,3.4776,3.525,3.525,3.4991,3.4856,3.4856,3.4856,3.4957,3.5194,3.4991,3.4957,3.5194,3.4991,3.4957,3.525,3.525,3.5329,3.56,3.5329,3.525,3.5194,3.4957,3.4856,3.4856,3.4856,3.4856,3.4822,3.4336,3.461,3.5268,3.4778,3.5114,3.5784,3.5529,3.5351,3.506,1.3812,1.3466,1.3089,1.2849,1.243,0.0,0.0,0.0,0.0,0.0,0.0,0.0,0.0,0.0,0.0,0.0,0.0,1.5814,1.7535,1.969,2.1306,2.2173,2.3041,2.3729,2.4208,2.4388,2.4627,2.4896,2.5315,2.5764,2.6243,2.6243,2.6452,2.6866,2.6422,2.6123,2.5854,2.5435,2.522,2.513,2.4609,2.4334,2.4282,2.4575,2.2747,0.0,2.0107,1.887,1.7279,1.7846,1.8466,1.9232,2.0347,2.1278,2.2037,2.2307,2.3917,2.5879,2.7165,2.8265,2.9348,3.0818,3.119,3.119,3.119,3.119,3.119,3.119,3.0412,2.9939,3.0683,3.0412,3.0514,3.1718,3.2564,3.3275,3.3728,3.4438,3.4878,3.4878,3.5295,3.56,3.56,3.56,3.56,3.56,3.56,3.56,3.56,3.56,3.56,3.56,3.56,3.56,3.56,3.56,3.56,3.56,3.56,3.56,3.56,3.56,3.56,3.56,3.56,3.56,3.5588,3.53,3.5654,3.634,3.6025,3.641,3.711,3.6817,3.6721,3.6494,1.3902,1.3872,1.3645,0.0,0.0,0.0,0.0,0.0,0.0,0.0,0.0,0.0,0.0,0.0,0.0,0.0,0.0,0.0,1.5619,1.6907,1.8207,1.9558,1.9618,2.0277,2.1575,2.1006,2.1605,2.34,2.343,2.4118,2.5345,2.5345,2.5375,2.5405,2.5428,2.5076,2.4455,2.4477,2.4355,2.4059,2.2667,2.1903,2.1477,2.0146,1.852,1.6852,1.624,1.5179,1.4135,1.4497,1.6126,1.8053,1.8121,2.0602,2.3646,2.4338,2.5135,2.6251,2.84,2.9044,2.945,3.0852,3.119,3.119,3.119,3.119,3.119,3.1089,2.9958,2.9145,2.977,2.9973,3.0311,3.1021,3.3017,3.4506,3.4539,3.5182,3.56,3.56,3.56,3.56,3.56,3.56,3.56,3.56,3.56,3.56,3.56,3.56,3.56,3.56,3.56,3.56,3.56,3.56,3.56,3.56,3.56,3.56,3.56,3.56,3.5622,3.5644,3.5644,3.5667,3.57,3.6228,3.6746,3.7267,3.772,3.8234,3.8615,3.786,3.7566,3.7456,0.0,0.0,0.0,0.0,0.0,0.0,0.0,0.0,0.0,0.0,0.0,0.0,0.0,0.0,0.0,0.0,0.0,0.0,1.4244,1.5545,1.6862,1.8147,1.8702,1.9361,2.0187,2.0528,2.0707,2.0696,2.1186,2.1615,2.1944,2.1944,2.2233,2.2703,2.3021,2.2889,2.2463,2.2778,2.2233,2.1167,2.0793,2.0124,1.9405,1.9976,1.8428,1.6075,1.6994,1.592,1.4311,1.5661,1.8369,2.1333,2.2443,2.3816,2.5101,2.527,2.6657,2.8265,2.884,2.9788,3.0717,3.1089,3.119,3.119,3.119,3.119,3.0886,2.9788,2.8789,2.7824,2.6928,2.8146,2.9499,3.0277,3.2713,3.4675,3.525,3.5464,3.56,3.56,3.56,3.56,3.56,3.56,3.56,3.56,3.56,3.56,3.56,3.56,3.56,3.56,3.56,3.56,3.56,3.56,3.56,3.56,3.56,3.56,3.56,3.56,3.581,3.622,3.622,3.6437,3.6805,3.6923,3.7285,3.7737,3.7842,3.8234,3.8689,3.8469,3.8395,3.8358,0.0,0.0,0.0,0.0,0.0,0.0,0.0,0.0,0.0,0.0,0.0,0.0,0.0,0.0,0.0,0.0,0.0,0.0,0.0,1.3897,1.4946,1.5935,1.6069,1.6563,1.7521,1.7326,1.7745,1.8822,1.8642,1.9121,2.0258,1.9642,1.9582,1.9959,2.0182,2.0236,2.0128,2.0365,2.0177,0.0,0.0,1.8338,1.7708,1.7778,1.6482,1.4733,1.5567,1.6021,1.6507,1.8503,2.0771,2.3038,2.4526,2.5473,2.6218,2.6894,2.7994,2.9145,2.9788,3.0548,3.119,3.119,3.119,3.1021,3.0378,3.0228,2.9721,2.7875,2.6623,2.5642,2.4797,2.6725,2.8721,2.9499,3.2916,3.552,3.56,3.5926,3.5994,3.5633,3.56,3.56,3.56,3.56,3.56,3.56,3.56,3.56,3.56,3.56,3.56,3.56,3.56,3.56,3.56,3.56,3.56,3.56,3.56,3.56,3.5622,3.5832,3.6135,3.6416,3.6661,3.6904,3.721,3.7415,3.7667,3.7911,3.8148,3.8449,3.8689,3.8689,3.8689,3.8689,0.0,0.0,0.0,0.0,0.0,0.0,0.0,0.0,0.0,1.2718,1.2209,1.1939,1.1939,1.185,0.0,0.0,0.0,0.0,0.0,0.0,1.2969,1.3645,1.3118,1.3388,1.4646,1.3538,1.4333,1.719,1.6084,1.6683,1.8899,1.7728,1.719,1.719,1.7375,1.7546,1.7746,1.793,1.8266,1.8626,1.7259,1.654,1.6113,0.0,1.3971,1.3413,1.3616,1.5808,1.9012,2.1583,2.3139,2.4255,2.5744,2.6691,2.7554,2.8908,2.9281,2.9585,3.0852,3.119,3.119,3.119,3.119,3.0818,2.9348,2.8908,2.8163,2.5812,2.4222,2.3207,2.3004,2.5356,2.7689,2.8671,3.297,3.6062,3.5667,3.6197,3.6366,3.5667,3.56,3.56,3.56,3.56,3.56,3.56,3.5701,3.5701,3.56,3.56,3.56,3.56,3.56,3.56,3.56,3.56,3.56,3.56,3.56,3.5644,3.5734,3.6186,3.6478,3.6606,3.7078,3.7323,3.7415,3.7825,3.8015,3.8048,3.8512,3.8689,3.8689,3.8689,3.8689,3.8689,0.0,0.0,0.0,0.0,0.0,0.0,0.0,0.0,0.0,0.0,1.4303,1.2621,0.0,0.0,0.0,0.0,0.0,0.0,0.0,0.0,0.0,1.2939,1.2849,1.3178,1.3974,1.3765,1.3914,1.447,1.4274,1.4393,1.4828,1.4589,1.447,1.4526,1.563,1.5983,1.5783,1.6901,1.6747,1.5712,1.544,1.4777,1.3955,1.3676,0.0,0.0,1.4793,1.6011,1.7704,2.182,2.4916,2.7283,2.8856,2.9837,3.048,3.0717,3.0838,3.0852,3.1123,3.119,3.119,3.119,3.119,3.0818,2.9348,2.8484,2.7181,2.4357,2.3105,2.211,2.0826,2.3038,2.5726,2.7689,3.0852,3.3681,3.5363,3.5701,3.5769,3.5633,3.56,3.56,3.56,3.56,3.56,3.56,3.6231,3.6299,3.5633,3.56,3.56,3.56,3.56,3.56,3.56,3.56,3.56,3.56,3.56,3.5832,3.6249,3.6354,3.6845,3.7649,3.7737,3.8032,3.8433,3.8512,3.858,3.858,3.8658,3.8689,3.8689,3.8689,3.8689,3.8689,0.0,0.0,0.0,0.0,0.0,0.0,0.0,1.8378,1.9083,2.1028,1.9957,1.8016,1.543,1.3449,1.2388,0.0,0.0,0.0,0.0,0.0,0.0,1.2479,1.249,1.2709,1.318,1.3191,1.352,1.4227,0.0,1.354,1.4196,1.3509,1.3191,1.3202,1.3855,1.4111,1.41,1.4745,1.4671,1.416,1.416,1.3862,1.3413,0.0,0.0,0.0,1.5063,1.6587,1.8245,2.0758,2.4375,2.806,2.9616,3.0615,3.119,3.119,3.119,3.119,3.119,3.119,3.119,3.119,3.119,3.0581,2.8315,2.7199,2.5694,2.2313,2.1042,2.0196,1.9068,2.1617,2.4255,2.5338,2.9348,3.2666,3.3728,3.4856,3.56,3.56,3.56,3.5769,3.6197,3.6231,3.6366,3.6749,3.7144,3.684,3.5667,3.56,3.56,3.56,3.56,3.56,3.56,3.56,3.56,3.56,3.56,3.5876,3.6395,3.6701,3.721,3.7911,3.8218,3.8465,3.8689,3.8689,3.8689,3.8689,3.8689,3.8689,3.8689,3.8689,3.8689,3.8689,0.0,0.0,0.0,0.0,0.0,0.0,0.0,2.1663,2.2736,2.5352,2.5361,2.3513,1.9357,1.6075,1.3972,0.0,0.0,0.0,0.0,0.0,0.0,0.0,0.0,0.0,1.2617,0.0,0.0,1.4406,1.3355,0.0,0.0,0.0,0.0,0.0,1.2674,1.2797,1.3004,1.3067,1.32,0.0,0.0,1.3413,1.3413,0.0,0.0,0.0,0.0,1.6475,1.8132,1.9372,2.2719,2.6674,2.8383,2.9973,3.1123,3.0818,3.0954,3.119,3.119,3.119,3.119,3.119,3.119,3.0412,2.7368,2.6015,2.4357,2.0745,1.9304,1.8572,1.8324,2.069,2.2936,2.3748,2.796,3.1379,3.2192,3.3931,3.5228,3.5566,3.56,3.5926,3.6728,3.6795,3.7134,3.7855,3.7922,3.7381,3.614,3.6073,3.6073,3.6073,3.6073,3.6073,3.6073,3.6073,3.6141,3.6264,3.6264,3.6603,3.7236,3.7668,3.8115,3.8606,3.9024,3.9203,3.9203,3.9203,3.9203,3.9203,3.9019,3.8946,3.8946,3.8762,3.8689,3.8689,0.0,0.0,0.0,0.0,0.0,0.0,0.0,2.316,2.4981,2.865,2.762,2.5863,2.4187,2.0849,1.7345,0.0,0.0,0.0,0.0,0.0,0.0,0.0,0.0,0.0,0.0,0.0,0.0,1.3791,1.3673,0.0,0.0,0.0,0.0,0.0,0.0,1.2986,1.3022,1.3252,0.0,0.0,0.0,0.0,0.0,0.0,0.0,0.0,0.0,1.474,1.5315,1.8065,2.0242,2.2172,2.4338,2.7859,3.0939,2.9585,3.0161,3.119,3.119,3.119,3.119,3.119,3.119,3.0412,2.7368,2.5625,2.3729,2.0657,1.8899,1.829,1.9562,2.0069,2.1434,2.4849,2.642,2.84,3.1819,3.3051,3.41,3.543,3.56,3.5926,3.6728,3.6795,3.7134,3.7855,3.7922,3.7855,3.7719,3.7686,3.7686,3.7686,3.7686,3.7686,3.7686,3.7686,3.7922,3.8438,3.8438,3.8957,3.9932,4.0004,4.0309,4.0826,4.0859,4.0875,4.0875,4.0875,4.0875,4.0802,4.0084,3.979,3.968,3.8982,3.8689,3.8689,0.0,0.0,0.0,0.0,0.0,0.0,2.2549,2.3771,2.5614,2.9417,2.9609,2.8667,2.6749,2.4094,2.0303,1.5059,0.0,0.0,0.0,0.0,0.0,0.0,0.0,0.0,0.0,0.0,1.4838,1.4838,1.4838,0.0,0.0,0.0,0.0,0.0,0.0,1.3234,1.3243,1.3337,0.0,0.0,0.0,0.0,0.0,0.0,0.0,0.0,0.0,0.0,1.6667,1.7828,1.9858,2.1786,2.1292,2.4222,2.7977,2.8773,2.9416,3.0059,3.0954,3.119,3.119,3.119,3.0514,2.9314,2.7199,2.4864,2.2564,2.0441,1.8831,1.8121,1.9147,1.935,2.0128,2.2564,2.4338,2.6065,2.7977,3.0074,3.1968,3.3423,3.4404,3.5588,3.7313,3.7855,3.843,3.9174,3.9208,3.9208,3.9208,3.8396,3.8044,3.8368,3.8368,3.857,3.8907,3.8907,3.9035,3.923,3.923,3.9613,4.0312,4.0312,4.0597,4.1095,4.1095,4.1095,4.1095,4.1095,4.1095,4.1058,4.0744,4.0341,3.9863,3.9533,3.9129,3.8689,0.0,0.0,0.0,0.0,0.0,1.908,2.2835,2.4034,2.576,2.9296,3.004,2.9499,2.7655,2.4898,2.1413,1.6997,1.4519,0.0,0.0,0.0,0.0,0.0,0.0,0.0,0.0,0.0,1.6035,1.6238,1.6238,1.6238,0.0,0.0,1.4706,1.447,0.0,0.0,0.0,0.0,0.0,0.0,0.0,0.0,0.0,0.0,0.0,0.0,0.0,0.0,0.0,0.0,0.0,2.1008,1.9418,2.1211,2.4409,2.6945,2.8299,2.9281,3.0514,3.1021,3.119,3.119,3.0093,2.8604,2.7029,2.4425,2.1874,2.0306,1.8831,1.8031,1.8775,1.908,1.9655,2.0987,2.2883,2.4575,2.5778,2.7943,3.0074,3.1785,3.3072,3.4742,3.6986,3.8497,3.9537,4.0079,4.0113,4.0113,4.0113,3.9268,3.8962,3.9349,3.9336,3.9621,4.0243,4.0263,4.0344,4.0538,4.0538,4.0754,4.1252,4.1252,4.1447,4.1809,4.1809,4.1809,4.1809,4.1809,4.1809,4.1809,4.1535,4.1111,4.0561,4.0341,3.99,3.9407,0.0,0.0,0.0,0.0,0.0,0.0,2.2835,2.4034,2.5591,2.8604,2.8315,2.7553,2.6793,2.2719,2.0002,1.9968,1.6589,0.0,0.0,0.0,0.0,0.0,0.0,0.0,0.0,0.0,1.7061,1.7783,1.7783,1.7783,1.7749,1.6272,1.5189,1.447,0.0,0.0,0.0,0.0,0.0,0.0,0.0,0.0,0.0,0.0,0.0,0.0,0.0,0.0,0.0,0.0,0.0,0.0,0.0,1.9439,2.0657,2.3661,2.6674,2.9179,2.9905,3.0649,3.119,3.119,3.0093,2.8604,2.7029,2.4425,2.1874,2.0306,1.8831,1.8031,1.8775,1.9507,2.0251,2.1055,2.2443,2.4188,2.6387,2.735,2.8669,3.0954,3.1887,3.3186,3.5397,3.8328,4.0079,4.0113,4.0113,4.0113,4.0113,4.0566,4.0886,4.0886,4.0886,4.1183,4.1775,4.1775,4.2083,4.2674,4.2674,4.2958,4.3461,4.3461,4.3461,4.3478,4.3478,4.3478,4.3478,4.3478,4.3478,4.3387,4.2616,4.2286,4.2176,4.1389,4.1058,4.1058,0.0,0.0,0.0,0.0,0.0,0.0,0.0,2.094,2.2158,2.4154,2.4206,2.4139,2.4425,2.1346,1.9249,1.9249,1.6813,0.0,0.0,0.0,0.0,0.0,0.0,0.0,0.0,1.7839,1.8572,1.9292,1.9858,2.0141,2.0107,1.8572,1.7185,1.5944,1.4716,1.387,0.0,0.0,0.0,0.0,0.0,0.0,1.4894,0.0,0.0,0.0,0.0,0.0,0.0,0.0,0.0,0.0,0.0,0.0,0.0,2.0995,2.3545,2.62,2.7435,2.8315,2.8755,2.8247,2.7013,2.5659,2.4661,2.2516,2.0454,1.9452,1.8471,1.8031,1.8775,1.8662,1.9406,2.226,2.2665,2.341,2.5642,2.7503,2.9262,3.0987,3.4539,3.7347,3.8565,3.9537,4.0113,4.0113,4.0441,4.0672,4.0672,4.1218,4.153,4.153,4.1916,4.2422,4.2977,4.2941,4.3051,4.325,4.325,4.3321,4.3515,4.3515,4.3515,4.3515,4.3515,4.3515,4.3515,4.3515,4.3515,4.3478,4.3204,4.2763,4.2286,4.2029,4.1572,4.1095,0.0,0.0,0.0,0.0,0.0,0.0,0.0,1.8865,1.9608,2.0873,2.1042,2.1414,2.2477,1.987,1.8415,1.9249,1.7287,0.0,0.0,0.0,0.0,0.0,0.0,0.0,1.82,1.8403,1.9418,2.1265,2.1515,2.1901,2.2409,2.119,1.935,1.7061,1.5866,1.4623,0.0,0.0,0.0,0.0,0.0,0.0,1.5595,0.0,0.0,0.0,0.0,0.0,0.0,0.0,0.0,0.0,0.0,0.0,0.0,0.0,2.1109,2.3241,2.532,2.6623,2.7249,2.6793,2.5591,2.4305,2.3594,2.1637,1.9799,1.9046,1.8382,1.8085,1.8563,1.8495,1.9143,2.1485,2.1868,2.2767,2.5254,2.7063,2.9093,3.1732,3.5656,3.8464,3.9174,3.9774,4.0179,4.0392,4.0709,4.0978,4.1206,4.181,4.2124,4.2124,4.2482,4.2976,4.3497,4.3515,4.3515,4.3515,4.3515,4.3515,4.3515,4.3515,4.3515,4.3515,4.3515,4.3515,0.0,4.3515,4.3515,4.3515,4.3515,4.3167,4.2763,4.2763,4.2433,4.2029,0.0,0.0,0.0,0.0,0.0,0.0,0.0,1.7715,1.7963,1.864,1.8775,1.9329,2.0649,1.8313,1.7467,1.9495,0.0,0.0,0.0,0.0,0.0,0.0,0.0,0.0,1.8809,1.8256,1.971,2.3308,2.2801,2.3274,2.4643,2.3966,2.1617,1.8031,1.7196,1.5615,1.3472,1.3413,1.3879,1.4639,1.4605,1.5044,0.0,0.0,0.0,0.0,0.0,0.0,0.0,0.0,0.0,0.0,0.0,0.0,0.0,0.0,0.0,0.0,0.0,2.5216,2.6318,2.625,2.5232,2.4026,2.3284,2.1475,0.0,1.9014,1.8516,1.8225,1.835,1.8884,1.9392,1.9692,2.0695,2.2477,2.5438,2.6708,2.8942,3.3249,3.5745,3.7373,3.8109,3.9423,4.0441,4.0943,4.0978,4.1251,4.1832,4.2422,4.2751,4.2751,4.2751,4.3013,4.3497,4.3515,4.3515,4.3515,4.3515,4.3515,4.3515,4.3515,4.3515,4.3515,4.3515,4.3515,4.3515,4.3515,4.3515,4.3515,4.3515,4.3515,4.3515,4.3515,4.3515,4.3515,0.0,0.0,0.0,0.0,0.0,0.0,0.0,0.0,0.0,0.0,1.7693,1.776,1.6993,1.6282,1.6069,0.0,0.0,0.0,0.0,0.0,0.0,0.0,0.0,0.0,1.8053,1.9,2.0487,2.2564,2.4086,2.5304,2.62,2.6015,2.3966,2.0344,1.899,1.6847,1.4199,1.3642,1.4497,1.6147,1.5561,1.6136,0.0,0.0,0.0,0.0,1.7546,1.8132,0.0,0.0,0.0,0.0,0.0,0.0,0.0,0.0,1.8722,1.9614,2.0336,0.0,2.2588,2.2005,2.1769,2.1417,0.0,1.9854,1.9246,1.8523,1.8277,1.8655,2.0093,1.9762,2.035,2.355,2.3867,2.4837,2.8048,3.14,3.4474,3.7124,3.8905,4.017,4.0815,4.1187,4.1464,4.1595,4.2,4.2342,4.2462,4.2995,4.3303,4.3303,4.3303,4.3356,4.3515,4.3515,4.3515,4.3515,4.3515,4.3515,4.3515,4.3515,4.3515,4.3515,4.3515,4.3515,4.3515,4.3515,4.3515,4.3515,4.3515,4.3515,4.3515,4.3515,4.3515,4.3515,0.0,0.0,0.0,0.0,0.0,0.0,0.0,0.0,0.0,0.0,0.0,1.7388,1.6248,1.5798,0.0,0.0,0.0,0.0,0.0,0.0,0.0,0.0,0.0,1.7952,1.8302,1.9101,2.0771,2.3308,2.4492,2.6015,2.7757,2.7368,2.5236,2.1549,1.8335,1.5798,1.3971,1.3574,1.4488,1.6147,1.5764,0.0,0.0,0.0,0.0,0.0,1.7938,1.8471,0.0,1.8996,1.953,2.0018,0.0,0.0,0.0,0.0,1.846,1.8982,1.8982,2.0324,2.1627,2.122,2.1241,2.1108,2.0225,1.9762,1.9262,1.8538,1.8497,1.8995,2.0399,2.1024,2.1992,2.3849,2.5619,2.7851,3.0972,3.4318,3.7072,3.886,4.0165,4.1115,4.1746,4.181,4.1916,4.22,4.2537,4.2789,4.3069,4.3339,4.3515,4.3515,4.3515,4.3515,4.3515,4.3515,4.3515,4.3515,4.3515,4.3515,4.3515,4.3515,4.3515,4.3515,4.3515,4.3515,4.3515,4.3515,4.3515,4.3515,4.3515,4.3515,4.3515,4.3515,4.3515,4.3515,0.0,0.0,0.0,0.0,0.0,0.0,0.0,0.0,0.0,0.0,0.0,0.0,0.0,0.0,0.0,0.0,0.0,0.0,0.0,0.0,0.0,0.0,1.7783,1.82,1.9046,1.908,2.0818,2.4338,2.4914,2.6505,2.8976,2.8755,2.6438,2.2245,1.7242,1.4546,1.3718,1.3515,1.4319,1.574,1.5528,0.0,0.0,0.0,0.0,0.0,0.0,0.0,0.0,1.9901,2.02,2.0325,1.9879,0.0,0.0,0.0,0.0,0.0,1.8972,2.0723,2.2394,2.1841,2.1819,2.1735,2.1103,2.0454,1.9795,1.914,1.921,1.9758,2.1124,2.2781,2.394,2.3946,2.7342,3.0942,3.3749,3.6206,3.8252,3.966,4.0629,4.1407,4.2021,4.2062,4.2266,4.277,4.2808,4.3032,4.348,4.3515,4.3515,4.3515,4.3515,4.3515,4.3515,4.3515,4.3515,4.3515,4.3515,4.3515,4.3515,4.3515,4.3515,4.3515,4.3515,4.3515,4.3515,4.3515,4.3515,4.3515,4.3515,4.3515,4.3515,4.3515,4.3515,4.3515,0.0,0.0,0.0,0.0,0.0,0.0,0.0,0.0,0.0,0.0,0.0,0.0,0.0,0.0,0.0,0.0,0.0,0.0,0.0,0.0,0.0,1.7783,1.7783,1.8425,1.9799,1.9845,2.1062,2.3594,2.6742,2.8536,2.9044,3.1427,2.9228,2.3071,1.9068,1.6542,1.5199,1.3912,1.4599,1.6417,1.5189,0.0,0.0,0.0,0.0,0.0,0.0,0.0,0.0,1.8724,1.9359,2.0154,1.8866,0.0,0.0,0.0,0.0,0.0,2.0588,2.2887,2.4188,2.1194,2.0937,2.1394,2.1345,2.1247,2.1102,2.0994,2.0987,2.2178,2.5952,2.5608,2.5894,2.9466,3.1456,3.329,3.5421,3.772,3.966,4.1029,4.1907,4.2619,4.3214,4.325,4.3286,4.3356,4.3356,4.3391,4.3497,4.3515,4.3515,4.3515,4.3515,4.3515,4.3515,4.3515,4.3515,4.3515,4.3515,4.3515,4.3515,4.3515,4.3515,4.3515,4.3515,4.3515,4.3515,4.3515,4.3515,4.3515,4.3515,4.3515,4.3515,4.3515,4.3515,4.3515,0.0,0.0,0.0,0.0,0.0,0.0,0.0,0.0,0.0,0.0,0.0,0.0,0.0,0.0,0.0,0.0,0.0,0.0,0.0,0.0,1.8358,1.9587,1.9203,1.9304,2.0002,2.1603,2.3545,2.5778,2.8721,3.0601,3.136,2.9871,2.6488,2.1495,1.8223,1.5882,1.4362,1.3768,1.4289,1.546,0.0,0.0,0.0,0.0,0.0,0.0,0.0,0.0,0.0,0.0,1.8963,2.0001,1.8778,0.0,0.0,0.0,0.0,0.0,2.0049,2.1671,2.3155,2.3057,2.459,2.6111,2.6133,2.5804,2.5147,2.3833,2.3551,2.4312,2.6712,2.7503,2.9442,3.4527,3.5045,3.5596,3.7828,3.9157,4.0397,4.1758,4.2394,4.2902,4.3463,4.3515,4.3515,4.3515,4.3515,4.3515,4.3515,4.3515,4.3515,4.3515,4.3515,4.3515,4.3515,4.3515,4.3515,4.3515,4.3515,4.3515,4.3515,4.3515,4.3515,4.3515,4.3515,4.3515,4.3515,4.3515,4.3515,4.3515,4.3515,4.3515,4.3515,4.3515,4.3515,4.3549,0.0,0.0,0.0,0.0,0.0,0.0,0.0,0.0,0.0,0.0,0.0,0.0,0.0,0.0,0.0,0.0,0.0,0.0,0.0,1.6813,1.8471,2.0581,2.0589,2.098,2.1996,2.4106,2.6457,2.8956,3.1426,3.3088,3.3864,2.8767,2.4389,2.0673,1.7783,1.5478,1.3776,1.3686,1.4027,1.4588,0.0,0.0,0.0,0.0,0.0,0.0,0.0,0.0,0.0,0.0,0.0,0.0,0.0,0.0,0.0,1.9396,1.9182,1.9389,1.9793,2.1042,2.2851,2.5324,2.7339,2.9002,3.0198,2.9586,2.8363,2.7064,2.6806,2.7064,2.786,2.9831,3.2816,3.7404,3.7404,3.7698,4.012,4.0574,4.1178,4.2436,4.2777,4.3069,4.348,4.3515,4.3515,4.3515,4.3515,4.3515,4.3515,4.3515,4.3515,4.3515,4.3515,4.3515,4.3515,4.3515,4.3515,4.3515,4.3515,4.3515,4.3515,4.3515,4.3515,4.3515,4.3515,4.3515,4.3515,4.3515,4.3515,4.3515,4.3515,4.3515,4.3515,4.3515,4.3515,4.3529,0.0,0.0,0.0,0.0,0.0,0.0,0.0,0.0,0.0,0.0,0.0,0.0,0.0,0.0,0.0,0.0,0.0,0.0,0.0,1.635,1.7467,1.899,2.1042,2.3949,2.7898,2.7572,2.9026,3.2449,3.5403,3.6465,3.5626,3.0891,2.6585,2.2764,1.9692,1.7029,1.4828,1.4153,1.4287,1.489,1.4209,0.0,0.0,0.0,0.0,0.0,0.0,0.0,0.0,0.0,0.0,0.0,0.0,0.0,1.9198,1.9266,1.93,1.9646,2.1188,2.3345,2.5501,2.72,2.5881,2.5433,3.0235,2.9561,2.8448,3.0552,3.0956,3.1213,3.2032,3.3537,3.5041,3.6266,3.7624,3.9386,4.1772,4.2142,4.2472,4.3314,4.3443,4.3463,4.3497,4.3515,4.3515,4.3515,4.3515,4.3515,4.3515,4.3515,4.3515,4.3515,4.3515,4.3515,4.3515,4.3515,4.3515,4.3515,4.3515,4.3515,4.3515,4.3515,4.3515,4.3515,4.3515,4.3515,4.3515,4.3515,4.3515,4.3515,4.3515,4.3515,4.3515,4.3515,4.3515,4.3529,0.0,0.0,0.0,0.0,0.0,0.0,0.0,0.0,0.0,0.0,0.0,0.0,0.0,0.0,0.0,0.0,0.0,0.0,0.0,1.6712,1.8314,2.0423,2.1387,2.3689,2.7569,2.9913,3.2546,3.5616,3.668,3.5986,3.3617,2.8976,2.5001,2.1609,1.9116,1.7477,1.6545,1.5353,1.5224,1.5758,1.4416,1.4521,0.0,0.0,0.0,0.0,0.0,0.0,0.0,0.0,1.6725,1.7935,1.7745,1.8737,1.9855,1.9439,1.8948,1.8794,1.994,2.24,2.4934,2.6035,2.6647,2.8175,3.2643,3.2913,3.2546,3.3426,3.3647,3.3426,3.2729,3.5569,3.7845,3.7162,3.9239,4.1258,4.2176,4.2727,4.3167,4.3478,4.3515,4.3515,4.3515,4.3515,4.3515,4.3515,4.3515,4.3515,4.3515,4.3515,4.3515,4.3515,4.3515,4.3515,4.3515,4.3515,4.3515,4.3515,4.3515,4.3515,4.3515,4.3515,4.3515,4.3515,4.3515,4.3515,4.3515,4.3515,4.3515,4.3515,4.3515,4.3515,4.3515,4.3515,4.3647,4.3865,0.0,0.0,0.0,0.0,0.0,0.0,0.0,0.0,0.0,0.0,0.0,0.0,0.0,0.0,0.0,0.0,0.0,0.0,1.5977,1.6678,1.8189,2.0585,2.1029,2.2914,2.657,3.071,3.4055,3.6555,3.6737,3.5199,3.1985,2.7781,2.461,2.2201,1.9704,1.8716,1.8811,1.7009,1.6508,1.68,1.5404,1.5017,0.0,0.0,0.0,0.0,0.0,0.0,0.0,0.0,1.5967,1.7326,1.7282,1.8412,1.963,1.9087,1.9455,2.0079,2.0372,2.2685,2.5254,2.6586,2.7787,2.9757,3.4014,3.4601,3.4601,3.5885,3.5334,3.4527,3.4211,3.645,3.8322,3.8264,4.0524,4.2396,4.2653,4.313,4.3515,4.3515,4.3515,4.3515,4.3515,4.3515,4.3515,4.3515,4.3515,4.3515,4.3515,4.3515,4.3515,4.3515,4.3515,4.3515,4.3515,4.3515,4.3515,4.3515,4.3515,4.3515,4.3515,4.3515,4.3515,4.3515,4.3515,4.3515,4.3515,4.3515,4.3515,4.3515,4.3515,4.3515,4.3515,4.3515,4.371,4.4043,0.0,0.0,0.0,0.0,0.0,0.0,0.0,0.0,1.7783,1.7783,1.7783,0.0,0.0,0.0,0.0,0.0,0.0,0.0,1.6699,1.6011,1.6621,1.8787,1.9865,2.2059,2.5561,2.9773,3.2958,3.5004,3.5862,3.4578,3.1286,2.8117,2.6172,2.5227,2.1979,2.0996,2.1629,1.9161,1.8133,1.8052,1.7238,1.6438,1.5717,0.0,0.0,0.0,0.0,0.0,0.0,0.0,1.568,1.5974,1.7582,1.8089,1.8089,1.8089,2.096,2.3969,2.3153,2.473,2.7189,2.9549,2.8998,2.9145,3.3903,3.3757,3.3793,3.7881,3.6119,3.4578,3.7052,3.6193,3.6142,3.935,4.1258,4.258,4.3404,4.3515,4.3515,4.3515,4.3515,4.3515,4.3515,4.3515,4.3515,4.3515,4.3515,4.3515,4.3515,4.3515,4.3515,4.3515,4.3515,4.3515,4.3515,4.3515,4.3515,4.3515,4.3515,4.3515,4.3515,4.3515,4.3515,4.3515,4.3515,4.3515,4.3515,4.3515,4.3515,4.3515,4.3515,4.3515,4.3515,4.3515,4.371,4.4058,0.0,0.0,0.0,0.0,0.0,0.0,0.0,0.0,1.7783,1.7783,1.7783,0.0,0.0,0.0,0.0,0.0,0.0,0.0,1.6733,1.6982,1.7605,1.8637,2.0044,2.1212,2.2015,2.5517,2.9881,3.5004,3.4688,3.2596,2.8826,2.731,2.5585,2.3676,2.3272,2.2611,2.1666,1.9756,1.9271,1.9667,1.8309,1.7612,1.7326,0.0,0.0,0.0,0.0,0.0,0.0,0.0,0.0,0.0,1.6915,1.8016,1.8831,1.828,1.9344,2.0601,1.9785,2.3419,2.7346,2.6917,3.0332,3.399,3.4821,3.4637,3.5114,3.8102,3.8395,3.7955,3.7566,3.8946,4.0084,3.9937,4.1752,4.3204,4.3478,4.3515,4.3515,4.3515,4.3515,4.3515,4.3515,4.3515,4.3515,4.3515,4.3515,4.3515,4.3515,4.3515,4.3515,4.3515,4.3515,4.3515,4.3515,4.3515,4.3515,4.3515,4.3515,4.3515,4.3515,4.3515,4.3515,4.3515,4.3515,4.3515,4.3515,4.3515,4.3515,4.3515,4.3515,4.3515,4.3549,4.3775,4.4073,4.4455,0.0,0.0,0.0,0.0,0.0,0.0,1.7783,1.7783,1.7783,1.7783,1.7783,1.7783,0.0,0.0,0.0,1.7196,1.7546,1.7669,1.7322,1.7435,1.7987,1.9047,1.9825,2.0788,2.1933,2.4236,2.6979,3.0234,3.0711,2.9365,2.6392,2.6833,2.6465,2.5428,2.6209,2.5695,2.4089,2.2437,2.1445,2.0923,1.9968,1.9161,1.85,0.0,0.0,0.0,0.0,0.0,0.0,0.0,0.0,0.0,1.6181,1.7105,1.8104,1.9234,2.1033,2.2841,2.363,2.72,3.065,3.0687,3.3256,3.6009,3.6765,3.6949,3.7367,3.8872,3.9313,3.9423,3.9386,4.0451,4.1332,4.1332,4.256,4.3515,4.3515,4.3515,4.3515,4.3515,4.3515,4.3515,4.3515,4.3515,4.3515,4.3515,4.3515,4.3515,4.3515,4.3515,4.3515,4.3515,4.3515,4.3515,4.3515,4.3515,4.3515,4.3515,4.3515,4.3515,4.3515,4.3515,4.3515,4.3515,4.3515,4.3515,4.3515,4.3627,4.3693,4.371,4.3886,4.3965,4.3943,4.4146,4.4468,4.4837,0.0,0.0,0.0,0.0,0.0,0.0,1.7783,1.7783,1.7783,1.7783,1.7783,1.7783,0.0,0.0,0.0,1.7828,1.785,1.7982,1.8236,1.7626,1.8017,1.9753,1.9579,2.0896,2.4006,2.4677,2.4236,2.2786,2.5207,2.5548,2.4043,2.6686,2.8227,2.8803,2.9757,2.9182,2.7357,2.5742,2.3759,2.1666,2.1666,2.0784,1.9315,1.8427,0.0,0.0,0.0,0.0,0.0,0.0,0.0,0.0,1.5454,1.5753,1.6525,2.0197,2.4199,2.8081,3.087,3.3206,3.5445,3.7756,3.6949,3.6325,3.9313,4.0047,4.0084,4.001,3.9496,3.9717,4.1882,4.1148,4.0928,4.3147,4.3515,4.3515,4.3515,4.3515,4.3515,4.3515,4.3515,4.3515,4.3515,4.3515,4.3515,4.3515,4.3515,4.3515,4.3515,4.3515,4.3515,4.3515,4.3515,4.3515,4.3515,4.3515,4.3515,4.3515,4.3515,4.3515,4.3515,4.3515,4.3515,4.3515,4.3515,4.3515,4.3495,4.3818,4.3952,4.4028,4.4387,4.4585,4.4612,4.465,4.4849,4.5115,0.0,0.0,0.0,0.0,0.0,0.0,1.7783,1.7783,1.7783,1.7783,1.7783,1.7783,1.7783,1.7992,0.0,1.8121,1.8328,1.8432,1.8526,1.8359,1.8811,2.0073,2.1416,2.2502,2.3226,2.2125,2.1391,2.1061,2.3529,2.3896,2.24,2.6722,2.8143,2.7189,2.9292,2.8264,2.485,2.3245,2.1886,2.0768,2.0768,2.0548,2.0107,1.864,1.7502,0.0,0.0,0.0,0.0,0.0,0.0,0.0,1.5454,1.6145,1.6695,1.6922,2.0784,2.485,2.4273,2.8998,3.4344,3.5518,3.7793,3.9958,4.0691,4.1332,4.1589,4.0948,4.1222,4.1699,4.2213,4.2543,4.289,4.3441,4.3515,4.3515,4.3515,4.3515,4.3515,4.3515,4.3515,4.3515,4.3515,4.3515,4.3515,4.3515,4.3515,4.3515,4.3515,4.3515,4.3515,4.3515,4.3515,4.3515,4.3515,4.3515,4.3515,4.3515,4.3515,4.3515,4.3515,4.3515,4.3515,4.3515,4.3515,4.3515,4.3515,4.358,4.3775,4.3998,4.4087,4.4318,4.4637,4.4896,4.5022,4.5148,0.0,0.0,0.0,0.0,0.0,0.0,0.0,0.0,1.7603,1.7958,1.811,1.8194,1.8194,1.8328,0.0,0.0,1.8536,1.8659,1.878,1.8789,1.9264,2.0306,2.1669,2.2244,2.1795,2.0181,1.9337,1.9337,2.0254,2.107,2.1886,2.5952,2.7409,2.6675,2.873,2.7372,2.3602,2.3125,2.1767,2.0005,2.0813,2.0629,1.9785,1.8574,1.7355,1.6181,1.4934,0.0,0.0,0.0,0.0,0.0,0.0,0.0,1.5564,1.7429,2.0107,2.3088,2.6135,3.032,3.4357,3.6743,3.9533,4.1662,4.1662,4.2286,4.2763,4.2323,4.258,4.2873,4.2873,4.3204,4.3515,4.3515,4.3515,4.3515,4.3515,4.3515,4.3515,4.3515,4.3515,4.3515,4.3515,4.3515,4.3515,4.3515,4.3515,4.3515,4.3515,4.3515,4.3515,4.3515,4.3515,4.3515,4.3515,4.3515,4.3515,4.3515,4.3515,4.3515,4.3515,4.3515,4.3515,4.3515,4.3515,4.3597,4.3758,4.3943,4.4204,4.4548,4.4713,4.4881,4.5088,4.5273,4.5361,4.5381,0.0,0.0,0.0,0.0,0.0,0.0,0.0,0.0,0.0,1.8183,1.8442,1.8612,1.8612,1.8508,1.8456,0.0,0.0,0.0,1.8836,1.9106,1.9626,2.0466,2.118,2.1253,2.0511,1.8786,1.8016,1.8317,1.7502,1.8786,2.2069,2.5034,2.6465,2.6638,2.7996,2.6528,2.3006,2.3235,2.162,1.9022,2.0417,2.0123,1.8801,1.7986,1.6775,1.5417,1.475,1.442,1.431,1.4457,0.0,0.0,0.0,0.0,1.407,1.7906,1.963,2.1722,2.829,3.1898,3.4835,3.9056,4.1332,4.2506,4.2506,4.302,4.3515,4.3515,4.3515,4.3515,4.3515,4.3515,4.3515,4.3515,4.3515,4.3515,4.3515,4.3515,4.3515,4.3515,4.3515,4.3515,4.3515,4.3515,4.3515,4.3515,4.3515,4.3515,4.3515,4.3515,4.3515,4.3515,4.3515,4.3515,4.3515,4.3515,4.3515,4.3515,4.3515,4.3515,4.3515,4.3515,4.3515,4.3515,4.3546,4.3758,4.4028,4.4428,4.48,4.5137,4.541,4.5559,4.5594,4.5594,4.5594,4.5594,0.0,0.0,0.0,0.0,0.0,0.0,0.0,0.0,0.0,0.0,1.8593,1.8612,1.8612,1.8146,1.7835,1.7835,1.8048,1.817,1.8236,0.0,0.0,2.0503,2.0621,2.0621,2.0503,1.8229,1.7759,1.9132,1.8317,1.963,2.2859,2.4713,2.5915,2.6602,2.6822,2.5464,2.2859,2.0813,1.8904,1.7238,1.7458,1.7422,1.7128,1.6334,1.5454,1.464,1.453,1.4059,1.3555,1.4273,1.4493,0.0,0.0,0.0,1.3298,1.3251,1.6188,1.9528,1.9932,2.6759,3.4945,3.9738,4.2139,4.3314,4.3314,4.3441,4.3515,4.3515,4.3515,4.3515,4.3515,4.3515,4.3515,4.3515,4.3515,4.3515,4.3515,4.3515,4.3515,4.3515,4.3515,4.3515,4.3515,4.3515,4.3515,4.3515,4.3515,4.3515,4.3515,4.3515,4.3515,4.3515,4.3515,4.3515,4.3515,4.3515,4.3515,4.3515,4.3515,4.3515,4.3515,4.3515,4.3515,4.3532,4.3802,4.3974,4.4028,4.4428,4.48,4.5115,4.5159,4.5323,4.5594,4.5594,4.5594,4.5594,0.0,0.0,0.0,0.0,0.0,0.0,0.0,0.0,0.0,0.0,0.0,1.8989,1.8989,1.8746,1.8401,1.7956,1.8038,1.7906,1.7465,1.8082,1.8485,1.8485,1.8485,1.8485,1.8485,1.6988,1.7032,1.861,1.7362,1.9124,2.3676,2.3933,2.4961,2.6528,2.5171,2.3749,2.2171,1.9675,1.7942,1.6908,1.6908,1.8016,1.9308,1.6224,1.5931,1.6848,1.4132,1.2921,1.2742,1.355,1.3844,1.377,1.3409,0.0,0.0,0.0,1.3581,1.6371,2.1473,2.8546,3.5555,3.9994,4.2323,4.3515,4.3515,4.3515,4.3515,4.3515,4.3515,4.3515,4.3515,4.3515,4.3515,4.3515,4.3515,4.3515,4.3515,4.3515,4.3515,4.3515,4.3515,4.3515,4.3515,4.3515,4.3515,4.3515,4.3515,4.3515,4.3515,4.3515,4.3515,4.3515,4.3515,4.3515,4.3515,4.3515,4.3515,4.3515,4.3515,4.3515,4.3515,4.3515,4.3614,4.3807,4.3958,4.4247,4.4638,4.4825,4.5066,4.539,4.539,4.5457,4.5594,4.5594,4.5594,4.5594,0.0,0.0,0.0,0.0,0.0,0.0,0.0,0.0,0.0,0.0,0.0,1.9253,1.9271,0.0,0.0,0.0,1.7619,1.7319,1.6945,1.6908,1.6908,1.6908,1.6688,1.6615,1.6615,1.5821,1.6078,1.7509,1.6702,1.9014,2.419,2.3786,2.4997,2.742,2.4777,2.3052,2.1923,1.9234,1.7759,1.7238,1.7642,1.9263,2.118,1.8566,1.8941,2.027,1.5821,1.4095,1.3917,1.366,1.3587,1.3513,1.3115,1.2595,0.0,0.0,0.0,1.3435,2.2318,2.7959,3.2656,3.816,4.0781,4.2229,4.3258,4.3515,4.3515,4.3515,4.3515,4.3515,4.3515,4.3515,4.3515,4.3515,4.3515,4.3515,4.3515,4.3515,4.3515,4.3515,4.3515,4.3515,4.3515,4.3515,4.3515,4.3515,4.3515,4.3515,4.3515,4.3515,4.3515,4.3515,4.3515,4.3515,4.3515,4.3515,4.3515,4.3515,4.3515,4.3515,4.3515,4.3597,4.3802,4.4146,4.4146,4.4521,4.5126,4.5191,4.5381,4.5594,4.5594,4.5594,4.5594,4.5594,4.5594,4.5594,0.0,0.0,0.0,0.0,0.0,0.0,0.0,0.0,0.0,0.0,0.0,1.9076,1.9292,1.7942,1.7018,1.6982,1.6261,1.6114,1.6835,1.6908,1.6908,1.6908,1.6181,0.0,1.5753,1.497,1.4976,1.5827,1.7289,2.0115,2.4226,2.4934,2.699,2.9879,2.6696,2.441,2.2712,1.9483,1.8089,1.8163,1.9704,2.0437,2.0951,2.4584,2.5585,2.464,2.1281,1.9557,1.8471,1.5447,1.4457,1.4163,1.2627,1.2113,1.1783,0.0,0.0,0.0,1.7883,2.0446,2.352,3.2949,3.656,3.8814,4.2633,4.3515,4.3515,4.3515,4.3515,4.3515,4.3515,4.3515,4.3515,4.3515,4.3515,4.3515,4.3515,4.3515,4.3515,4.3515,4.3515,4.3515,4.3515,4.3515,4.3515,4.3515,4.3515,4.3515,4.3515,4.3515,4.3515,4.3515,4.3515,4.3515,4.3515,4.3515,4.3515,4.3515,4.3515,4.3515,4.3515,4.3818,4.419,4.4585,4.4585,4.4788,4.5137,4.5438,4.5577,4.5594,4.5594,4.5594,4.5594,4.5594,4.5594,4.5594,0.0,0.0,0.0,0.0,0.0,0.0,0.0,0.0,0.0,0.0,0.0,0.0,0.0,1.8794,1.8243,1.7722,1.6445,1.56,1.5368,1.5368,1.5368,1.5368,1.508,1.494,1.494,1.464,1.4897,1.5717,1.6261,1.8904,2.3456,2.3712,2.5291,2.7787,2.5621,2.4603,2.4273,1.9932,1.839,1.9014,2.0666,2.2868,2.5217,2.5668,2.7247,2.8679,2.441,2.1327,1.9132,1.7957,1.6224,1.4237,1.2627,1.2113,1.1783,1.0176,1.0433,1.2187,1.6585,1.9528,2.2795,2.8851,3.3587,3.7235,3.9218,4.1642,4.3515,4.3515,4.3515,4.3515,4.3515,4.3515,4.3515,4.3515,4.3515,4.3515,4.3515,4.3515,4.3515,4.3515,4.3515,4.3515,4.3515,4.3515,4.3515,4.3515,4.3515,4.3515,4.3515,4.3515,4.3515,4.3515,4.3515,4.3515,4.3515,4.3515,4.3515,4.3515,4.3515,4.3515,4.3515,4.3849,4.4219,4.4624,4.4837,4.5088,4.5429,4.5559,4.5594,4.5594,4.5594,4.5594,4.5594,4.5594,4.5594,4.5594,0.0,0.0,0.0,0.0,0.0,0.0,0.0,0.0,1.8905,1.9326,0.0,0.0,0.0,0.0,1.9271,1.8199,1.6628,1.5454,1.494,1.464,1.4493,1.4493,1.4493,1.4493,1.4493,1.4242,1.4499,1.5307,1.557,1.7913,2.2162,2.2456,2.4043,2.6492,2.4043,2.3859,2.5117,2.1078,1.9822,2.0776,2.3538,2.5558,2.7174,2.8826,3.0258,3.0993,2.7761,2.5034,2.2905,2.2648,2.1143,1.8786,1.5527,1.3036,1.109,0.9992,1.0649,1.2145,1.4304,1.6885,2.0123,2.4961,2.8815,3.2572,3.6905,3.9549,4.1532,4.3184,4.3515,4.3515,4.3515,4.3515,4.3515,4.3515,4.3515,4.3515,4.3515,4.3515,4.3515,4.3515,4.3515,4.3515,4.3515,4.3515,4.3515,4.3515,4.3515,4.3515,4.3515,4.3515,4.3515,4.3515,4.3515,4.3515,4.3515,4.3515,4.3515,4.3515,4.3515,4.3546,4.3677,4.405,4.4401,4.48,4.5137,4.54,4.5594,4.5594,4.5594,4.5594,4.5594,4.5594,4.5594,4.5594,4.5594,4.5594,0.0,0.0,0.0,0.0,0.0,0.0,1.825,0.0,1.8773,2.0074,0.0,0.0,0.0,0.0,0.0,1.8353,1.6775,1.5827,1.5753,1.497,1.453,1.4493,1.4493,1.4493,1.453,1.3734,1.3734,1.453,1.5307,1.7326,2.0393,2.129,2.3391,2.6198,2.2235,2.2244,2.5044,2.2657,2.2171,2.3373,2.8117,2.8239,2.6439,3.4444,3.5069,3.169,3.169,3.1127,3.0246,2.9464,2.906,2.7739,2.1216,1.4835,0.9735,0.9702,1.0278,1.093,0.0,0.0,0.0,2.1135,2.2208,2.464,3.5716,3.711,3.7441,4.234,4.3294,4.3331,4.3478,4.3515,4.3515,4.3515,4.3515,4.3515,4.3515,4.3515,4.3515,4.3515,4.3515,4.3515,4.3515,4.3515,4.3515,4.3515,4.3515,4.3515,4.3515,4.3515,4.3515,4.3515,4.3515,4.3515,4.3515,4.3515,4.3515,4.3515,4.3515,4.366,4.3998,4.4401,4.4788,4.5137,4.5448,4.5594,4.5594,4.5594,4.5594,4.5594,4.5594,4.5594,4.5594,4.5594,4.5594,4.5594,0.0,0.0,0.0,0.0,0.0,2.0458,2.0771,2.0807,2.0925,0.0,0.0,0.0,2.1776,2.2097,2.1905,2.0858,1.9785,1.8419,1.6688,1.5814,1.5123,1.453,1.4493,1.4787,1.5343,1.4573,1.4573,1.538,1.5607,1.6445,1.7899,1.875,1.9895,2.1253,2.0152,2.016,2.0858,1.9051,1.9748,2.2363,2.485,2.742,3.0258,3.4885,3.7367,3.8432,3.8432,3.678,3.4468,3.3647,3.0234,2.5154,1.806,1.3393,1.0457,0.9882,1.0686,1.1631,1.1077,0.0,0.0,0.0,0.0,0.0,2.6198,2.8815,3.1874,3.7896,3.8704,3.9365,4.2854,4.3515,4.3515,4.3515,4.3515,4.3515,4.3515,4.3515,4.3515,4.3515,4.3515,4.3515,4.3515,4.3515,4.3515,4.3515,4.3515,4.3515,4.3515,4.3515,4.3515,4.3515,4.3515,4.3515,4.3515,4.3515,4.3515,4.3515,4.3515,4.366,4.3998,4.4401,4.4788,4.5137,4.5448,4.5594,4.5594,4.5594,4.5594,4.5594,4.5594,4.5594,4.5594,4.5594,4.5594,4.5594,0.0,0.0,2.0011,2.0727,2.156,2.2273,2.2601,2.2638,2.2666,0.0,0.0,0.0,2.3245,2.4006,2.4043,2.2914,2.1391,1.9622,1.7532,1.6334,1.549,1.5013,1.5013,1.538,1.6181,1.508,1.4897,1.5717,1.5019,1.527,1.6401,1.6885,1.7693,1.8757,1.8104,1.8177,1.8684,1.6732,1.817,2.218,2.6465,2.9072,3.0944,3.5899,3.7918,3.8285,4.001,3.8505,3.6032,3.7918,3.3366,2.6098,2.151,1.6775,1.2622,1.1127,1.2333,1.3796,1.2297,1.3073,1.4395,1.4719,0.0,0.0,2.4593,2.6943,3.0038,3.7896,3.9386,4.0157,4.3001,4.3515,4.3515,4.3515,4.3515,4.3515,4.3515,4.3515,4.3515,4.3515,4.3515,4.3515,4.3515,4.3515,4.3515,4.3515,4.3515,4.3515,4.3515,4.3515,4.3515,4.3515,4.3515,4.3515,4.3515,4.3515,4.3515,4.3515,4.3515,4.3758,4.4247,4.4468,4.4861,4.5303,4.5532,4.5594,4.5594,4.5594,4.5594,4.5594,4.5594,4.5594,4.5594,4.5594,4.5594,4.5594,0.0,0.0,2.087,2.1812,2.2859,2.3731,2.4291,2.4227,2.4277,0.0,2.4124,2.43,2.5888,2.6465,2.6172,2.4704,2.2272,2.0107,1.8456,1.6775,1.5821,1.5821,1.5753,1.6114,1.7018,1.5551,1.5117,1.5821,1.4327,1.429,1.5717,1.5607,1.6371,1.7766,1.6151,1.6261,1.7575,1.5704,1.7656,2.2694,2.9843,3.1458,3.0271,3.7147,3.7734,3.5349,3.8982,3.8432,3.6655,4.1368,3.711,2.9537,2.8007,2.273,1.6458,1.3545,1.4994,1.7032,1.4573,1.4919,1.6084,1.6654,1.5251,0.0,2.6098,2.7357,2.9058,3.8153,4.0609,4.1323,4.1948,4.2132,4.2206,4.2189,4.2667,4.3145,4.3441,4.3515,4.3515,4.3515,4.3515,4.3515,4.3515,4.3515,4.3515,4.3515,4.3515,4.3515,4.3515,4.3515,4.3515,4.3515,4.3515,4.3515,4.3515,4.3549,4.3549,4.3515,4.358,4.3958,4.4612,4.4726,4.5076,4.5594,4.571,4.571,4.5594,4.5594,4.5594,4.5594,4.5594,4.5594,4.5594,4.5594,4.5594,4.5594,2.0276,2.0716,2.1623,2.3412,2.4248,2.5401,2.7515,2.6808,2.6637,2.8265,2.8093,2.8436,3.0038,2.8643,2.742,2.7126,2.43,2.1795,2.0144,1.7899,1.6652,1.6652,1.6041,1.6371,1.7832,1.6908,1.6505,1.6652,1.571,1.5386,1.568,1.505,1.527,1.6121,1.4474,1.4285,1.5301,1.6768,1.9858,2.3859,2.5438,2.8815,3.333,3.7367,4.0047,4.1715,4.2523,4.2413,4.1625,4.012,3.7514,3.3807,2.7761,2.5668,2.4237,1.8031,1.8872,2.1189,1.8401,1.7657,1.741,1.6435,1.6188,0.0,1.6525,1.7457,1.9663,2.4838,2.607,2.7679,3.2258,3.3694,3.4116,3.403,3.7308,4.0723,4.3164,4.3515,4.3515,4.3515,4.3515,4.3515,4.3515,4.3515,4.3515,4.3515,4.3515,4.3515,4.3515,4.3515,4.3515,4.3515,4.3515,4.3515,4.3515,4.3775,4.3775,4.3515,4.4095,4.4479,4.4624,4.5542,4.5844,4.5633,4.6355,4.624,4.5594,4.5594,4.5594,4.5594,4.5594,4.5594,4.5594,4.5594,4.5594,4.5594,2.1487,2.1898,2.2955,2.5323,2.6458,2.7834,3.0326,2.9719,2.9475,3.0866,3.0916,3.0785,3.0797,2.9732,2.8521,2.731,2.4997,2.2712,2.0658,1.9006,1.7906,1.7539,1.7099,1.7656,1.9263,1.8126,1.7502,1.7502,1.6298,1.549,1.5086,1.4677,1.6004,1.8618,1.5349,1.571,1.8676,1.7436,1.9014,2.2749,2.72,3.1898,3.6597,3.9863,4.2103,4.3515,4.3515,4.3515,4.3057,4.023,3.7404,3.4541,3.1727,2.9696,2.7316,2.1807,2.272,2.4633,2.045,1.973,1.9937,1.8838,1.8185,0.0,0.0,1.8643,2.0329,2.5207,2.5541,2.6256,3.0489,3.091,3.0916,3.1682,3.5502,3.8321,3.8235,4.1266,4.3515,4.3515,4.3515,4.3515,4.3515,4.3515,4.3515,4.3515,4.3515,4.3515,4.3515,4.3515,4.3515,4.3515,4.3515,4.3515,4.3515,4.3818,4.3927,4.3758,4.4731,4.5268,4.548,4.6481,4.6929,4.6855,4.7317,4.724,4.6817,4.6394,4.624,4.6201,4.5787,4.5594,4.5594,4.5594,4.5594,4.5594,2.2538,2.2857,2.3823,2.6338,2.7705,2.927,3.162,3.1396,3.1365,3.2564,3.307,3.2949,3.1935,3.1568,3.0577,2.8631,2.6833,2.4704,2.2089,2.0849,2.0079,1.974,1.8684,1.9153,2.1391,1.9263,1.8016,1.7869,1.6408,1.5307,1.4493,1.4493,1.6702,2.049,1.7142,1.8052,2.1832,1.8684,1.9381,2.3226,3.0613,3.4871,3.7257,4.1111,4.2597,4.267,4.3294,4.3515,4.3147,4.0724,3.7698,3.5018,3.5275,3.3403,3.0147,2.5383,2.6591,2.8342,2.2893,2.2444,2.312,2.1546,2.0516,2.0146,0.0,0.0,0.0,2.6664,2.6572,2.647,2.8951,2.8305,2.7828,2.9148,3.2795,3.4501,3.1701,3.6897,4.1119,4.1385,4.2633,4.3258,4.2633,4.245,4.267,4.3441,4.278,4.267,4.3478,4.3515,4.3515,4.3515,4.3515,4.3515,4.3515,4.4061,4.4296,4.4274,4.5604,4.6352,4.6587,4.7532,4.8015,4.8125,4.8279,4.8279,4.8048,4.7394,4.7115,4.7048,4.6009,4.5594,4.5594,4.5594,4.5594,4.5594,2.2214,2.2391,2.2909,2.455,2.5749,2.7273,2.9494,2.951,3.0234,3.2871,3.4775,3.634,3.7588,3.645,3.5495,3.5202,3.3036,3.032,2.7163,2.4887,2.4226,2.5585,2.0813,2.0225,2.475,2.0409,1.7759,1.7055,1.6151,1.5307,1.4493,1.4493,1.5197,1.6488,1.8786,1.9373,1.886,2.1914,2.5915,3.0332,3.2045,3.1665,3.0785,3.6927,3.9239,3.9606,4.247,4.3515,4.3147,4.0724,3.957,3.8358,3.349,3.5032,3.7102,2.9092,3.0448,3.3448,2.8383,2.7433,2.6835,2.2468,2.2758,2.247,1.6154,0.0,1.7705,1.7005,0.0,1.8331,2.0156,0.0,0.0,2.0276,2.4293,2.6976,2.5722,2.9312,3.2486,3.3687,3.957,4.2359,3.9533,3.8594,3.9659,4.3221,4.021,3.9732,4.3331,4.3515,4.3515,4.3515,4.3515,4.3515,4.3515,4.4886,4.5449,4.5177,4.6988,4.7709,4.7476,4.8642,4.8789,4.8125,4.8933,4.8817,4.8086,4.8009,4.7971,4.7817,4.6201,4.5594,4.5594,4.5594,4.5594,4.5594,2.2695,2.2807,2.3435,2.5379,2.6126,2.7361,3.0198,3.2509,3.4222,3.4951,3.6597,3.7771,3.797,3.6523,3.5555,3.5555,3.416,3.1715,2.8044,2.6833,2.5548,2.3896,2.151,2.1225,2.3281,2.0344,1.839,1.7612,1.6334,1.5307,1.4493,1.4493,1.6695,2.0629,2.107,2.3199,2.6455,2.5364,2.6329,2.8705,2.9475,2.9219,2.9255,3.8102,4.1479,4.1662,4.3037,4.3515,4.3368,4.234,4.0209,3.8042,3.8309,3.7278,3.5303,3.2285,3.2391,3.2555,2.8288,2.858,2.8913,2.4136,2.4275,2.3845,1.741,1.6755,1.7458,1.727,0.0,0.0,0.0,0.0,0.0,0.0,2.2097,2.363,2.0858,2.5489,2.9911,3.1952,3.4399,3.6454,3.786,3.7713,3.9182,4.3221,3.9769,3.9255,4.3294,4.3515,4.3515,4.3515,4.3515,4.3597,4.3807,4.5143,4.5821,4.5886,4.7907,4.8769,4.867,4.9702,4.9933,4.9625,5.001,4.9933,4.9586,4.9048,4.8856,4.874,4.7509,4.6778,4.6278,4.5787,4.5594,4.5594,2.3034,2.3092,2.3506,2.5249,2.5793,2.707,3.0259,3.3453,3.5605,3.5899,3.7367,3.8395,3.8484,3.7588,3.7096,3.7316,3.6817,3.4835,3.1054,2.9732,2.8301,2.6513,2.3465,2.262,2.4383,2.0858,1.8574,1.7759,1.6151,1.5086,1.4493,1.4493,1.7245,2.2208,2.262,2.5841,3.0821,2.8643,2.8558,2.9953,3.032,3.114,3.2829,3.9606,4.2727,4.3515,4.3515,4.3515,4.3404,4.2743,4.0277,3.7988,4.0678,3.8472,3.4909,3.4967,3.4674,3.3467,2.9615,3.0302,3.0792,2.5142,2.4646,2.4099,1.8574,1.7834,1.8527,1.9105,1.8795,0.0,0.0,0.0,1.8122,1.8895,0.0,2.1086,1.7708,2.1658,2.5731,2.7942,2.916,3.1621,3.6196,3.539,3.6748,4.1887,3.8257,3.808,4.3221,4.3515,4.3515,4.3515,4.3515,4.3644,4.3982,4.5416,4.6304,4.6663,4.8739,4.974,4.9779,5.0404,5.0712,5.0712,5.0712,5.0712,5.0635,5.001,4.974,4.9663,4.8817,4.8086,4.7471,4.6624,4.6163,4.597,2.2928,2.2738,2.2446,2.2764,2.3749,2.5494,2.8612,2.9831,3.1518,3.4637,3.6486,3.841,4.0728,4.1625,4.2396,4.3184,4.3221,4.1809,3.8579,3.4637,3.416,3.7991,2.764,2.4713,3.0956,2.2575,1.7759,1.6945,1.5337,1.453,1.4493,1.4493,1.5441,1.7385,2.2841,2.5852,2.7079,3.1604,3.5385,3.8248,3.7492,3.9512,4.2707,3.99,4.0781,4.3515,4.3515,4.3515,4.3147,4.0781,3.9916,3.9402,3.7235,3.797,3.9243,3.7145,3.814,3.9005,3.4633,3.4106,3.2863,2.483,2.3505,2.2808,1.7692,1.8423,2.0227,2.0265,2.2158,2.3624,2.2855,2.1966,2.0812,0.0,1.9073,0.0,0.0,1.6721,0.0,1.8772,2.4534,2.9982,3.4098,3.0095,3.0564,3.854,3.4468,3.5069,4.3074,4.3515,4.3515,4.3515,4.3515,4.3644,4.3982,4.6045,4.7239,4.759,4.967,5.0673,5.0673,5.0712,5.0712,5.0712,5.0712,5.0712,5.0712,5.0673,5.0673,5.0558,4.9702,4.9356,4.9202,4.8355,4.7548,4.6846,2.3118,2.3056,2.3068,2.3588,2.4002,2.5521,2.922,3.1812,3.4344,3.7096,3.8395,3.979,4.1699,4.2139,4.2616,4.3441,4.3515,4.2139,3.8909,3.6413,3.5165,3.5459,2.9769,2.7346,2.8962,2.4483,2.0923,1.85,1.7399,1.6878,1.6878,1.6321,1.7238,1.9476,2.3575,2.7614,3.1494,3.3683,3.6486,3.946,3.9218,4.0871,4.3404,4.2286,4.256,4.3515,4.3515,4.3515,4.3368,4.256,4.133,4.02,4.0845,3.9525,3.7868,3.873,3.8423,3.7578,3.65,3.7495,3.7028,2.9666,2.8268,2.7033,2.0506,2.1004,2.2355,2.0654,2.3197,2.5159,2.3163,2.2081,0.0,0.0,0.0,0.0,0.0,1.4766,1.5584,0.0,0.0,0.0,0.0,2.9898,3.3006,3.7355,3.6714,3.8501,4.3942,4.3974,4.3818,4.3818,4.3818,4.4258,4.5176,4.6695,4.7896,4.8815,5.0096,5.0712,5.0712,5.0712,5.0712,5.0712,5.0712,5.0712,5.0712,5.0712,5.0712,5.0673,5.0366,5.025,5.0087,4.8625,4.7932,4.7625,2.3954,2.3578,2.3362,2.3945,2.4827,2.6649,3.0099,3.339,3.6325,3.8799,4.0084,4.1368,4.2983,4.3167,4.3497,4.4268,4.4342,4.3094,4.0157,3.8726,3.7661,3.6853,3.3476,3.1751,3.2094,2.8044,2.4593,2.1914,1.9932,1.8933,1.8933,1.7832,1.8449,2.0621,2.3061,2.7578,3.3476,3.4857,3.8028,4.2029,4.2029,4.2947,4.4342,4.4342,4.3975,4.3588,4.4176,4.4342,4.4305,4.4011,4.2971,4.1994,4.3125,4.1441,3.9342,4.0932,4.0266,3.8994,3.8746,3.9713,3.9362,3.3262,3.1966,3.0498,2.4005,2.4505,2.5774,2.3812,2.5351,2.7121,2.7274,2.462,2.2466,0.0,0.0,0.0,0.0,1.4613,0.0,0.0,0.0,0.0,0.0,0.0,3.0891,3.7408,3.6287,3.805,4.4272,4.4346,4.4204,4.4204,4.4204,4.4777,4.5963,4.7067,4.8231,4.9394,5.0289,5.0712,5.0712,5.0712,5.0712,5.0712,5.0712,5.0712,5.0712,5.0712,5.0712,5.0712,5.0712,5.0712,5.0558,4.9433,4.8817,4.8432,2.535,2.4406,2.3589,2.3952,2.6158,2.8705,3.1213,3.4261,3.7184,3.968,4.1405,4.2983,4.4599,4.4764,4.5076,4.5847,4.5883,4.4929,4.2616,4.1682,4.1609,4.2433,3.8652,3.7624,3.99,3.2876,2.8363,2.6712,2.2639,2.0613,2.0548,1.9006,1.908,2.0548,2.1437,2.5878,3.2803,3.5275,4.0047,4.603,4.603,4.5957,4.592,4.5993,4.5002,4.3845,4.5333,4.5883,4.5773,4.5039,4.4764,4.4635,4.3791,4.3551,4.3569,4.3515,4.3515,4.3148,4.1464,4.1004,3.9978,3.5653,3.4513,3.3167,2.8159,2.8962,3.05,2.955,2.8896,2.9852,3.4423,2.9313,2.4856,0.0,0.0,0.0,0.0,0.0,0.0,0.0,0.0,0.0,0.0,0.0,0.0,3.8015,3.3456,0.0,4.4134,4.4411,4.4398,4.4637,4.4637,4.5179,4.6347,4.722,4.8241,4.9471,5.0289,5.0712,5.0712,5.0712,5.0712,5.0712,5.0712,5.0712,5.0712,5.0712,5.0712,5.0712,5.0712,5.0712,5.0712,5.0712,5.0173,4.9356,2.5135,2.6391,2.7752,2.8406,2.8622,2.9904,3.3537,3.5349,3.7588,4.1222,4.2543,4.3791,4.5406,4.559,4.5663,4.5883,4.5883,4.5626,4.5002,4.3644,4.3497,4.4892,4.1699,4.0157,4.0765,3.4784,3.0601,2.84,2.4327,2.2052,2.1445,2.1041,2.0703,2.0539,2.2052,2.6722,3.3623,3.5495,4.0708,4.7682,4.7682,4.6985,4.603,4.7241,4.6691,4.5333,4.5736,4.5883,4.5883,4.5663,4.559,4.5443,4.4635,4.4566,4.4596,4.3747,4.366,4.384,4.3676,4.3605,4.3035,4.0462,3.8892,3.7161,3.3962,3.4692,3.5468,3.3321,3.4744,3.543,3.2308,3.0115,2.7698,2.4312,2.0546,0.0,0.0,0.0,0.0,1.9115,0.0,0.0,0.0,0.0,0.0,0.0,3.4615,3.8976,4.5007,4.2082,4.1689,4.489,4.4966,4.5696,4.7236,4.7747,4.8798,5.0366,5.0596,5.0712,5.0712,5.0712,5.0712,5.0712,5.0712,5.0712,5.0712,5.0712,5.0712,5.0712,5.0712,5.0712,5.0712,5.0712,5.0558,5.025,2.7378,2.9745,3.1775,3.2216,3.2522,3.3587,3.6215,3.7609,3.946,4.2433,4.3828,4.4892,4.581,4.6544,4.6948,4.6948,4.6948,4.6507,4.5443,4.5516,4.5516,4.5369,4.4654,4.4251,4.4251,3.9717,3.5679,3.2179,2.8143,2.485,2.2318,2.1959,2.1327,2.0576,2.2235,2.6235,3.2045,3.7221,4.2249,4.6838,4.7902,4.7755,0.0,4.7976,4.7755,4.6948,4.6948,4.6948,4.6911,4.6544,4.6434,4.6287,4.548,4.548,4.5568,4.4531,4.451,4.4796,4.4814,4.4825,4.46,4.3682,4.2739,4.1285,3.8354,3.843,3.8707,3.7245,3.7315,3.7507,3.7123,3.3083,2.8044,2.2581,2.0081,1.8734,0.0,0.0,0.0,0.0,2.1308,0.0,0.0,0.0,0.0,0.0,0.0,3.7592,4.2047,4.0492,4.1293,4.5188,4.5303,4.6107,4.7803,4.802,4.8971,5.0712,5.0712,5.0712,5.0712,5.0712,5.0712,5.0712,5.0712,5.0712,5.0712,5.0712,5.0712,5.0712,5.0712,5.0712,5.0712,5.0712,5.0712,5.0635,3.0585,3.3354,3.5298,3.5188,3.6817,3.8447,3.935,4.0655,4.2159,4.3754,4.548,4.6544,4.6544,4.7792,4.8636,4.8636,4.8636,4.7755,4.5645,4.7462,4.7645,4.5443,4.7352,4.8416,4.8306,4.5039,4.1038,3.6303,3.2118,2.7567,2.2822,2.2143,2.1327,2.0576,2.2235,2.5574,3.0564,3.9643,4.4195,4.5553,4.7645,4.8526,4.8636,4.8526,4.8489,4.8489,4.8489,4.8416,4.8196,4.748,4.7259,4.7113,4.6324,4.633,4.6488,4.5637,4.5663,4.5898,4.5533,4.5344,4.5343,4.5686,4.5671,4.4825,4.1862,4.117,4.117,4.117,3.8854,3.8469,4.394,3.6629,2.7934,2.235,2.1269,2.0773,0.0,0.0,0.0,0.0,0.0,0.0,0.0,0.0,0.0,0.0,0.0,0.0,3.7892,3.8938,4.1285,4.5479,4.571,4.6471,4.7932,4.8163,4.9048,5.0519,5.0635,5.0712,5.0712,5.0712,5.0712,5.0712,5.0712,5.0712,5.0712,5.0712,5.0712,5.0712,5.0712,5.0712,5.0712,5.0712,5.0712,5.0712,3.1488,3.4601,3.6853,3.6193,3.9056,4.1956,4.3424,4.3901,4.4654,4.6269,4.8489,4.9958,4.9958,5.0178,5.0362,5.0362,5.0362,5.0178,4.9774,5.0141,4.9884,4.8802,4.917,4.904,4.8306,4.4488,4.0451,3.6303,3.1518,2.6749,2.1996,2.1886,2.1327,2.0576,2.2235,2.7482,3.5385,4.1091,4.5534,4.8802,4.9206,4.9774,5.0288,4.9627,4.939,4.939,4.939,4.8893,4.8269,4.8159,4.8086,4.7976,4.7149,4.7183,4.7318,4.6494,4.6525,4.683,4.7079,4.6625,4.6184,4.656,4.6124,4.5441,4.4825,4.471,4.471,4.471,4.4248,4.3324,4.1708,3.6976,3.2051,2.8165,2.639,2.6621,0.0,0.0,0.0,0.0,0.0,2.7664,0.0,0.0,0.0,0.0,0.0,0.0,3.8615,3.5353,3.7046,4.5325,4.6317,4.6817,4.7115,4.8471,4.9317,4.9625,5.0366,5.0712,5.0712,5.0712,5.0712,5.0712,5.0712,5.0712,5.0712,5.0712,5.0712,5.0712,5.0712,5.0712,5.0712,5.0712,5.0712,5.0712,3.5287,3.7561,3.9401,3.9506,4.1833,4.4176,4.5794,4.7122,4.7862,4.7735,4.8783,4.9517,4.9517,5.0288,5.0802,5.0802,5.0802,5.0802,5.0802,5.0802,5.0618,5.0251,5.0215,5.0031,4.9627,4.7719,4.3497,3.6942,3.4137,2.9035,2.1812,2.1812,2.1327,2.0694,2.5328,3.021,3.5422,4.1956,4.6104,4.8416,4.9701,5.0435,5.0765,5.0362,5.0215,5.0215,5.0215,4.9664,4.8893,4.8453,4.8306,4.8271,4.8088,4.817,4.8236,4.7819,4.7805,4.7922,4.7865,4.7566,4.7164,4.6972,4.6586,4.6163,4.571,4.5594,4.5594,4.5594,4.5594,4.4556,4.1131,3.743,3.4199,3.2089,2.9588,2.9083,3.2429,0.0,0.0,0.0,0.0,0.0,0.0,0.0,0.0,0.0,0.0,0.0,0.0,3.4622,3.6392,4.5325,4.6432,4.7077,4.7509,4.8779,4.9625,5.0087,5.0519,5.0712,5.0712,5.0712,5.0712,5.0712,5.0712,5.0712,5.0712,5.0712,5.0712,5.0712,5.0712,5.0712,5.0712,5.0712,5.0712,5.0712,3.9196,4.064,4.2011,4.3042,4.4702,4.6313,4.7585,4.9814,5.0846,4.9275,4.926,4.9334,4.9334,5.0545,5.1316,5.1316,5.1316,5.1316,5.1316,5.1316,5.1242,5.1059,5.1059,5.0986,5.0802,5.0802,4.6948,3.9035,3.7184,3.1935,2.3575,2.2363,2.2061,2.2822,2.8925,3.333,3.656,4.313,4.6764,4.8287,5.0288,5.1169,5.1279,5.1132,5.1059,5.1059,5.1059,5.0545,4.9721,4.8857,4.8453,4.8345,4.8779,4.8878,4.8915,4.8932,4.9009,4.9002,4.8631,4.8462,4.824,4.7586,4.7163,4.674,4.6009,4.5748,4.5594,4.5594,4.5594,4.4556,4.1131,3.8931,3.6969,3.4814,3.2666,3.2051,3.4199,0.0,0.0,0.0,0.0,0.0,0.0,0.0,0.0,0.0,0.0,0.0,3.6238,3.4468,3.6738,4.4556,4.5817,4.6586,4.7048,4.8779,4.9933,5.0442,5.0596,5.0712,5.0712,5.0712,5.0712,5.0712,5.0712,5.0712,5.0712,5.0712,5.0712,5.0712,5.0712,5.0712,5.0712,5.0712,5.0712,5.0712,4.1206,4.2693,4.4046,4.5333,4.7532,4.9108,4.9255,5.1381,5.2648,5.1756,5.2307,5.2726,5.2726,5.2873,5.2983,5.2983,5.2983,5.2983,5.2983,5.2983,5.2637,5.1903,5.1867,5.1536,5.0839,5.0802,4.8563,4.4048,3.8836,3.3954,2.9292,2.4199,2.4493,2.9402,3.1518,3.6655,4.3791,4.5259,4.8086,5.1573,5.1793,5.2307,5.2894,5.216,5.1867,5.1867,5.1867,5.1353,5.0545,4.9757,4.893,4.8345,4.8779,4.8878,4.8978,4.9317,4.9681,4.9959,4.9918,4.9586,4.924,4.9163,4.8009,4.6885,4.6817,4.6163,4.5594,4.5594,4.5594,4.4556,4.1131,4.2786,4.2624,3.6385,3.7046,3.8669,3.9669,3.6476,3.4898,0.0,0.0,0.0,0.0,2.3081,0.0,0.0,0.0,0.0,0.0,3.343,3.6546,4.197,4.3701,4.4239,4.3585,4.824,5.0202,4.951,5.0327,5.0712,5.0712,5.0712,5.0712,5.0712,5.0712,5.0712,5.0712,5.0712,5.0712,5.0712,5.0712,5.0712,5.0712,5.0712,5.0712,5.0712,4.5622,4.5551,4.5914,4.7935,4.8289,4.8941,5.0906,5.2416,5.3375,5.3479,5.3317,5.3203,5.3203,5.3203,5.3203,5.3203,5.3203,5.3203,5.3203,5.3203,5.3078,5.2747,5.2711,5.2564,5.227,5.2234,4.9994,4.5406,4.1222,3.6597,3.1592,2.9329,3.054,3.4775,3.8799,4.2396,4.5626,4.8893,5.1242,5.2711,5.2711,5.2931,5.3167,5.2858,5.2711,5.2711,5.2711,5.2197,5.1463,5.1132,5.0178,4.912,4.923,4.9092,4.9075,4.9962,5.0159,5.0159,5.038,5.0315,5.0048,4.951,4.8894,4.8279,4.774,4.6971,4.6394,4.6394,4.597,4.5171,4.3825,4.3017,4.2324,4.1662,4.0708,4.0862,4.3247,4.2093,0.0,0.0,0.0,0.0,0.0,0.0,0.0,0.0,0.0,0.0,3.1968,3.3045,3.5045,3.8615,4.4355,4.6201,4.3855,4.8403,5.0519,5.0164,5.0519,5.0712,5.0712,5.0712,5.0712,5.0712,5.0712,5.0712,5.0712,5.0712,5.0712,5.0712,5.0712,5.0712,5.0712,5.0712,5.0712,5.0712,4.9029,4.8433,4.8504,5.1096,5.0638,5.0665,5.2905,5.3718,5.4209,5.4762,5.4318,5.3922,5.3922,5.3922,5.3922,5.3922,5.3702,5.3555,5.3555,5.3335,5.3203,5.3203,5.3203,5.3203,5.3203,5.3203,5.1499,4.8049,4.4342,4.0435,3.6486,3.5298,3.6633,4.0173,4.4378,4.6911,4.8269,5.1756,5.3203,5.3203,5.3203,5.3203,5.3203,5.3203,5.3203,5.3203,5.3203,5.2821,5.2307,5.2087,5.1263,5.0225,4.9802,4.9577,4.9549,5.0188,5.0325,5.0325,5.0483,5.0614,5.0558,4.9933,4.9586,4.924,4.8625,4.7855,4.7192,4.6962,4.6394,4.5893,4.5633,4.3632,4.2478,4.3863,4.294,4.2478,4.3902,4.4094,4.4094,4.4094,4.1901,0.0,3.9708,3.3699,0.0,0.0,0.0,0.0,3.3237,3.3891,3.5545,3.8815,4.5009,4.7124,4.4701,4.8673,5.0712,5.0712,5.0712,5.0712,5.0712,5.0712,5.0712,5.0712,5.0712,5.0712,5.0712,5.0712,5.0712,5.0712,5.0712,5.0712,5.0712,5.0712,5.0721,5.0776,5.0585,5.1154,5.2058,5.5043,5.5515,5.5515,5.5552,5.5552,5.5574,5.5574,5.5574,5.5596,5.5596,5.5596,5.5596,5.5596,5.484,5.4399,5.4399,5.3665,5.3203,5.3203,5.3203,5.3203,5.3203,5.3203,5.3167,5.3093,4.8233,4.581,4.5663,4.1662,4.1956,4.5847,4.6709,4.9314,5.3093,5.3167,5.3203,5.3203,5.3203,5.3203,5.3203,5.3203,5.3203,5.3203,5.3203,5.3167,5.3078,5.227,5.1977,5.1748,5.0489,5.0354,5.053,4.973,5.0049,5.0604,5.0206,5.038,5.0712,5.0712,5.0048,4.9394,4.9394,4.8702,4.7855,4.7038,4.6885,4.6624,4.5748,4.5556,4.444,4.1093,4.3363,4.4363,4.1016,4.0554,4.0554,4.0554,3.3205,3.1358,3.9669,3.1314,0.0,0.0,0.0,3.3506,3.5385,3.6231,3.8969,4.4047,4.5133,4.5633,4.5594,4.898,5.0712,5.0712,5.0712,5.0712,5.0712,5.0712,5.0712,5.0712,5.0712,5.0712,5.0712,5.0712,5.0712,5.0712,5.0712,5.0712,5.0712,5.0712,5.0782,5.0889,5.2598,5.2314,5.2429,5.3918,5.4167,5.4323,5.4853,5.5835,5.649,5.649,5.6935,5.7226,5.7226,5.6235,5.5596,5.5596,5.5354,5.5207,5.5207,5.4987,5.484,5.484,5.484,5.4583,5.4032,5.4032,5.3739,5.3203,4.9407,4.7535,4.7498,4.6214,4.7498,5.0912,5.1149,5.1956,5.3203,5.3203,5.3203,5.3203,5.3203,5.3203,5.3203,5.3203,5.3203,5.3203,5.3203,5.3203,5.3188,5.2894,5.2821,5.2658,5.1681,5.1464,5.1473,5.0895,5.1082,5.1375,5.0678,5.0604,5.0712,5.0712,5.0481,5.0289,5.0289,4.9625,4.874,4.7894,4.774,4.7625,4.7355,4.7317,4.6932,4.5855,4.6124,4.6124,4.5009,4.4355,4.3978,4.3978,4.2124,4.1931,4.4586,3.9277,3.6315,3.7892,3.3199,3.1583,3.4468,3.87,4.1008,4.0893,4.621,4.798,4.5633,4.898,5.0712,5.0712,5.0712,5.0712,5.0712,5.0712,5.0712,5.0712,5.0712,5.0712,5.0712,5.0712,5.0712,5.0712,5.0712,5.0712,5.0712,5.0712,5.0782,5.0889,5.4235,5.3914,5.3925,5.5019,5.5164,5.536,5.5794,5.6685,5.7327,5.7327,5.7726,5.7997,5.7997,5.7079,5.6492,5.6492,5.6235,5.6051,5.6051,5.5757,5.5596,5.5596,5.5596,5.5354,5.484,5.484,5.4583,5.4106,5.205,5.1059,5.1059,5.1059,5.2123,5.4106,5.4106,5.4106,5.4106,5.4106,5.3922,5.3665,5.3665,5.3482,5.3203,5.3203,5.3203,5.3203,5.3203,5.3203,5.3203,5.3203,5.3203,5.3115,5.2601,5.2549,5.2516,5.1774,5.1636,5.1595,5.1249,5.0933,5.0712,5.0712,5.0712,5.0712,5.0712,5.0289,4.9625,4.8779,4.8586,4.8509,4.8163,4.8086,4.8086,4.8086,4.7702,4.7355,4.7355,4.6894,4.6047,4.4816,4.5124,4.547,4.547,4.3047,4.1546,4.1777,3.8623,3.7668,3.9777,4.07,4.1931,4.3517,4.8211,4.9673,4.7557,4.9634,5.0712,5.0712,5.0712,5.0712,5.0712,5.0712,5.0712,5.0712,5.0712,5.0712,5.0712,5.0712,5.0712,5.0712,5.0712,5.0712,5.0712,5.0712,5.0841,5.0992,5.5262,5.561,5.6087,5.7522,5.7844,5.7927,5.7927,5.7973,5.7997,5.7997,5.7997,5.7997,5.7997,5.7997,5.7997,5.7997,5.7336,5.6895,5.6895,5.6161,5.578,5.578,5.578,5.5743,5.5684,5.5706,5.5669,5.5596,5.5596,5.5596,5.5596,5.5596,5.5596,5.5596,5.5596,5.5596,5.5596,5.5596,5.517,5.4473,5.4473,5.4032,5.3371,5.3298,5.3277,5.3277,5.3203,5.3203,5.3203,5.3203,5.3203,5.3203,5.3203,5.3464,5.3534,5.2419,5.1802,5.1534,5.1813,5.1356,5.0789,5.0712,5.0712,5.0712,5.0712,5.0712,5.0481,4.9663,4.9471,4.924,4.8432,4.8279,4.8279,4.8279,4.824,4.8202,4.8202,4.8125,4.6932,4.3816,4.3508,4.3547,4.3547,4.3585,4.4816,4.7625,4.8625,4.9125,4.9048,4.2354,4.2277,5.0442,5.0712,5.0712,5.0712,5.0712,5.0712,5.0712,5.0712,5.0712,5.0712,5.0712,5.0712,5.0712,5.0712,5.0712,5.0712,5.0712,5.0712,5.0712,5.0712,5.0712,5.0712,5.0712,5.0883,5.1089,5.3946,5.4451,5.4999,5.532,5.6367,5.7141,5.7141,5.7655,5.7997,5.7997,5.7997,5.7997,5.7997,5.7997,5.7997,5.7997,5.7813,5.7703,5.7703,5.7519,5.7409,5.7409,5.7409,5.7152,5.6528,5.6528,5.6235,5.5596,5.5596,5.5596,5.5596,5.5596,5.5596,5.5596,5.5596,5.5596,5.5596,5.5596,5.5486,5.5317,5.5317,5.5207,5.495,5.4363,5.4106,5.4032,5.3445,5.3203,5.3203,5.3203,5.3203,5.3203,5.3203,5.3272,5.3299,5.2982,5.3039,5.3022,5.2158,5.1769,5.1471,5.0856,5.0712,5.0712,5.0712,5.0712,5.0635,5.0442,5.0404,5.0327,5.0125,5.0087,5.0087,5.0087,4.951,4.9086,4.9086,4.8509,4.7817,4.7009,4.7509,4.7894,4.7894,4.8509,4.7855,4.5393,4.6009,4.621,4.5547,4.4432,4.5941,5.0558,5.0712,5.0712,5.0712,5.0712,5.0712,5.0712,5.0712,5.0712,5.0712,5.0712,5.0712,5.0712,5.0712,5.0712,5.0712,5.0712,5.0712,5.0712,5.0712,5.0712,5.0712,5.0712,5.0883,5.1089,5.3946,5.4328,5.4695,5.5024,5.6095,5.6912,5.6912,5.7522,5.7997,5.7997,5.7997,5.7997,5.7997,5.7997,5.7997,5.7997,5.7997,5.7997,5.7997,5.7997,5.7997,5.7997,5.7997,5.7813,5.7373,5.7336,5.7116,5.6675,5.6675,5.6675,5.6675,5.6675,5.6675,5.6675,5.6675,5.6675,5.6675,5.6675,5.6492,5.6161,5.6161,5.5941,5.5559,5.5097,5.473,5.4326,5.3922,5.3518,5.3203,5.3203,5.3203,5.323,5.3404,5.3339,5.3285,5.3679,5.3679,5.3394,5.2903,5.2636,5.2269,5.1471,5.0971,5.0712,5.0712,5.0712,5.0712,5.0712,5.0712,5.0712,5.0712,5.0712,5.0712,5.0712,5.0289,4.9971,4.9971,4.9586,4.9279,4.9279,4.9702,4.9971,4.9971,5.0442,4.975,4.7394,4.7672,4.7711,4.724,4.7672,4.8788,5.0635,5.0712,5.0712,5.0712,5.0712,5.0712,5.0712,5.0712,5.0712,5.0712,5.0712,5.0712,5.0712,5.0712,5.0712,5.0712,5.0712,5.0712,5.0712,5.0712,5.0712,5.0721,5.0756,5.0918,5.1099,5.4328,5.4544,5.4787,5.5437,5.6286,5.6912,5.6912,5.7522,5.7997,5.7997,5.7997,5.7997,5.7997,5.7997,5.7997,5.7997,5.7997,5.7997,5.7997,5.7997,5.7997,5.7997,5.7997,5.7997,5.7997,5.7997,5.7997,5.7997,5.7997,5.7997,5.7997,5.7997,5.7997,5.7997,5.7997,5.7997,5.7997,5.7997,5.7593,5.6969,5.6969,5.6565,5.5941,5.5831,5.5354,5.473,5.4473,5.3959,5.3371,5.3261,5.3203,5.3251,5.3604,5.3543,5.344,5.4103,5.3882,5.3452,5.3729,5.351,5.301,5.2269,5.1587,5.1058,5.0894,5.0894,5.0866,5.075,5.0712,5.0712,5.0712,5.0712,5.0519,5.0019,5.0366,5.0519,5.0019,5.0366,5.0712,5.0712,5.0712,5.0712,5.0712,5.0712,5.0712,5.0712,5.0712,5.0712,5.0712,5.0712,5.0712,5.0712,5.0712,5.0712,5.0712,5.0712,5.075,5.0894,5.0894,5.0933,5.1058,5.0933,5.0894,5.0894,5.0894,5.0894,5.0894,5.102,5.101,5.0894,5.0894,5.0827,5.0702,5.0851,5.0966,5.1108,5.3651,5.4168,5.4668,5.4757,5.5956,5.6912,5.6912,5.7522,5.7997,5.7997,5.7997,5.7997,5.7997,5.7997,5.7997,5.7997,5.7997,5.7997,5.7997,5.7997,5.7997,5.7997,5.7997,5.7997,5.7997,5.7997,5.7997,5.7997,5.7997,5.7997,5.7997,5.7997,5.7997,5.7997,5.7997,5.7997,5.7997,5.7997,5.7923,5.7813,5.7813,5.774,5.7556,5.6859,5.6565,5.6271,5.4876,5.4326,5.4106,5.3424,5.3203,5.3225,5.3272,5.3484,5.3644,5.3444,5.3832,5.4223,5.3895,5.351,5.3164,5.3049,5.2895,5.2626,5.1885,5.1692,5.151,5.0827,5.0712,5.0712,5.0712,5.0712,4.975,4.6864,4.8826,4.9711,4.6787,4.8865,5.0712,5.0712,5.0712,5.0712,5.0712,5.0712,5.0712,5.0712,5.0712,5.0712,5.0712,5.0712,5.0712,5.0712,5.0712,5.0712,5.0712,5.0712,5.1048,5.1692,5.1692,5.2087,5.2779,5.2049,5.1692,5.1692,5.1692,5.1692,5.1769,5.251,5.2395,5.1692,5.1692,5.1318,5.0702,5.0851,5.0966,5.1108,5.3518,5.3783,5.4139,5.4544,5.5495,5.6394,5.6835,5.7522,5.7997,5.7997,5.7997,5.7997,5.7997,5.7997,5.7997,5.7997,5.7997,5.7997,5.7997,5.7997,5.7997,5.7997,5.7997,5.7997,5.7997,5.7997,5.7997,5.7997,5.7997,5.7997,5.7997,5.7997,5.7997,5.7997,5.7997,5.7997,5.7997,5.7997,5.7997,5.7997,5.7997,5.7997,5.796,5.7593,5.7189,5.6712,5.5978,5.5427,5.4913,5.4106,5.3849,5.3818,5.3592,5.3524,5.3484,5.3487,5.3997,5.4503,5.4504,5.4199,5.3895,5.3895,5.3549,5.3087,5.2692,5.2577,5.2356,5.151,5.1356,5.1202,5.0789,5.0712,5.0173,4.8596,4.9673,5.0135,4.8557,4.9711,5.0712,5.0712,5.0712,5.0712,5.0712,5.0712,5.0712,5.0712,5.1087,5.1356,5.1356,5.1779,5.2049,5.2049,5.1587,5.1587,5.2049,5.2049,5.2241,5.2577,5.2577,5.2818,5.3203,5.2779,5.2577,5.2577,5.2577,5.2577,5.2615,5.3049,5.2972,5.2577,5.2577,5.2087,5.1366,5.1591,5.1425,5.1117,5.3518,5.3518,5.3651,5.4232,5.5119,5.592,5.6536,5.7425,5.7997,5.7997,5.7997,5.7997,5.7997,5.7997,5.7997,5.7997,5.7997,5.7997,5.7997,5.7997,5.7997,5.7997,5.7997,5.7997,5.7997,5.7997,5.7997,5.7997,5.7997,5.7997,5.7997,5.7997,5.7997,5.7997,5.7997,5.7997,5.7997,5.7997,5.7997,5.7997,5.7997,5.7997,5.7997,5.7997,5.7629,5.7042,5.6859,5.6418,5.5757,5.495,5.4546,5.4354,5.4047,5.3672,5.34,5.3604,5.4048,5.4594,5.5121,5.4939,5.4655,5.4769,5.428,5.3741,5.3549,5.351,5.3241,5.2385,5.2192,5.201,5.1395,5.1279,5.101,5.0202,5.0741,5.101,5.0202,5.0779,5.1279,5.1279,5.1279,5.1279,5.1279,5.1279,5.1279,5.1279,5.1856,5.2192,5.2192,5.2856,5.328,5.351,5.2654,5.25,5.3203,5.3203,5.3318,5.351,5.351,5.3587,5.378,5.3587,5.351,5.351,5.351,5.351,5.351,5.3703,5.3664,5.351,5.351,5.3012,5.2269,5.2505,5.2237,5.1752,5.3518,5.3518,5.3551,5.3551,5.4761,5.5724,5.578,5.7054,5.7997,5.7997,5.7997,5.7997,5.7997,5.7997,5.7997,5.7997,5.7997,5.7997,5.7997,5.7997,5.7997,5.7997,5.7997,5.7997,5.7997,5.7997,5.7997,5.7997,5.7997,5.7997,5.7997,5.7997,5.7997,5.7997,5.7997,5.7997,5.7997,5.7997,5.7997,5.7997,5.7997,5.7997,5.7997,5.7997,5.796,5.7813,5.7079,5.6748,5.6602,5.5757,5.5023,5.4399,5.4369,5.4075,5.3683,5.3339,5.3851,5.4655,5.5435,5.5373,5.5148,5.5522,5.5549,5.5318,5.4587,5.4395,5.4164,5.328,5.3087,5.3087,5.3049,5.301,5.1972,4.8817,5.0971,5.1895,4.874,5.101,5.301,5.301,5.301,5.301,5.301,5.301,5.301,5.301,5.3087,5.3087,5.3087,5.3164,5.3587,5.4395,5.3549,5.3126,5.3203,5.3203,5.3626,5.4395,5.4395,5.478,5.5472,5.4741,5.4395,5.4395,5.4395,5.4395,5.4472,5.5203,5.5088,5.4395,5.4395,5.3937,5.3305,5.3452,5.3545,5.3628,5.3518,5.3518,5.3651,5.4106,5.4668,5.532,5.6286,5.6927,5.7474,5.795,5.7997,5.7997,5.7997,5.7997,5.7997,5.7997,5.7997,5.7997,5.7997,5.7997,5.7997,5.7997,5.7997,5.7997,5.7997,5.7997,5.7997,5.7997,5.7997,5.7997,5.7997,5.7997,5.7997,5.7997,5.7997,5.7997,5.7997,5.7997,5.7997,5.7997,5.7997,5.7997,5.7997,5.7997,5.7997,5.796,5.7666,5.7556,5.7409,5.6638,5.6124,5.5794,5.528,5.4696,5.4109,5.3674,5.3814,5.4272,5.5121,5.5399,5.5531,5.5643,5.5703,5.5626,5.5318,5.5241,5.5011,5.4164,5.401,5.3857,5.3318,5.3203,5.2779,5.1471,5.2356,5.2741,5.1471,5.2395,5.3203,5.3203,5.3203,5.3203,5.3203,5.3203,5.3203,5.3203,5.3703,5.401,5.401,5.4472,5.4895,5.5241,5.4934,5.4741,5.4741,5.4741,5.4934,5.5241,5.5241,5.5395,5.5703,5.5395,5.5241,5.5241,5.5241,5.5241,5.528,5.5549,5.5511,5.5241,5.5241,5.4834,5.4219,5.4346,5.413,5.383,5.3518,5.3518,5.3685,5.4171,5.4451,5.4969,5.6012,5.6589,5.7065,5.7607,5.7881,5.7997,5.7997,5.7997,5.7997,5.7997,5.7997,5.7997,5.7997,5.7997,5.7997,5.7997,5.7997,5.7997,5.7997,5.7997,5.7997,5.7997,5.7997,5.7997,5.7997,5.7997,5.7997,5.7997,5.7997,5.7997,5.7997,5.7997,5.7997,5.7997,5.7997,5.7997,5.7997,5.7997,5.7997,5.7997,5.7997,5.7997,5.7923,5.7373,5.7005,5.6712,5.6161,5.5427,5.469,5.4295,5.4187,5.4294,5.4938,5.5287,5.5554,5.5682,5.5703,5.5703,5.5703,5.5703,5.5549,5.4972,5.4895,5.4703,5.4087,5.3972,5.3972,5.3972,5.3972,5.3972,5.3972,5.3972,5.3972,5.3972,5.3972,5.3972,5.3972,5.3972,5.3972,5.3972,5.4549,5.4895,5.4895,5.5395,5.5703,5.5703,5.5703,5.5703,5.5703,5.5703,5.5703,5.5703,5.5703,5.5703,5.5703,5.5703,5.5703,5.5703,5.5703,5.5703,5.5703,5.5703,5.5703,5.5703,5.5703,5.5498,5.519,5.5258,5.5046,5.4709,5.3518,5.3518,5.3518,5.3518,5.4106,5.4606,5.4606,5.59,5.6887,5.6912,5.7522,5.7997,5.7997,5.7997,5.7997,5.7997,5.7997,5.7997,5.7997,5.7997,5.7997,5.7997,5.7997,5.7997,5.7997,5.7997,5.7997,5.7997,5.7997,5.7997,5.7997,5.7997,5.7997,5.7997,5.7997,5.7997,5.7997,5.7997,5.7997,5.7997,5.7997,5.7997,5.7997,5.7997,5.7997,5.7997,5.7997,5.7997,5.7997,5.7997,5.7483,5.6822,5.6822,5.6235,5.5536,5.5112,5.5006,5.5005,5.509,5.5107,5.5199,5.5599,5.5703,5.5703,5.5703,5.5703,5.5703,5.5703,5.5703,5.5703,5.5703,5.5703,5.5703,5.5703,5.5703,5.5703,5.5703,5.5703,5.5703,5.5703,5.5703,5.5703,5.5703,5.5703,5.5703,5.5703,5.5703,5.5703,5.5703,5.5703,5.5703,5.5703,5.5703,5.5703,5.5703,5.5703,5.5703,5.5703,5.5703,5.5703,5.5703,5.5703,5.5703,5.5703,5.5703,5.5703,5.5703,5.5703,5.5703,5.5703,5.5703,5.5904,5.6191,5.6191,5.6374,5.6601,5.3518,5.3518,5.3518,5.3518,5.3651,5.3977,5.4513,5.4999,5.5674,5.6783,5.7091,5.7425,5.795,5.7997,5.7997,5.7997,5.7997,5.7997,5.7997,5.7997,5.7997,5.7997,5.7997,5.7997,5.7997,5.7997,5.7997,5.7997,5.7997,5.7997,5.7997,5.7997,5.7997,5.7997,5.7997,5.7997,5.7997,5.7997,5.7997,5.7997,5.7997,5.7997,5.7997,5.7997,5.7997,5.7997,5.7997,5.7997,5.7997,5.7997,5.785,5.7556,5.6969,5.6638,5.6316,5.5622,5.5215,5.5007,5.5035,5.5072,5.5199,5.5599,5.5703,5.5703,5.5703,5.5703,5.5703,5.5703,5.5703,5.5703,5.5703,5.5703,5.5703,5.5703,5.5703,5.5703,5.5703,5.5703,5.5703,5.5703,5.5703,5.5703,5.5703,5.5703,5.5703,5.5703,5.5703,5.5703,5.5703,5.5703,5.5703,5.5703,5.5703,5.5703,5.5703,5.5703,5.5703,5.5703,5.5703,5.5703,5.5703,5.5703,5.5703,5.5703,5.5703,5.5703,5.5703,5.5703,5.5703,5.5703,5.5703,5.5904,5.6191,5.6191,5.6374,5.6601,5.3518,5.3518,5.3518,5.3518,5.3518,5.3651,5.4106,5.4388,5.4939,5.5872,5.6536,5.7065,5.7498,5.7821,5.7997,5.7997,5.7997,5.7997,5.7997,5.7997,5.7997,5.7997,5.7997,5.7997,5.7997,5.7997,5.7997,5.7997,5.7997,5.7997,5.7997,5.7997,5.7997,5.7997,5.7997,5.7997,5.7997,5.7997,5.7997,5.7997,5.7997,5.7997,5.7997,5.7997,5.7997,5.7997,5.7997,5.7997,5.7997,5.7997,5.7997,5.7923,5.7446,5.7262,5.7116,5.6308,5.5886,5.566,5.5544,5.55,5.5602,5.5861,5.5807,5.5703,5.5703,5.5703,5.5703,5.5703,5.5703,5.5703,5.5703,5.5703,5.5703,5.5703,5.5703,5.5703,5.5703,5.5703,5.5703,5.5703,5.5703,5.5703,5.5703,5.5703,5.5703,5.5703,5.5703,5.5703,5.5703,5.5703,5.5703,5.5703,5.5703,5.5703,5.5703,5.5703,5.5703,5.5703,5.5703,5.5703,5.5703,5.5703,5.5703,5.5703,5.5703,5.5703,5.5703,5.5703,5.5703,5.5703,5.5703,5.5904,5.6191,5.6191,5.6374,5.6601,5.3518,5.3518,5.3518,5.3518,5.3518,5.3518,5.3518,5.4074,5.4544,5.4665,5.5928,5.6861,5.6989,5.7607,5.7997,5.7997,5.7997,5.7997,5.7997,5.7997,5.7997,5.7997,5.7997,5.7997,5.7997,5.7997,5.7997,5.7997,5.7997,5.7997,5.7997,5.7997,5.7997,5.7997,5.7997,5.7997,5.7997,5.7997,5.7997,5.7997,5.7997,5.7997,5.7997,5.7997,5.7997,5.7997,5.7997,5.7997,5.7997,5.7997,5.7997,5.7997,5.7997,5.7997,5.785,5.7116,5.6859,5.6691,5.6351,5.6251,5.6201,5.6277,5.6014,5.5748,5.5703,5.5703,5.5703,5.5703,5.5703,5.5703,5.5703,5.5703,5.5703,5.5703,5.5703,5.5703,5.5703,5.5703,5.5703,5.5703,5.5703,5.5703,5.5703,5.5703,5.5703,5.5703,5.5703,5.5703,5.5703,5.5703,5.5703,5.5703,5.5703,5.5703,5.5703,5.5703,5.5703,5.5703,5.5703,5.5703,5.5703,5.5703,5.5703,5.5703,5.5703,5.5703,5.5703,5.5703,5.5703,5.5714,5.5696,5.5921,5.6197,5.6207,5.638,5.6601,5.3619,5.3518,5.3518,5.3518,5.3518,5.3518,5.3518,5.3651,5.4171,5.532,5.5752,5.6421,5.7618,5.7927,5.7997,5.7997,5.7997,5.7997,5.7997,5.7997,5.7997,5.7997,5.7997,5.7997,5.7997,5.7997,5.7997,5.7997,5.7997,5.7997,5.7997,5.7997,5.7997,5.7997,5.7997,5.7997,5.7997,5.7997,5.7997,5.7997,5.7997,5.7997,5.7997,5.7997,5.7997,5.7997,5.7997,5.7997,5.7997,5.7997,5.7997,5.7997,5.7997,5.7997,5.796,5.7776,5.7299,5.6771,5.6698,5.645,5.6217,5.622,5.6207,5.6078,5.5764,5.5703,5.5703,5.5703,5.5703,5.5703,5.5703,5.5703,5.5703,5.5703,5.5703,5.5703,5.5703,5.5703,5.5703,5.5703,5.5703,5.5703,5.5703,5.5703,5.5703,5.5703,5.5703,5.5703,5.5703,5.5703,5.5703,5.5703,5.5703,5.5703,5.5703,5.5703,5.5703,5.5703,5.5703,5.5703,5.5703,5.5703,5.5703,5.5703,5.5703,5.5703,5.5703,5.5703,5.5703,5.5724,5.5816,5.6008,5.6207,5.6336,5.6458,5.6601,5.4093,5.3754,5.3518,5.3518,5.3518,5.3518,5.3518,5.3816,5.4296,5.5054,5.5808,5.6554,5.7401,5.7774,5.7997,5.7997,5.7997,5.7997,5.7997,5.7997,5.7997,5.7997,5.7997,5.7997,5.7997,5.7997,5.7997,5.7997,5.7997,5.7997,5.7997,5.7997,5.7997,5.7997,5.7997,5.7997,5.7997,5.7997,5.7997,5.7997,5.7997,5.7997,5.7997,5.7997,5.7997,5.7997,5.7997,5.7997,5.7997,5.7997,5.7997,5.7997,5.7997,5.7997,5.7997,5.7997,5.7703,5.7373,5.7373,5.7206,5.7006,5.6806,5.6817,5.6668,5.6116,5.5834,5.5703,5.5703,5.5703,5.5703,5.5703,5.5703,5.5703,5.5703,5.5703,5.5703,5.5703,5.5703,5.5703,5.5703,5.5703,5.5703,5.5703,5.5703,5.5703,5.5703,5.5703,5.5703,5.5703,5.5703,5.5703,5.5703,5.5703,5.5703,5.5703,5.5703,5.5703,5.5703,5.5703,5.5703,5.5703,5.5703,5.5703,5.5703,5.5703,5.5703,5.5703,5.5703,5.5703,5.5696,5.5831,5.6005,5.6207,5.6361,5.6466,5.6601,5.4634,5.4093,5.3653,5.3518,5.3518,5.3518,5.3518,5.4009,5.4513,5.4757,5.59,5.6809,5.7065,5.7655,5.7997,5.7997,5.7997,5.7997,5.7997,5.7997,5.7997,5.7997,5.7997,5.7997,5.7997,5.7997,5.7997,5.7997,5.7997,5.7997,5.7997,5.7997,5.7997,5.7997,5.7997,5.7997,5.7997,5.7997,5.7997,5.7997,5.7997,5.7997,5.7997,5.7997,5.7997,5.7997,5.7997,5.7997,5.7997,5.7997,5.7997,5.7997,5.7997,5.7997,5.7997,5.7997,5.7997,5.7997,5.7997,5.7997,5.7927,5.7587,5.7438,5.7267,5.671,5.6308,5.606,5.6115,5.6011,5.5934,5.5934,5.578,5.5703,5.5703,5.5703,5.5703,5.5703,5.5703,5.5703,5.5703,5.5703,5.5703,5.5703,5.5703,5.5703,5.5703,5.5703,5.5703,5.5703,5.5703,5.5703,5.5703,5.5703,5.5703,5.5703,5.5703,5.5703,5.5703,5.5703,5.5703,5.5703,5.5703,5.5703,5.5703,5.5703,5.5703,5.5703,5.5703,5.5703,5.5735,5.5874,5.6032,5.6212,5.6377,5.6511,5.6601,5.4837,5.4499,5.4262,5.3619,5.3518,5.3518,5.3518,5.3584,5.4106,5.5379,5.5752,5.6358,5.7726,5.795,5.7997,5.7997,5.7997,5.7997,5.7997,5.7997,5.7997,5.7997,5.7997,5.7997,5.7997,5.7997,5.7997,5.7997,5.7997,5.7997,5.7997,5.7997,5.7997,5.7997,5.7997,5.7997,5.7997,5.7997,5.7997,5.7997,5.7997,5.7997,5.7997,5.7997,5.7997,5.7997,5.7997,5.7997,5.7997,5.7997,5.7997,5.7997,5.7997,5.7997,5.7997,5.7997,5.7997,5.7997,5.7997,5.7997,5.7983,5.7941,5.7651,5.747,5.7774,5.7582,5.7454,5.7878,5.7357,5.683,5.683,5.6214,5.5703,5.5703,5.5703,5.5703,5.5703,5.5703,5.5703,5.5703,5.5703,5.5703,5.5703,5.5703,5.5703,5.5703,5.5703,5.5703,5.5703,5.5703,5.5703,5.5703,5.5703,5.5703,5.5703,5.5703,5.5703,5.5703,5.5703,5.5703,5.5703,5.5703,5.5703,5.5703,5.5703,5.5703,5.5703,5.5703,5.5703,5.5717,5.6037,5.6175,5.6222,5.6465,5.6562,5.6601,5.5953,5.5513,5.4972,5.4228,5.4126,5.3991,5.3551,5.3848,5.4359,5.5029,5.5808,5.6642,5.7327,5.775,5.7997,5.7997,5.7997,5.7997,5.7997,5.7997,5.7997,5.7997,5.7997,5.7997,5.7997,5.7997,5.7997,5.7997,5.7997,5.7997,5.7997,5.7997,5.7997,5.7997,5.7997,5.7997,5.7997,5.7997,5.7997,5.7997,5.7997,5.7997,5.7997,5.7997,5.7997,5.7997,5.7997,5.7997,5.7997,5.7997,5.7997,5.7997,5.7997,5.7997,5.7997,5.7997,5.7997,5.7997,5.7997,5.7997,5.7997,5.7997,5.7884,5.7841,5.8313,5.8507,5.8555,5.833,5.7973,5.7742,5.7742,5.7396,5.7165,5.7165,5.6742,5.6588,5.7088,5.6742,5.6445,5.6445,5.6011,5.5703,5.5703,5.5703,5.5703,5.5703,5.5703,5.5703,5.5703,5.5703,5.5703,5.5703,5.5703,5.5703,5.5703,5.5703,5.5703,5.5703,5.5703,5.5703,5.5703,5.5703,5.5703,5.5703,5.5703,5.5703,5.5703,5.5703,5.5758,5.5843,5.6104,5.6281,5.645,5.656,5.6601,5.6601]}]]